<?xml version="1.0" encoding="UTF-8" standalone="no" ?>
<gpx xmlns="http://www.topografix.com/GPX/1/1" xmlns:xsi="http://www.w3.org/2001/XMLSchema-instance" xsi:schemaLocation="http://www.topografix.com/GPX/1/1 http://www.topografix.com/GPX/1/1/gpx.xsd" version="1.1" creator="VisuGPX - https://www.visugpx.com">
  <metadata>
    <name>Drôme provençale </name>
    <desc><![CDATA[grp_trc:]]></desc>
  </metadata>
  <trk>
    <name><![CDATA[18 août 2022]]></name>
    <cmt><![CDATA[08:15:27]]></cmt>
    <desc><![CDATA[comment ...]]></desc>
    <trkseg>
      <trkpt lat="44.58988" lon="4.90482">
        <ele>192</ele>
        <time>2022-08-18T06:15:28Z</time>
      </trkpt>
      <trkpt lat="44.58988" lon="4.90482">
        <ele>191</ele>
        <time>2022-08-18T06:15:29Z</time>
      </trkpt>
      <trkpt lat="44.58983" lon="4.9048">
        <ele>187</ele>
        <time>2022-08-18T06:17:16Z</time>
      </trkpt>
      <trkpt lat="44.5898" lon="4.90478">
        <ele>186</ele>
        <time>2022-08-18T06:17:18Z</time>
      </trkpt>
      <trkpt lat="44.58977" lon="4.90475">
        <ele>185</ele>
        <time>2022-08-18T06:17:20Z</time>
      </trkpt>
      <trkpt lat="44.58974" lon="4.90469">
        <ele>184</ele>
        <time>2022-08-18T06:17:22Z</time>
      </trkpt>
      <trkpt lat="44.58975" lon="4.90461">
        <ele>184</ele>
        <time>2022-08-18T06:17:24Z</time>
      </trkpt>
      <trkpt lat="44.59021" lon="4.90287">
        <ele>174</ele>
        <time>2022-08-18T06:17:54Z</time>
      </trkpt>
      <trkpt lat="44.59036" lon="4.90187">
        <ele>171</ele>
        <time>2022-08-18T06:18:11Z</time>
      </trkpt>
      <trkpt lat="44.59041" lon="4.90182">
        <ele>171</ele>
        <time>2022-08-18T06:18:13Z</time>
      </trkpt>
      <trkpt lat="44.59048" lon="4.90186">
        <ele>171</ele>
        <time>2022-08-18T06:18:15Z</time>
      </trkpt>
      <trkpt lat="44.59147" lon="4.90321">
        <ele>171</ele>
        <time>2022-08-18T06:18:45Z</time>
      </trkpt>
      <trkpt lat="44.59264" lon="4.90472">
        <ele>171</ele>
        <time>2022-08-18T06:19:15Z</time>
      </trkpt>
      <trkpt lat="44.59278" lon="4.90496">
        <ele>171</ele>
        <time>2022-08-18T06:19:19Z</time>
      </trkpt>
      <trkpt lat="44.59285" lon="4.90517">
        <ele>171</ele>
        <time>2022-08-18T06:19:22Z</time>
      </trkpt>
      <trkpt lat="44.59315" lon="4.90729">
        <ele>171</ele>
        <time>2022-08-18T06:19:52Z</time>
      </trkpt>
      <trkpt lat="44.59336" lon="4.90936">
        <ele>173</ele>
        <time>2022-08-18T06:20:22Z</time>
      </trkpt>
      <trkpt lat="44.59352" lon="4.91146">
        <ele>175</ele>
        <time>2022-08-18T06:20:52Z</time>
      </trkpt>
      <trkpt lat="44.59366" lon="4.91214">
        <ele>175</ele>
        <time>2022-08-18T06:21:02Z</time>
      </trkpt>
      <trkpt lat="44.59423" lon="4.91404">
        <ele>176</ele>
        <time>2022-08-18T06:21:32Z</time>
      </trkpt>
      <trkpt lat="44.59481" lon="4.91592">
        <ele>178</ele>
        <time>2022-08-18T06:22:02Z</time>
      </trkpt>
      <trkpt lat="44.59521" lon="4.91666">
        <ele>179</ele>
        <time>2022-08-18T06:22:16Z</time>
      </trkpt>
      <trkpt lat="44.59551" lon="4.91716">
        <ele>178</ele>
        <time>2022-08-18T06:22:26Z</time>
      </trkpt>
      <trkpt lat="44.59564" lon="4.9175">
        <ele>178</ele>
        <time>2022-08-18T06:22:32Z</time>
      </trkpt>
      <trkpt lat="44.59566" lon="4.91762">
        <ele>178</ele>
        <time>2022-08-18T06:22:34Z</time>
      </trkpt>
      <trkpt lat="44.59567" lon="4.91839">
        <ele>179</ele>
        <time>2022-08-18T06:22:46Z</time>
      </trkpt>
      <trkpt lat="44.59566" lon="4.91964">
        <ele>180</ele>
        <time>2022-08-18T06:23:04Z</time>
      </trkpt>
      <trkpt lat="44.59606" lon="4.92159">
        <ele>184</ele>
        <time>2022-08-18T06:23:34Z</time>
      </trkpt>
      <trkpt lat="44.59638" lon="4.9231">
        <ele>184</ele>
        <time>2022-08-18T06:23:59Z</time>
      </trkpt>
      <trkpt lat="44.59645" lon="4.92335">
        <ele>184</ele>
        <time>2022-08-18T06:24:05Z</time>
      </trkpt>
      <trkpt lat="44.59684" lon="4.92526">
        <ele>184</ele>
        <time>2022-08-18T06:24:35Z</time>
      </trkpt>
      <trkpt lat="44.59701" lon="4.92598">
        <ele>184</ele>
        <time>2022-08-18T06:24:46Z</time>
      </trkpt>
      <trkpt lat="44.59723" lon="4.92644">
        <ele>185</ele>
        <time>2022-08-18T06:24:54Z</time>
      </trkpt>
      <trkpt lat="44.59788" lon="4.92709">
        <ele>185</ele>
        <time>2022-08-18T06:25:10Z</time>
      </trkpt>
      <trkpt lat="44.59879" lon="4.92793">
        <ele>186</ele>
        <time>2022-08-18T06:25:32Z</time>
      </trkpt>
      <trkpt lat="44.5992" lon="4.92833">
        <ele>186</ele>
        <time>2022-08-18T06:25:42Z</time>
      </trkpt>
      <trkpt lat="44.59944" lon="4.92847">
        <ele>187</ele>
        <time>2022-08-18T06:25:47Z</time>
      </trkpt>
      <trkpt lat="44.60092" lon="4.92862">
        <ele>186</ele>
        <time>2022-08-18T06:26:17Z</time>
      </trkpt>
      <trkpt lat="44.60136" lon="4.92869">
        <ele>187</ele>
        <time>2022-08-18T06:26:26Z</time>
      </trkpt>
      <trkpt lat="44.60159" lon="4.92881">
        <ele>187</ele>
        <time>2022-08-18T06:26:31Z</time>
      </trkpt>
      <trkpt lat="44.60224" lon="4.92933">
        <ele>187</ele>
        <time>2022-08-18T06:26:46Z</time>
      </trkpt>
      <trkpt lat="44.60381" lon="4.92966">
        <ele>187</ele>
        <time>2022-08-18T06:27:16Z</time>
      </trkpt>
      <trkpt lat="44.60536" lon="4.92995">
        <ele>188</ele>
        <time>2022-08-18T06:27:46Z</time>
      </trkpt>
      <trkpt lat="44.60694" lon="4.93031">
        <ele>187</ele>
        <time>2022-08-18T06:28:16Z</time>
      </trkpt>
      <trkpt lat="44.60848" lon="4.93071">
        <ele>187</ele>
        <time>2022-08-18T06:28:46Z</time>
      </trkpt>
      <trkpt lat="44.6091" lon="4.93088">
        <ele>187</ele>
        <time>2022-08-18T06:28:59Z</time>
      </trkpt>
      <trkpt lat="44.61026" lon="4.93091">
        <ele>186</ele>
        <time>2022-08-18T06:29:25Z</time>
      </trkpt>
      <trkpt lat="44.61032" lon="4.93089">
        <ele>186</ele>
        <time>2022-08-18T06:29:27Z</time>
      </trkpt>
      <trkpt lat="44.61035" lon="4.93086">
        <ele>186</ele>
        <time>2022-08-18T06:29:28Z</time>
      </trkpt>
      <trkpt lat="44.6104" lon="4.93083">
        <ele>186</ele>
        <time>2022-08-18T06:29:29Z</time>
      </trkpt>
      <trkpt lat="44.61189" lon="4.93093">
        <ele>185</ele>
        <time>2022-08-18T06:29:57Z</time>
      </trkpt>
      <trkpt lat="44.61194" lon="4.93095">
        <ele>185</ele>
        <time>2022-08-18T06:29:58Z</time>
      </trkpt>
      <trkpt lat="44.61198" lon="4.93098">
        <ele>185</ele>
        <time>2022-08-18T06:29:59Z</time>
      </trkpt>
      <trkpt lat="44.61202" lon="4.93102">
        <ele>185</ele>
        <time>2022-08-18T06:30:00Z</time>
      </trkpt>
      <trkpt lat="44.61206" lon="4.93115">
        <ele>185</ele>
        <time>2022-08-18T06:30:02Z</time>
      </trkpt>
      <trkpt lat="44.61202" lon="4.93245">
        <ele>184</ele>
        <time>2022-08-18T06:30:20Z</time>
      </trkpt>
      <trkpt lat="44.6124" lon="4.93398">
        <ele>184</ele>
        <time>2022-08-18T06:30:42Z</time>
      </trkpt>
      <trkpt lat="44.61239" lon="4.93418">
        <ele>184</ele>
        <time>2022-08-18T06:30:46Z</time>
      </trkpt>
      <trkpt lat="44.61241" lon="4.93428">
        <ele>184</ele>
        <time>2022-08-18T06:30:48Z</time>
      </trkpt>
      <trkpt lat="44.61242" lon="4.93433">
        <ele>184</ele>
        <time>2022-08-18T06:30:49Z</time>
      </trkpt>
      <trkpt lat="44.61245" lon="4.93435">
        <ele>184</ele>
        <time>2022-08-18T06:30:50Z</time>
      </trkpt>
      <trkpt lat="44.61257" lon="4.93429">
        <ele>184</ele>
        <time>2022-08-18T06:30:53Z</time>
      </trkpt>
      <trkpt lat="44.61395" lon="4.93322">
        <ele>182</ele>
        <time>2022-08-18T06:31:23Z</time>
      </trkpt>
      <trkpt lat="44.61554" lon="4.93211">
        <ele>181</ele>
        <time>2022-08-18T06:31:53Z</time>
      </trkpt>
      <trkpt lat="44.6172" lon="4.93141">
        <ele>179</ele>
        <time>2022-08-18T06:32:23Z</time>
      </trkpt>
      <trkpt lat="44.61889" lon="4.93079">
        <ele>177</ele>
        <time>2022-08-18T06:32:53Z</time>
      </trkpt>
      <trkpt lat="44.61999" lon="4.9306">
        <ele>177</ele>
        <time>2022-08-18T06:33:13Z</time>
      </trkpt>
      <trkpt lat="44.62164" lon="4.93073">
        <ele>176</ele>
        <time>2022-08-18T06:33:43Z</time>
      </trkpt>
      <trkpt lat="44.6224" lon="4.93073">
        <ele>175</ele>
        <time>2022-08-18T06:33:57Z</time>
      </trkpt>
      <trkpt lat="44.62291" lon="4.93072">
        <ele>175</ele>
        <time>2022-08-18T06:34:06Z</time>
      </trkpt>
      <trkpt lat="44.62414" lon="4.93074">
        <ele>175</ele>
        <time>2022-08-18T06:34:28Z</time>
      </trkpt>
      <trkpt lat="44.62424" lon="4.9307">
        <ele>175</ele>
        <time>2022-08-18T06:34:30Z</time>
      </trkpt>
      <trkpt lat="44.62429" lon="4.93066">
        <ele>175</ele>
        <time>2022-08-18T06:34:31Z</time>
      </trkpt>
      <trkpt lat="44.62433" lon="4.93061">
        <ele>175</ele>
        <time>2022-08-18T06:34:32Z</time>
      </trkpt>
      <trkpt lat="44.6247" lon="4.92963">
        <ele>173</ele>
        <time>2022-08-18T06:34:46Z</time>
      </trkpt>
      <trkpt lat="44.62478" lon="4.92931">
        <ele>173</ele>
        <time>2022-08-18T06:34:50Z</time>
      </trkpt>
      <trkpt lat="44.62482" lon="4.92924">
        <ele>173</ele>
        <time>2022-08-18T06:34:51Z</time>
      </trkpt>
      <trkpt lat="44.62486" lon="4.92918">
        <ele>173</ele>
        <time>2022-08-18T06:34:52Z</time>
      </trkpt>
      <trkpt lat="44.62495" lon="4.92912">
        <ele>173</ele>
        <time>2022-08-18T06:34:54Z</time>
      </trkpt>
      <trkpt lat="44.6255" lon="4.92915">
        <ele>172</ele>
        <time>2022-08-18T06:35:04Z</time>
      </trkpt>
      <trkpt lat="44.62611" lon="4.92889">
        <ele>173</ele>
        <time>2022-08-18T06:35:15Z</time>
      </trkpt>
      <trkpt lat="44.62636" lon="4.92873">
        <ele>174</ele>
        <time>2022-08-18T06:35:20Z</time>
      </trkpt>
      <trkpt lat="44.62729" lon="4.92859">
        <ele>174</ele>
        <time>2022-08-18T06:35:37Z</time>
      </trkpt>
      <trkpt lat="44.62789" lon="4.92852">
        <ele>173</ele>
        <time>2022-08-18T06:35:48Z</time>
      </trkpt>
      <trkpt lat="44.62842" lon="4.92828">
        <ele>174</ele>
        <time>2022-08-18T06:35:58Z</time>
      </trkpt>
      <trkpt lat="44.62851" lon="4.9282">
        <ele>174</ele>
        <time>2022-08-18T06:36:00Z</time>
      </trkpt>
      <trkpt lat="44.62866" lon="4.928">
        <ele>175</ele>
        <time>2022-08-18T06:36:04Z</time>
      </trkpt>
      <trkpt lat="44.62886" lon="4.92766">
        <ele>176</ele>
        <time>2022-08-18T06:36:10Z</time>
      </trkpt>
      <trkpt lat="44.62906" lon="4.92744">
        <ele>176</ele>
        <time>2022-08-18T06:36:15Z</time>
      </trkpt>
      <trkpt lat="44.62933" lon="4.92719">
        <ele>177</ele>
        <time>2022-08-18T06:36:21Z</time>
      </trkpt>
      <trkpt lat="44.62969" lon="4.92675">
        <ele>177</ele>
        <time>2022-08-18T06:36:30Z</time>
      </trkpt>
      <trkpt lat="44.63051" lon="4.92611">
        <ele>175</ele>
        <time>2022-08-18T06:36:47Z</time>
      </trkpt>
      <trkpt lat="44.63224" lon="4.9256">
        <ele>172</ele>
        <time>2022-08-18T06:37:17Z</time>
      </trkpt>
      <trkpt lat="44.63362" lon="4.92529">
        <ele>172</ele>
        <time>2022-08-18T06:37:47Z</time>
      </trkpt>
      <trkpt lat="44.63444" lon="4.92511">
        <ele>173</ele>
        <time>2022-08-18T06:38:04Z</time>
      </trkpt>
      <trkpt lat="44.63519" lon="4.92472">
        <ele>172</ele>
        <time>2022-08-18T06:38:19Z</time>
      </trkpt>
      <trkpt lat="44.6358" lon="4.92421">
        <ele>171</ele>
        <time>2022-08-18T06:38:32Z</time>
      </trkpt>
      <trkpt lat="44.63684" lon="4.92382">
        <ele>171</ele>
        <time>2022-08-18T06:38:53Z</time>
      </trkpt>
      <trkpt lat="44.63829" lon="4.92397">
        <ele>171</ele>
        <time>2022-08-18T06:39:23Z</time>
      </trkpt>
      <trkpt lat="44.63876" lon="4.92408">
        <ele>173</ele>
        <time>2022-08-18T06:39:33Z</time>
      </trkpt>
      <trkpt lat="44.64006" lon="4.92461">
        <ele>171</ele>
        <time>2022-08-18T06:40:04Z</time>
      </trkpt>
      <trkpt lat="44.64033" lon="4.92471">
        <ele>172</ele>
        <time>2022-08-18T06:40:10Z</time>
      </trkpt>
      <trkpt lat="44.64038" lon="4.92472">
        <ele>172</ele>
        <time>2022-08-18T06:40:11Z</time>
      </trkpt>
      <trkpt lat="44.64178" lon="4.92443">
        <ele>173</ele>
        <time>2022-08-18T06:40:41Z</time>
      </trkpt>
      <trkpt lat="44.64258" lon="4.92401">
        <ele>175</ele>
        <time>2022-08-18T06:41:02Z</time>
      </trkpt>
      <trkpt lat="44.64273" lon="4.92399">
        <ele>176</ele>
        <time>2022-08-18T06:41:06Z</time>
      </trkpt>
      <trkpt lat="44.64292" lon="4.92403">
        <ele>177</ele>
        <time>2022-08-18T06:41:11Z</time>
      </trkpt>
      <trkpt lat="44.64392" lon="4.92455">
        <ele>181</ele>
        <time>2022-08-18T06:41:41Z</time>
      </trkpt>
      <trkpt lat="44.64505" lon="4.92492">
        <ele>183</ele>
        <time>2022-08-18T06:42:11Z</time>
      </trkpt>
      <trkpt lat="44.64617" lon="4.92563">
        <ele>184</ele>
        <time>2022-08-18T06:42:41Z</time>
      </trkpt>
      <trkpt lat="44.64674" lon="4.926">
        <ele>185</ele>
        <time>2022-08-18T06:42:59Z</time>
      </trkpt>
      <trkpt lat="44.64678" lon="4.92604">
        <ele>186</ele>
        <time>2022-08-18T06:43:01Z</time>
      </trkpt>
      <trkpt lat="44.64679" lon="4.92612">
        <ele>186</ele>
        <time>2022-08-18T06:43:03Z</time>
      </trkpt>
      <trkpt lat="44.64653" lon="4.9276">
        <ele>188</ele>
        <time>2022-08-18T06:43:30Z</time>
      </trkpt>
      <trkpt lat="44.64653" lon="4.92841">
        <ele>189</ele>
        <time>2022-08-18T06:43:44Z</time>
      </trkpt>
      <trkpt lat="44.64657" lon="4.93014">
        <ele>193</ele>
        <time>2022-08-18T06:44:14Z</time>
      </trkpt>
      <trkpt lat="44.64663" lon="4.93227">
        <ele>193</ele>
        <time>2022-08-18T06:44:44Z</time>
      </trkpt>
      <trkpt lat="44.64665" lon="4.93416">
        <ele>196</ele>
        <time>2022-08-18T06:45:14Z</time>
      </trkpt>
      <trkpt lat="44.64657" lon="4.93457">
        <ele>197</ele>
        <time>2022-08-18T06:45:21Z</time>
      </trkpt>
      <trkpt lat="44.64638" lon="4.93508">
        <ele>198</ele>
        <time>2022-08-18T06:45:30Z</time>
      </trkpt>
      <trkpt lat="44.64611" lon="4.93552">
        <ele>200</ele>
        <time>2022-08-18T06:45:39Z</time>
      </trkpt>
      <trkpt lat="44.64508" lon="4.93672">
        <ele>204</ele>
        <time>2022-08-18T06:46:09Z</time>
      </trkpt>
      <trkpt lat="44.64421" lon="4.93773">
        <ele>207</ele>
        <time>2022-08-18T06:46:34Z</time>
      </trkpt>
      <trkpt lat="44.64396" lon="4.93791">
        <ele>207</ele>
        <time>2022-08-18T06:46:40Z</time>
      </trkpt>
      <trkpt lat="44.64389" lon="4.938">
        <ele>207</ele>
        <time>2022-08-18T06:46:42Z</time>
      </trkpt>
      <trkpt lat="44.64381" lon="4.93817">
        <ele>208</ele>
        <time>2022-08-18T06:46:45Z</time>
      </trkpt>
      <trkpt lat="44.64375" lon="4.93827">
        <ele>208</ele>
        <time>2022-08-18T06:46:47Z</time>
      </trkpt>
      <trkpt lat="44.64355" lon="4.93849">
        <ele>208</ele>
        <time>2022-08-18T06:46:53Z</time>
      </trkpt>
      <trkpt lat="44.64292" lon="4.93923">
        <ele>212</ele>
        <time>2022-08-18T06:47:12Z</time>
      </trkpt>
      <trkpt lat="44.64287" lon="4.93928">
        <ele>212</ele>
        <time>2022-08-18T06:47:14Z</time>
      </trkpt>
      <trkpt lat="44.64284" lon="4.93931">
        <ele>212</ele>
        <time>2022-08-18T06:47:44Z</time>
      </trkpt>
      <trkpt lat="44.64284" lon="4.93937">
        <ele>212</ele>
        <time>2022-08-18T06:47:46Z</time>
      </trkpt>
      <trkpt lat="44.64287" lon="4.93944">
        <ele>212</ele>
        <time>2022-08-18T06:47:48Z</time>
      </trkpt>
      <trkpt lat="44.64291" lon="4.93949">
        <ele>212</ele>
        <time>2022-08-18T06:47:50Z</time>
      </trkpt>
      <trkpt lat="44.64294" lon="4.93954">
        <ele>212</ele>
        <time>2022-08-18T06:47:52Z</time>
      </trkpt>
      <trkpt lat="44.64347" lon="4.94046">
        <ele>216</ele>
        <time>2022-08-18T06:48:22Z</time>
      </trkpt>
      <trkpt lat="44.64397" lon="4.94136">
        <ele>221</ele>
        <time>2022-08-18T06:48:52Z</time>
      </trkpt>
      <trkpt lat="44.6441" lon="4.94159">
        <ele>223</ele>
        <time>2022-08-18T06:49:00Z</time>
      </trkpt>
      <trkpt lat="44.64449" lon="4.94204">
        <ele>229</ele>
        <time>2022-08-18T06:49:20Z</time>
      </trkpt>
      <trkpt lat="44.64511" lon="4.94264">
        <ele>235</ele>
        <time>2022-08-18T06:49:50Z</time>
      </trkpt>
      <trkpt lat="44.64542" lon="4.94295">
        <ele>238</ele>
        <time>2022-08-18T06:50:04Z</time>
      </trkpt>
      <trkpt lat="44.64597" lon="4.94378">
        <ele>241</ele>
        <time>2022-08-18T06:50:34Z</time>
      </trkpt>
      <trkpt lat="44.6462" lon="4.94407">
        <ele>243</ele>
        <time>2022-08-18T06:50:44Z</time>
      </trkpt>
      <trkpt lat="44.64636" lon="4.94419">
        <ele>245</ele>
        <time>2022-08-18T06:50:49Z</time>
      </trkpt>
      <trkpt lat="44.6468" lon="4.94429">
        <ele>248</ele>
        <time>2022-08-18T06:51:03Z</time>
      </trkpt>
      <trkpt lat="44.64769" lon="4.94445">
        <ele>256</ele>
        <time>2022-08-18T06:51:33Z</time>
      </trkpt>
      <trkpt lat="44.64861" lon="4.94458">
        <ele>259</ele>
        <time>2022-08-18T06:52:03Z</time>
      </trkpt>
      <trkpt lat="44.64897" lon="4.94465">
        <ele>261</ele>
        <time>2022-08-18T06:52:15Z</time>
      </trkpt>
      <trkpt lat="44.64908" lon="4.9447">
        <ele>261</ele>
        <time>2022-08-18T06:52:19Z</time>
      </trkpt>
      <trkpt lat="44.64913" lon="4.94472">
        <ele>261</ele>
        <time>2022-08-18T06:52:21Z</time>
      </trkpt>
      <trkpt lat="44.64919" lon="4.94471">
        <ele>261</ele>
        <time>2022-08-18T06:52:23Z</time>
      </trkpt>
      <trkpt lat="44.64924" lon="4.94465">
        <ele>261</ele>
        <time>2022-08-18T06:52:25Z</time>
      </trkpt>
      <trkpt lat="44.64925" lon="4.9446">
        <ele>261</ele>
        <time>2022-08-18T06:52:26Z</time>
      </trkpt>
      <trkpt lat="44.64923" lon="4.94455">
        <ele>261</ele>
        <time>2022-08-18T06:52:27Z</time>
      </trkpt>
      <trkpt lat="44.6492" lon="4.94451">
        <ele>261</ele>
        <time>2022-08-18T06:52:28Z</time>
      </trkpt>
      <trkpt lat="44.64818" lon="4.94397">
        <ele>269</ele>
        <time>2022-08-18T06:52:59Z</time>
      </trkpt>
      <trkpt lat="44.64807" lon="4.94387">
        <ele>270</ele>
        <time>2022-08-18T06:53:03Z</time>
      </trkpt>
      <trkpt lat="44.64799" lon="4.94372">
        <ele>272</ele>
        <time>2022-08-18T06:53:07Z</time>
      </trkpt>
      <trkpt lat="44.64751" lon="4.94241">
        <ele>284</ele>
        <time>2022-08-18T06:53:38Z</time>
      </trkpt>
      <trkpt lat="44.64749" lon="4.94232">
        <ele>284</ele>
        <time>2022-08-18T06:53:40Z</time>
      </trkpt>
      <trkpt lat="44.64745" lon="4.94157">
        <ele>289</ele>
        <time>2022-08-18T06:53:57Z</time>
      </trkpt>
      <trkpt lat="44.64757" lon="4.94036">
        <ele>295</ele>
        <time>2022-08-18T06:54:24Z</time>
      </trkpt>
      <trkpt lat="44.6477" lon="4.93984">
        <ele>297</ele>
        <time>2022-08-18T06:54:35Z</time>
      </trkpt>
      <trkpt lat="44.648" lon="4.93909">
        <ele>299</ele>
        <time>2022-08-18T06:54:54Z</time>
      </trkpt>
      <trkpt lat="44.64815" lon="4.93888">
        <ele>300</ele>
        <time>2022-08-18T06:55:00Z</time>
      </trkpt>
      <trkpt lat="44.6483" lon="4.93878">
        <ele>300</ele>
        <time>2022-08-18T06:55:05Z</time>
      </trkpt>
      <trkpt lat="44.6485" lon="4.93873">
        <ele>301</ele>
        <time>2022-08-18T06:55:11Z</time>
      </trkpt>
      <trkpt lat="44.64889" lon="4.93874">
        <ele>303</ele>
        <time>2022-08-18T06:55:23Z</time>
      </trkpt>
      <trkpt lat="44.64902" lon="4.93879">
        <ele>304</ele>
        <time>2022-08-18T06:55:27Z</time>
      </trkpt>
      <trkpt lat="44.64919" lon="4.93894">
        <ele>304</ele>
        <time>2022-08-18T06:55:33Z</time>
      </trkpt>
      <trkpt lat="44.64927" lon="4.9391">
        <ele>304</ele>
        <time>2022-08-18T06:55:37Z</time>
      </trkpt>
      <trkpt lat="44.64973" lon="4.94038">
        <ele>306</ele>
        <time>2022-08-18T06:56:07Z</time>
      </trkpt>
      <trkpt lat="44.64986" lon="4.9407">
        <ele>307</ele>
        <time>2022-08-18T06:56:15Z</time>
      </trkpt>
      <trkpt lat="44.64997" lon="4.94083">
        <ele>309</ele>
        <time>2022-08-18T06:56:19Z</time>
      </trkpt>
      <trkpt lat="44.65013" lon="4.94093">
        <ele>310</ele>
        <time>2022-08-18T06:56:24Z</time>
      </trkpt>
      <trkpt lat="44.65025" lon="4.94096">
        <ele>311</ele>
        <time>2022-08-18T06:56:27Z</time>
      </trkpt>
      <trkpt lat="44.65032" lon="4.94094">
        <ele>311</ele>
        <time>2022-08-18T06:56:29Z</time>
      </trkpt>
      <trkpt lat="44.65046" lon="4.94083">
        <ele>313</ele>
        <time>2022-08-18T06:56:33Z</time>
      </trkpt>
      <trkpt lat="44.65083" lon="4.94043">
        <ele>316</ele>
        <time>2022-08-18T06:56:46Z</time>
      </trkpt>
      <trkpt lat="44.6517" lon="4.93971">
        <ele>323</ele>
        <time>2022-08-18T06:57:16Z</time>
      </trkpt>
      <trkpt lat="44.65194" lon="4.93949">
        <ele>325</ele>
        <time>2022-08-18T06:57:24Z</time>
      </trkpt>
      <trkpt lat="44.65252" lon="4.93867">
        <ele>330</ele>
        <time>2022-08-18T06:57:48Z</time>
      </trkpt>
      <trkpt lat="44.65273" lon="4.93846">
        <ele>332</ele>
        <time>2022-08-18T06:57:56Z</time>
      </trkpt>
      <trkpt lat="44.65338" lon="4.9374">
        <ele>339</ele>
        <time>2022-08-18T06:58:26Z</time>
      </trkpt>
      <trkpt lat="44.65376" lon="4.93667">
        <ele>343</ele>
        <time>2022-08-18T06:58:45Z</time>
      </trkpt>
      <trkpt lat="44.65401" lon="4.93602">
        <ele>346</ele>
        <time>2022-08-18T06:59:01Z</time>
      </trkpt>
      <trkpt lat="44.65428" lon="4.93562">
        <ele>347</ele>
        <time>2022-08-18T06:59:13Z</time>
      </trkpt>
      <trkpt lat="44.65503" lon="4.93473">
        <ele>353</ele>
        <time>2022-08-18T06:59:43Z</time>
      </trkpt>
      <trkpt lat="44.65525" lon="4.93457">
        <ele>354</ele>
        <time>2022-08-18T06:59:51Z</time>
      </trkpt>
      <trkpt lat="44.6561" lon="4.93427">
        <ele>360</ele>
        <time>2022-08-18T07:00:19Z</time>
      </trkpt>
      <trkpt lat="44.65705" lon="4.93413">
        <ele>364</ele>
        <time>2022-08-18T07:00:49Z</time>
      </trkpt>
      <trkpt lat="44.65767" lon="4.93396">
        <ele>368</ele>
        <time>2022-08-18T07:01:09Z</time>
      </trkpt>
      <trkpt lat="44.65827" lon="4.9336">
        <ele>372</ele>
        <time>2022-08-18T07:01:29Z</time>
      </trkpt>
      <trkpt lat="44.65918" lon="4.93352">
        <ele>378</ele>
        <time>2022-08-18T07:01:56Z</time>
      </trkpt>
      <trkpt lat="44.66012" lon="4.93366">
        <ele>385</ele>
        <time>2022-08-18T07:02:26Z</time>
      </trkpt>
      <trkpt lat="44.66107" lon="4.934">
        <ele>391</ele>
        <time>2022-08-18T07:02:56Z</time>
      </trkpt>
      <trkpt lat="44.66121" lon="4.93399">
        <ele>393</ele>
        <time>2022-08-18T07:03:00Z</time>
      </trkpt>
      <trkpt lat="44.66142" lon="4.9339">
        <ele>393</ele>
        <time>2022-08-18T07:03:06Z</time>
      </trkpt>
      <trkpt lat="44.66183" lon="4.93355">
        <ele>395</ele>
        <time>2022-08-18T07:03:20Z</time>
      </trkpt>
      <trkpt lat="44.6619" lon="4.93354">
        <ele>395</ele>
        <time>2022-08-18T07:03:22Z</time>
      </trkpt>
      <trkpt lat="44.66196" lon="4.93354">
        <ele>396</ele>
        <time>2022-08-18T07:03:24Z</time>
      </trkpt>
      <trkpt lat="44.66207" lon="4.93361">
        <ele>396</ele>
        <time>2022-08-18T07:03:28Z</time>
      </trkpt>
      <trkpt lat="44.66225" lon="4.93388">
        <ele>396</ele>
        <time>2022-08-18T07:03:36Z</time>
      </trkpt>
      <trkpt lat="44.66229" lon="4.93396">
        <ele>396</ele>
        <time>2022-08-18T07:03:38Z</time>
      </trkpt>
      <trkpt lat="44.66269" lon="4.93456">
        <ele>398</ele>
        <time>2022-08-18T07:03:56Z</time>
      </trkpt>
      <trkpt lat="44.66296" lon="4.93476">
        <ele>399</ele>
        <time>2022-08-18T07:04:06Z</time>
      </trkpt>
      <trkpt lat="44.66329" lon="4.93485">
        <ele>399</ele>
        <time>2022-08-18T07:04:18Z</time>
      </trkpt>
      <trkpt lat="44.66488" lon="4.93535">
        <ele>393</ele>
        <time>2022-08-18T07:04:48Z</time>
      </trkpt>
      <trkpt lat="44.66672" lon="4.93637">
        <ele>383</ele>
        <time>2022-08-18T07:05:18Z</time>
      </trkpt>
      <trkpt lat="44.66682" lon="4.93642">
        <ele>382</ele>
        <time>2022-08-18T07:05:20Z</time>
      </trkpt>
      <trkpt lat="44.66688" lon="4.93643">
        <ele>382</ele>
        <time>2022-08-18T07:05:21Z</time>
      </trkpt>
      <trkpt lat="44.66693" lon="4.93642">
        <ele>382</ele>
        <time>2022-08-18T07:05:22Z</time>
      </trkpt>
      <trkpt lat="44.66697" lon="4.93639">
        <ele>381</ele>
        <time>2022-08-18T07:05:23Z</time>
      </trkpt>
      <trkpt lat="44.66704" lon="4.9363">
        <ele>382</ele>
        <time>2022-08-18T07:05:25Z</time>
      </trkpt>
      <trkpt lat="44.66707" lon="4.93626">
        <ele>382</ele>
        <time>2022-08-18T07:05:26Z</time>
      </trkpt>
      <trkpt lat="44.66709" lon="4.93615">
        <ele>382</ele>
        <time>2022-08-18T07:05:28Z</time>
      </trkpt>
      <trkpt lat="44.6671" lon="4.93603">
        <ele>383</ele>
        <time>2022-08-18T07:05:30Z</time>
      </trkpt>
      <trkpt lat="44.66708" lon="4.93586">
        <ele>384</ele>
        <time>2022-08-18T07:05:33Z</time>
      </trkpt>
      <trkpt lat="44.66692" lon="4.93543">
        <ele>386</ele>
        <time>2022-08-18T07:05:41Z</time>
      </trkpt>
      <trkpt lat="44.6668" lon="4.93515">
        <ele>387</ele>
        <time>2022-08-18T07:05:46Z</time>
      </trkpt>
      <trkpt lat="44.66672" lon="4.93493">
        <ele>388</ele>
        <time>2022-08-18T07:05:50Z</time>
      </trkpt>
      <trkpt lat="44.66634" lon="4.93406">
        <ele>392</ele>
        <time>2022-08-18T07:06:06Z</time>
      </trkpt>
      <trkpt lat="44.66628" lon="4.93378">
        <ele>393</ele>
        <time>2022-08-18T07:06:11Z</time>
      </trkpt>
      <trkpt lat="44.66629" lon="4.93312">
        <ele>393</ele>
        <time>2022-08-18T07:06:22Z</time>
      </trkpt>
      <trkpt lat="44.66631" lon="4.93263">
        <ele>395</ele>
        <time>2022-08-18T07:06:30Z</time>
      </trkpt>
      <trkpt lat="44.66635" lon="4.93245">
        <ele>396</ele>
        <time>2022-08-18T07:06:33Z</time>
      </trkpt>
      <trkpt lat="44.66637" lon="4.93239">
        <ele>396</ele>
        <time>2022-08-18T07:06:34Z</time>
      </trkpt>
      <trkpt lat="44.66644" lon="4.9323">
        <ele>396</ele>
        <time>2022-08-18T07:06:36Z</time>
      </trkpt>
      <trkpt lat="44.66652" lon="4.93224">
        <ele>396</ele>
        <time>2022-08-18T07:06:38Z</time>
      </trkpt>
      <trkpt lat="44.66661" lon="4.93221">
        <ele>396</ele>
        <time>2022-08-18T07:06:40Z</time>
      </trkpt>
      <trkpt lat="44.66684" lon="4.93226">
        <ele>397</ele>
        <time>2022-08-18T07:06:46Z</time>
      </trkpt>
      <trkpt lat="44.66738" lon="4.93248">
        <ele>398</ele>
        <time>2022-08-18T07:07:02Z</time>
      </trkpt>
      <trkpt lat="44.66744" lon="4.93248">
        <ele>398</ele>
        <time>2022-08-18T07:07:04Z</time>
      </trkpt>
      <trkpt lat="44.6675" lon="4.93244">
        <ele>399</ele>
        <time>2022-08-18T07:07:06Z</time>
      </trkpt>
      <trkpt lat="44.66753" lon="4.93241">
        <ele>399</ele>
        <time>2022-08-18T07:07:07Z</time>
      </trkpt>
      <trkpt lat="44.66755" lon="4.93237">
        <ele>400</ele>
        <time>2022-08-18T07:07:08Z</time>
      </trkpt>
      <trkpt lat="44.66757" lon="4.93227">
        <ele>400</ele>
        <time>2022-08-18T07:07:10Z</time>
      </trkpt>
      <trkpt lat="44.66755" lon="4.93195">
        <ele>402</ele>
        <time>2022-08-18T07:07:16Z</time>
      </trkpt>
      <trkpt lat="44.66729" lon="4.93031">
        <ele>405</ele>
        <time>2022-08-18T07:07:46Z</time>
      </trkpt>
      <trkpt lat="44.66729" lon="4.9299">
        <ele>406</ele>
        <time>2022-08-18T07:07:52Z</time>
      </trkpt>
      <trkpt lat="44.66744" lon="4.92903">
        <ele>406</ele>
        <time>2022-08-18T07:08:05Z</time>
      </trkpt>
      <trkpt lat="44.66786" lon="4.92801">
        <ele>405</ele>
        <time>2022-08-18T07:08:20Z</time>
      </trkpt>
      <trkpt lat="44.66802" lon="4.92764">
        <ele>405</ele>
        <time>2022-08-18T07:08:25Z</time>
      </trkpt>
      <trkpt lat="44.66808" lon="4.92739">
        <ele>404</ele>
        <time>2022-08-18T07:08:28Z</time>
      </trkpt>
      <trkpt lat="44.66811" lon="4.92712">
        <ele>404</ele>
        <time>2022-08-18T07:08:31Z</time>
      </trkpt>
      <trkpt lat="44.66783" lon="4.92512">
        <ele>401</ele>
        <time>2022-08-18T07:08:52Z</time>
      </trkpt>
      <trkpt lat="44.66785" lon="4.92491">
        <ele>401</ele>
        <time>2022-08-18T07:08:54Z</time>
      </trkpt>
      <trkpt lat="44.6679" lon="4.92472">
        <ele>401</ele>
        <time>2022-08-18T07:08:56Z</time>
      </trkpt>
      <trkpt lat="44.66807" lon="4.92436">
        <ele>400</ele>
        <time>2022-08-18T07:09:00Z</time>
      </trkpt>
      <trkpt lat="44.66817" lon="4.92405">
        <ele>399</ele>
        <time>2022-08-18T07:09:03Z</time>
      </trkpt>
      <trkpt lat="44.6682" lon="4.92372">
        <ele>398</ele>
        <time>2022-08-18T07:09:06Z</time>
      </trkpt>
      <trkpt lat="44.66818" lon="4.9235">
        <ele>398</ele>
        <time>2022-08-18T07:09:08Z</time>
      </trkpt>
      <trkpt lat="44.66804" lon="4.92308">
        <ele>398</ele>
        <time>2022-08-18T07:09:12Z</time>
      </trkpt>
      <trkpt lat="44.66783" lon="4.9227">
        <ele>397</ele>
        <time>2022-08-18T07:09:16Z</time>
      </trkpt>
      <trkpt lat="44.66743" lon="4.92212">
        <ele>396</ele>
        <time>2022-08-18T07:09:23Z</time>
      </trkpt>
      <trkpt lat="44.66705" lon="4.9209">
        <ele>394</ele>
        <time>2022-08-18T07:09:35Z</time>
      </trkpt>
      <trkpt lat="44.66701" lon="4.9207">
        <ele>394</ele>
        <time>2022-08-18T07:09:37Z</time>
      </trkpt>
      <trkpt lat="44.66701" lon="4.92049">
        <ele>394</ele>
        <time>2022-08-18T07:09:39Z</time>
      </trkpt>
      <trkpt lat="44.66707" lon="4.92028">
        <ele>394</ele>
        <time>2022-08-18T07:09:41Z</time>
      </trkpt>
      <trkpt lat="44.66761" lon="4.91906">
        <ele>388</ele>
        <time>2022-08-18T07:09:55Z</time>
      </trkpt>
      <trkpt lat="44.66836" lon="4.91623">
        <ele>384</ele>
        <time>2022-08-18T07:10:25Z</time>
      </trkpt>
      <trkpt lat="44.66855" lon="4.9157">
        <ele>382</ele>
        <time>2022-08-18T07:10:31Z</time>
      </trkpt>
      <trkpt lat="44.66926" lon="4.91417">
        <ele>380</ele>
        <time>2022-08-18T07:10:49Z</time>
      </trkpt>
      <trkpt lat="44.66931" lon="4.91398">
        <ele>380</ele>
        <time>2022-08-18T07:10:51Z</time>
      </trkpt>
      <trkpt lat="44.66944" lon="4.91173">
        <ele>376</ele>
        <time>2022-08-18T07:11:11Z</time>
      </trkpt>
      <trkpt lat="44.66958" lon="4.91136">
        <ele>375</ele>
        <time>2022-08-18T07:11:15Z</time>
      </trkpt>
      <trkpt lat="44.67006" lon="4.91045">
        <ele>370</ele>
        <time>2022-08-18T07:11:26Z</time>
      </trkpt>
      <trkpt lat="44.67039" lon="4.9101">
        <ele>369</ele>
        <time>2022-08-18T07:11:31Z</time>
      </trkpt>
      <trkpt lat="44.67114" lon="4.90879">
        <ele>363</ele>
        <time>2022-08-18T07:11:44Z</time>
      </trkpt>
      <trkpt lat="44.67139" lon="4.90775">
        <ele>359</ele>
        <time>2022-08-18T07:11:52Z</time>
      </trkpt>
      <trkpt lat="44.67143" lon="4.90732">
        <ele>357</ele>
        <time>2022-08-18T07:11:55Z</time>
      </trkpt>
      <trkpt lat="44.67128" lon="4.9048">
        <ele>349</ele>
        <time>2022-08-18T07:12:12Z</time>
      </trkpt>
      <trkpt lat="44.67044" lon="4.90207">
        <ele>339</ele>
        <time>2022-08-18T07:12:33Z</time>
      </trkpt>
      <trkpt lat="44.67021" lon="4.90157">
        <ele>337</ele>
        <time>2022-08-18T07:12:37Z</time>
      </trkpt>
      <trkpt lat="44.66999" lon="4.90126">
        <ele>336</ele>
        <time>2022-08-18T07:12:40Z</time>
      </trkpt>
      <trkpt lat="44.66971" lon="4.90104">
        <ele>333</ele>
        <time>2022-08-18T07:12:43Z</time>
      </trkpt>
      <trkpt lat="44.66668" lon="4.89917">
        <ele>310</ele>
        <time>2022-08-18T07:13:13Z</time>
      </trkpt>
      <trkpt lat="44.66613" lon="4.89882">
        <ele>306</ele>
        <time>2022-08-18T07:13:19Z</time>
      </trkpt>
      <trkpt lat="44.66536" lon="4.89781">
        <ele>300</ele>
        <time>2022-08-18T07:13:29Z</time>
      </trkpt>
      <trkpt lat="44.66523" lon="4.89758">
        <ele>299</ele>
        <time>2022-08-18T07:13:31Z</time>
      </trkpt>
      <trkpt lat="44.66495" lon="4.89696">
        <ele>297</ele>
        <time>2022-08-18T07:13:36Z</time>
      </trkpt>
      <trkpt lat="44.66372" lon="4.89519">
        <ele>286</ele>
        <time>2022-08-18T07:13:53Z</time>
      </trkpt>
      <trkpt lat="44.66368" lon="4.89508">
        <ele>286</ele>
        <time>2022-08-18T07:13:54Z</time>
      </trkpt>
      <trkpt lat="44.66368" lon="4.89496">
        <ele>286</ele>
        <time>2022-08-18T07:13:55Z</time>
      </trkpt>
      <trkpt lat="44.6637" lon="4.89484">
        <ele>286</ele>
        <time>2022-08-18T07:13:56Z</time>
      </trkpt>
      <trkpt lat="44.66384" lon="4.89467">
        <ele>285</ele>
        <time>2022-08-18T07:13:58Z</time>
      </trkpt>
      <trkpt lat="44.66399" lon="4.89453">
        <ele>284</ele>
        <time>2022-08-18T07:14:00Z</time>
      </trkpt>
      <trkpt lat="44.66405" lon="4.89444">
        <ele>284</ele>
        <time>2022-08-18T07:14:01Z</time>
      </trkpt>
      <trkpt lat="44.66413" lon="4.89423">
        <ele>284</ele>
        <time>2022-08-18T07:14:03Z</time>
      </trkpt>
      <trkpt lat="44.66416" lon="4.89398">
        <ele>283</ele>
        <time>2022-08-18T07:14:05Z</time>
      </trkpt>
      <trkpt lat="44.66412" lon="4.89373">
        <ele>282</ele>
        <time>2022-08-18T07:14:07Z</time>
      </trkpt>
      <trkpt lat="44.66359" lon="4.89273">
        <ele>279</ele>
        <time>2022-08-18T07:14:16Z</time>
      </trkpt>
      <trkpt lat="44.66348" lon="4.89237">
        <ele>279</ele>
        <time>2022-08-18T07:14:19Z</time>
      </trkpt>
      <trkpt lat="44.66342" lon="4.89228">
        <ele>279</ele>
        <time>2022-08-18T07:14:20Z</time>
      </trkpt>
      <trkpt lat="44.66172" lon="4.89111">
        <ele>276</ele>
        <time>2022-08-18T07:14:43Z</time>
      </trkpt>
      <trkpt lat="44.66156" lon="4.89088">
        <ele>276</ele>
        <time>2022-08-18T07:14:46Z</time>
      </trkpt>
      <trkpt lat="44.66127" lon="4.89028">
        <ele>274</ele>
        <time>2022-08-18T07:14:52Z</time>
      </trkpt>
      <trkpt lat="44.66105" lon="4.89001">
        <ele>272</ele>
        <time>2022-08-18T07:14:55Z</time>
      </trkpt>
      <trkpt lat="44.659" lon="4.88827">
        <ele>259</ele>
        <time>2022-08-18T07:15:17Z</time>
      </trkpt>
      <trkpt lat="44.65886" lon="4.88808">
        <ele>258</ele>
        <time>2022-08-18T07:15:19Z</time>
      </trkpt>
      <trkpt lat="44.65795" lon="4.88584">
        <ele>250</ele>
        <time>2022-08-18T07:15:37Z</time>
      </trkpt>
      <trkpt lat="44.65781" lon="4.88565">
        <ele>249</ele>
        <time>2022-08-18T07:15:39Z</time>
      </trkpt>
      <trkpt lat="44.65763" lon="4.88551">
        <ele>248</ele>
        <time>2022-08-18T07:15:41Z</time>
      </trkpt>
      <trkpt lat="44.65743" lon="4.88544">
        <ele>248</ele>
        <time>2022-08-18T07:15:43Z</time>
      </trkpt>
      <trkpt lat="44.65721" lon="4.88547">
        <ele>247</ele>
        <time>2022-08-18T07:15:45Z</time>
      </trkpt>
      <trkpt lat="44.6565" lon="4.88581">
        <ele>244</ele>
        <time>2022-08-18T07:15:52Z</time>
      </trkpt>
      <trkpt lat="44.65629" lon="4.88579">
        <ele>243</ele>
        <time>2022-08-18T07:15:54Z</time>
      </trkpt>
      <trkpt lat="44.6551" lon="4.88531">
        <ele>237</ele>
        <time>2022-08-18T07:16:05Z</time>
      </trkpt>
      <trkpt lat="44.65375" lon="4.88411">
        <ele>235</ele>
        <time>2022-08-18T07:16:21Z</time>
      </trkpt>
      <trkpt lat="44.65363" lon="4.88394">
        <ele>235</ele>
        <time>2022-08-18T07:16:23Z</time>
      </trkpt>
      <trkpt lat="44.65359" lon="4.88384">
        <ele>234</ele>
        <time>2022-08-18T07:16:24Z</time>
      </trkpt>
      <trkpt lat="44.65357" lon="4.88362">
        <ele>234</ele>
        <time>2022-08-18T07:16:26Z</time>
      </trkpt>
      <trkpt lat="44.65364" lon="4.8828">
        <ele>233</ele>
        <time>2022-08-18T07:16:33Z</time>
      </trkpt>
      <trkpt lat="44.65363" lon="4.88258">
        <ele>232</ele>
        <time>2022-08-18T07:16:35Z</time>
      </trkpt>
      <trkpt lat="44.65359" lon="4.88237">
        <ele>232</ele>
        <time>2022-08-18T07:16:37Z</time>
      </trkpt>
      <trkpt lat="44.65355" lon="4.88227">
        <ele>232</ele>
        <time>2022-08-18T07:16:38Z</time>
      </trkpt>
      <trkpt lat="44.65344" lon="4.8821">
        <ele>231</ele>
        <time>2022-08-18T07:16:40Z</time>
      </trkpt>
      <trkpt lat="44.6523" lon="4.88104">
        <ele>230</ele>
        <time>2022-08-18T07:16:56Z</time>
      </trkpt>
      <trkpt lat="44.65119" lon="4.87931">
        <ele>232</ele>
        <time>2022-08-18T07:17:19Z</time>
      </trkpt>
      <trkpt lat="44.65116" lon="4.87926">
        <ele>231</ele>
        <time>2022-08-18T07:17:20Z</time>
      </trkpt>
      <trkpt lat="44.65102" lon="4.87918">
        <ele>232</ele>
        <time>2022-08-18T07:17:22Z</time>
      </trkpt>
      <trkpt lat="44.6508" lon="4.8791">
        <ele>233</ele>
        <time>2022-08-18T07:17:26Z</time>
      </trkpt>
      <trkpt lat="44.64921" lon="4.87911">
        <ele>237</ele>
        <time>2022-08-18T07:17:56Z</time>
      </trkpt>
      <trkpt lat="44.64878" lon="4.87909">
        <ele>238</ele>
        <time>2022-08-18T07:18:04Z</time>
      </trkpt>
      <trkpt lat="44.64868" lon="4.87906">
        <ele>239</ele>
        <time>2022-08-18T07:18:06Z</time>
      </trkpt>
      <trkpt lat="44.64859" lon="4.87899">
        <ele>240</ele>
        <time>2022-08-18T07:18:08Z</time>
      </trkpt>
      <trkpt lat="44.64851" lon="4.8789">
        <ele>240</ele>
        <time>2022-08-18T07:18:10Z</time>
      </trkpt>
      <trkpt lat="44.64843" lon="4.87872">
        <ele>241</ele>
        <time>2022-08-18T07:18:13Z</time>
      </trkpt>
      <trkpt lat="44.6483" lon="4.87784">
        <ele>244</ele>
        <time>2022-08-18T07:18:27Z</time>
      </trkpt>
      <trkpt lat="44.64817" lon="4.87757">
        <ele>245</ele>
        <time>2022-08-18T07:18:32Z</time>
      </trkpt>
      <trkpt lat="44.64808" lon="4.87743">
        <ele>246</ele>
        <time>2022-08-18T07:18:35Z</time>
      </trkpt>
      <trkpt lat="44.64792" lon="4.8773">
        <ele>246</ele>
        <time>2022-08-18T07:18:39Z</time>
      </trkpt>
      <trkpt lat="44.64674" lon="4.87669">
        <ele>251</ele>
        <time>2022-08-18T07:19:10Z</time>
      </trkpt>
      <trkpt lat="44.64669" lon="4.87668">
        <ele>252</ele>
        <time>2022-08-18T07:19:12Z</time>
      </trkpt>
      <trkpt lat="44.64665" lon="4.8767">
        <ele>252</ele>
        <time>2022-08-18T07:19:14Z</time>
      </trkpt>
      <trkpt lat="44.64661" lon="4.87668">
        <ele>252</ele>
        <time>2022-08-18T07:19:16Z</time>
      </trkpt>
      <trkpt lat="44.64658" lon="4.87665">
        <ele>252</ele>
        <time>2022-08-18T07:20:09Z</time>
      </trkpt>
      <trkpt lat="44.64653" lon="4.87657">
        <ele>252</ele>
        <time>2022-08-18T07:20:23Z</time>
      </trkpt>
      <trkpt lat="44.64629" lon="4.87637">
        <ele>251</ele>
        <time>2022-08-18T07:20:32Z</time>
      </trkpt>
      <trkpt lat="44.64593" lon="4.87597">
        <ele>252</ele>
        <time>2022-08-18T07:20:44Z</time>
      </trkpt>
      <trkpt lat="44.64523" lon="4.8747">
        <ele>255</ele>
        <time>2022-08-18T07:21:14Z</time>
      </trkpt>
      <trkpt lat="44.64434" lon="4.87375">
        <ele>259</ele>
        <time>2022-08-18T07:21:42Z</time>
      </trkpt>
      <trkpt lat="44.64412" lon="4.87355">
        <ele>261</ele>
        <time>2022-08-18T07:21:49Z</time>
      </trkpt>
      <trkpt lat="44.64405" lon="4.87343">
        <ele>262</ele>
        <time>2022-08-18T07:21:52Z</time>
      </trkpt>
      <trkpt lat="44.64399" lon="4.87333">
        <ele>264</ele>
        <time>2022-08-18T07:21:55Z</time>
      </trkpt>
      <trkpt lat="44.64394" lon="4.87327">
        <ele>264</ele>
        <time>2022-08-18T07:21:57Z</time>
      </trkpt>
      <trkpt lat="44.64393" lon="4.87322">
        <ele>265</ele>
        <time>2022-08-18T07:21:59Z</time>
      </trkpt>
      <trkpt lat="44.64394" lon="4.87317">
        <ele>265</ele>
        <time>2022-08-18T07:22:01Z</time>
      </trkpt>
      <trkpt lat="44.64398" lon="4.87315">
        <ele>265</ele>
        <time>2022-08-18T07:22:03Z</time>
      </trkpt>
      <trkpt lat="44.64402" lon="4.87312">
        <ele>265</ele>
        <time>2022-08-18T07:22:06Z</time>
      </trkpt>
      <trkpt lat="44.64454" lon="4.87269">
        <ele>271</ele>
        <time>2022-08-18T07:22:28Z</time>
      </trkpt>
      <trkpt lat="44.64459" lon="4.87264">
        <ele>272</ele>
        <time>2022-08-18T07:22:30Z</time>
      </trkpt>
      <trkpt lat="44.64531" lon="4.87206">
        <ele>279</ele>
        <time>2022-08-18T07:23:00Z</time>
      </trkpt>
      <trkpt lat="44.64552" lon="4.87195">
        <ele>281</ele>
        <time>2022-08-18T07:23:08Z</time>
      </trkpt>
      <trkpt lat="44.64602" lon="4.87177">
        <ele>285</ele>
        <time>2022-08-18T07:23:28Z</time>
      </trkpt>
      <trkpt lat="44.64606" lon="4.87175">
        <ele>285</ele>
        <time>2022-08-18T07:23:30Z</time>
      </trkpt>
      <trkpt lat="44.64621" lon="4.87169">
        <ele>286</ele>
        <time>2022-08-18T07:23:36Z</time>
      </trkpt>
      <trkpt lat="44.64676" lon="4.87146">
        <ele>290</ele>
        <time>2022-08-18T07:23:58Z</time>
      </trkpt>
      <trkpt lat="44.647" lon="4.87143">
        <ele>291</ele>
        <time>2022-08-18T07:24:08Z</time>
      </trkpt>
      <trkpt lat="44.64774" lon="4.87178">
        <ele>298</ele>
        <time>2022-08-18T07:24:38Z</time>
      </trkpt>
      <trkpt lat="44.6484" lon="4.87198">
        <ele>303</ele>
        <time>2022-08-18T07:25:02Z</time>
      </trkpt>
      <trkpt lat="44.64918" lon="4.87198">
        <ele>310</ele>
        <time>2022-08-18T07:25:30Z</time>
      </trkpt>
      <trkpt lat="44.64996" lon="4.87167">
        <ele>319</ele>
        <time>2022-08-18T07:26:00Z</time>
      </trkpt>
      <trkpt lat="44.65079" lon="4.87133">
        <ele>324</ele>
        <time>2022-08-18T07:26:30Z</time>
      </trkpt>
      <trkpt lat="44.6511" lon="4.87119">
        <ele>327</ele>
        <time>2022-08-18T07:26:42Z</time>
      </trkpt>
      <trkpt lat="44.65116" lon="4.87118">
        <ele>328</ele>
        <time>2022-08-18T07:26:44Z</time>
      </trkpt>
      <trkpt lat="44.65122" lon="4.87119">
        <ele>328</ele>
        <time>2022-08-18T07:26:46Z</time>
      </trkpt>
      <trkpt lat="44.65128" lon="4.87122">
        <ele>329</ele>
        <time>2022-08-18T07:26:48Z</time>
      </trkpt>
      <trkpt lat="44.65132" lon="4.87127">
        <ele>329</ele>
        <time>2022-08-18T07:26:50Z</time>
      </trkpt>
      <trkpt lat="44.65135" lon="4.87135">
        <ele>329</ele>
        <time>2022-08-18T07:26:52Z</time>
      </trkpt>
      <trkpt lat="44.65136" lon="4.87143">
        <ele>329</ele>
        <time>2022-08-18T07:26:54Z</time>
      </trkpt>
      <trkpt lat="44.65131" lon="4.87159">
        <ele>329</ele>
        <time>2022-08-18T07:26:58Z</time>
      </trkpt>
      <trkpt lat="44.65112" lon="4.8718">
        <ele>330</ele>
        <time>2022-08-18T07:27:06Z</time>
      </trkpt>
      <trkpt lat="44.6504" lon="4.87242">
        <ele>334</ele>
        <time>2022-08-18T07:27:36Z</time>
      </trkpt>
      <trkpt lat="44.64966" lon="4.87292">
        <ele>346</ele>
        <time>2022-08-18T07:28:04Z</time>
      </trkpt>
      <trkpt lat="44.64885" lon="4.87329">
        <ele>350</ele>
        <time>2022-08-18T07:28:34Z</time>
      </trkpt>
      <trkpt lat="44.64821" lon="4.87349">
        <ele>354</ele>
        <time>2022-08-18T07:28:58Z</time>
      </trkpt>
      <trkpt lat="44.64816" lon="4.87352">
        <ele>354</ele>
        <time>2022-08-18T07:29:00Z</time>
      </trkpt>
      <trkpt lat="44.64812" lon="4.87356">
        <ele>355</ele>
        <time>2022-08-18T07:29:02Z</time>
      </trkpt>
      <trkpt lat="44.64809" lon="4.87364">
        <ele>355</ele>
        <time>2022-08-18T07:29:04Z</time>
      </trkpt>
      <trkpt lat="44.6481" lon="4.87371">
        <ele>355</ele>
        <time>2022-08-18T07:29:06Z</time>
      </trkpt>
      <trkpt lat="44.64814" lon="4.87378">
        <ele>355</ele>
        <time>2022-08-18T07:29:08Z</time>
      </trkpt>
      <trkpt lat="44.64831" lon="4.87377">
        <ele>356</ele>
        <time>2022-08-18T07:29:14Z</time>
      </trkpt>
      <trkpt lat="44.64912" lon="4.87356">
        <ele>362</ele>
        <time>2022-08-18T07:29:44Z</time>
      </trkpt>
      <trkpt lat="44.64991" lon="4.87341">
        <ele>369</ele>
        <time>2022-08-18T07:30:14Z</time>
      </trkpt>
      <trkpt lat="44.65067" lon="4.8731">
        <ele>376</ele>
        <time>2022-08-18T07:30:44Z</time>
      </trkpt>
      <trkpt lat="44.65143" lon="4.87277">
        <ele>382</ele>
        <time>2022-08-18T07:31:14Z</time>
      </trkpt>
      <trkpt lat="44.65221" lon="4.87238">
        <ele>387</ele>
        <time>2022-08-18T07:31:44Z</time>
      </trkpt>
      <trkpt lat="44.65297" lon="4.87196">
        <ele>393</ele>
        <time>2022-08-18T07:32:14Z</time>
      </trkpt>
      <trkpt lat="44.65371" lon="4.8716">
        <ele>399</ele>
        <time>2022-08-18T07:32:44Z</time>
      </trkpt>
      <trkpt lat="44.65432" lon="4.87142">
        <ele>403</ele>
        <time>2022-08-18T07:33:08Z</time>
      </trkpt>
      <trkpt lat="44.65462" lon="4.87145">
        <ele>407</ele>
        <time>2022-08-18T07:33:20Z</time>
      </trkpt>
      <trkpt lat="44.65534" lon="4.87183">
        <ele>413</ele>
        <time>2022-08-18T07:33:50Z</time>
      </trkpt>
      <trkpt lat="44.65611" lon="4.8722">
        <ele>421</ele>
        <time>2022-08-18T07:34:20Z</time>
      </trkpt>
      <trkpt lat="44.65683" lon="4.87245">
        <ele>427</ele>
        <time>2022-08-18T07:34:48Z</time>
      </trkpt>
      <trkpt lat="44.6575" lon="4.8725">
        <ele>432</ele>
        <time>2022-08-18T07:35:14Z</time>
      </trkpt>
      <trkpt lat="44.6581" lon="4.8724">
        <ele>437</ele>
        <time>2022-08-18T07:35:36Z</time>
      </trkpt>
      <trkpt lat="44.65842" lon="4.87242">
        <ele>439</ele>
        <time>2022-08-18T07:35:48Z</time>
      </trkpt>
      <trkpt lat="44.65924" lon="4.87268">
        <ele>445</ele>
        <time>2022-08-18T07:36:18Z</time>
      </trkpt>
      <trkpt lat="44.66003" lon="4.87281">
        <ele>452</ele>
        <time>2022-08-18T07:36:48Z</time>
      </trkpt>
      <trkpt lat="44.66082" lon="4.87306">
        <ele>459</ele>
        <time>2022-08-18T07:37:18Z</time>
      </trkpt>
      <trkpt lat="44.66119" lon="4.8732">
        <ele>461</ele>
        <time>2022-08-18T07:37:32Z</time>
      </trkpt>
      <trkpt lat="44.66132" lon="4.87318">
        <ele>461</ele>
        <time>2022-08-18T07:37:36Z</time>
      </trkpt>
      <trkpt lat="44.66137" lon="4.87313">
        <ele>462</ele>
        <time>2022-08-18T07:37:38Z</time>
      </trkpt>
      <trkpt lat="44.6614" lon="4.8731">
        <ele>462</ele>
        <time>2022-08-18T07:37:39Z</time>
      </trkpt>
      <trkpt lat="44.66142" lon="4.87306">
        <ele>462</ele>
        <time>2022-08-18T07:37:40Z</time>
      </trkpt>
      <trkpt lat="44.66144" lon="4.87295">
        <ele>462</ele>
        <time>2022-08-18T07:37:42Z</time>
      </trkpt>
      <trkpt lat="44.66144" lon="4.8729">
        <ele>462</ele>
        <time>2022-08-18T07:37:43Z</time>
      </trkpt>
      <trkpt lat="44.6614" lon="4.87275">
        <ele>462</ele>
        <time>2022-08-18T07:37:46Z</time>
      </trkpt>
      <trkpt lat="44.66121" lon="4.87239">
        <ele>462</ele>
        <time>2022-08-18T07:37:55Z</time>
      </trkpt>
      <trkpt lat="44.66059" lon="4.87146">
        <ele>468</ele>
        <time>2022-08-18T07:38:24Z</time>
      </trkpt>
      <trkpt lat="44.66057" lon="4.87137">
        <ele>468</ele>
        <time>2022-08-18T07:38:26Z</time>
      </trkpt>
      <trkpt lat="44.66057" lon="4.87129">
        <ele>469</ele>
        <time>2022-08-18T07:38:28Z</time>
      </trkpt>
      <trkpt lat="44.66058" lon="4.8712">
        <ele>469</ele>
        <time>2022-08-18T07:38:30Z</time>
      </trkpt>
      <trkpt lat="44.66062" lon="4.87113">
        <ele>469</ele>
        <time>2022-08-18T07:38:32Z</time>
      </trkpt>
      <trkpt lat="44.66066" lon="4.87107">
        <ele>470</ele>
        <time>2022-08-18T07:38:34Z</time>
      </trkpt>
      <trkpt lat="44.66088" lon="4.87095">
        <ele>473</ele>
        <time>2022-08-18T07:38:42Z</time>
      </trkpt>
      <trkpt lat="44.66181" lon="4.87061">
        <ele>480</ele>
        <time>2022-08-18T07:39:12Z</time>
      </trkpt>
      <trkpt lat="44.66191" lon="4.87056">
        <ele>481</ele>
        <time>2022-08-18T07:39:15Z</time>
      </trkpt>
      <trkpt lat="44.66199" lon="4.87048">
        <ele>481</ele>
        <time>2022-08-18T07:39:18Z</time>
      </trkpt>
      <trkpt lat="44.66206" lon="4.87036">
        <ele>481</ele>
        <time>2022-08-18T07:39:21Z</time>
      </trkpt>
      <trkpt lat="44.66216" lon="4.87013">
        <ele>482</ele>
        <time>2022-08-18T07:39:27Z</time>
      </trkpt>
      <trkpt lat="44.66264" lon="4.86946">
        <ele>486</ele>
        <time>2022-08-18T07:39:49Z</time>
      </trkpt>
      <trkpt lat="44.66288" lon="4.86921">
        <ele>488</ele>
        <time>2022-08-18T07:39:59Z</time>
      </trkpt>
      <trkpt lat="44.66371" lon="4.86862">
        <ele>498</ele>
        <time>2022-08-18T07:40:29Z</time>
      </trkpt>
      <trkpt lat="44.66454" lon="4.8682">
        <ele>503</ele>
        <time>2022-08-18T07:40:59Z</time>
      </trkpt>
      <trkpt lat="44.66538" lon="4.86789">
        <ele>510</ele>
        <time>2022-08-18T07:41:29Z</time>
      </trkpt>
      <trkpt lat="44.6656" lon="4.8678">
        <ele>511</ele>
        <time>2022-08-18T07:41:37Z</time>
      </trkpt>
      <trkpt lat="44.66571" lon="4.86772">
        <ele>512</ele>
        <time>2022-08-18T07:41:41Z</time>
      </trkpt>
      <trkpt lat="44.66576" lon="4.86766">
        <ele>513</ele>
        <time>2022-08-18T07:41:43Z</time>
      </trkpt>
      <trkpt lat="44.66579" lon="4.86757">
        <ele>513</ele>
        <time>2022-08-18T07:41:45Z</time>
      </trkpt>
      <trkpt lat="44.6658" lon="4.86749">
        <ele>514</ele>
        <time>2022-08-18T07:41:47Z</time>
      </trkpt>
      <trkpt lat="44.66569" lon="4.8671">
        <ele>512</ele>
        <time>2022-08-18T07:41:57Z</time>
      </trkpt>
      <trkpt lat="44.66554" lon="4.86678">
        <ele>515</ele>
        <time>2022-08-18T07:42:06Z</time>
      </trkpt>
      <trkpt lat="44.66549" lon="4.86654">
        <ele>516</ele>
        <time>2022-08-18T07:42:12Z</time>
      </trkpt>
      <trkpt lat="44.6655" lon="4.86637">
        <ele>517</ele>
        <time>2022-08-18T07:42:16Z</time>
      </trkpt>
      <trkpt lat="44.66557" lon="4.86621">
        <ele>517</ele>
        <time>2022-08-18T07:42:20Z</time>
      </trkpt>
      <trkpt lat="44.66565" lon="4.86607">
        <ele>517</ele>
        <time>2022-08-18T07:42:24Z</time>
      </trkpt>
      <trkpt lat="44.66646" lon="4.86511">
        <ele>518</ele>
        <time>2022-08-18T07:42:54Z</time>
      </trkpt>
      <trkpt lat="44.66672" lon="4.86486">
        <ele>514</ele>
        <time>2022-08-18T07:43:00Z</time>
      </trkpt>
      <trkpt lat="44.66689" lon="4.86478">
        <ele>514</ele>
        <time>2022-08-18T07:43:03Z</time>
      </trkpt>
      <trkpt lat="44.66702" lon="4.86476">
        <ele>514</ele>
        <time>2022-08-18T07:43:05Z</time>
      </trkpt>
      <trkpt lat="44.66886" lon="4.86474">
        <ele>504</ele>
        <time>2022-08-18T07:43:25Z</time>
      </trkpt>
      <trkpt lat="44.6695" lon="4.86451">
        <ele>497</ele>
        <time>2022-08-18T07:43:31Z</time>
      </trkpt>
      <trkpt lat="44.67043" lon="4.86376">
        <ele>489</ele>
        <time>2022-08-18T07:43:40Z</time>
      </trkpt>
      <trkpt lat="44.67102" lon="4.86309">
        <ele>483</ele>
        <time>2022-08-18T07:43:47Z</time>
      </trkpt>
      <trkpt lat="44.6712" lon="4.86301">
        <ele>481</ele>
        <time>2022-08-18T07:43:49Z</time>
      </trkpt>
      <trkpt lat="44.67138" lon="4.86305">
        <ele>479</ele>
        <time>2022-08-18T07:43:51Z</time>
      </trkpt>
      <trkpt lat="44.67146" lon="4.86313">
        <ele>478</ele>
        <time>2022-08-18T07:43:52Z</time>
      </trkpt>
      <trkpt lat="44.67153" lon="4.86323">
        <ele>477</ele>
        <time>2022-08-18T07:43:53Z</time>
      </trkpt>
      <trkpt lat="44.67162" lon="4.86347">
        <ele>475</ele>
        <time>2022-08-18T07:43:55Z</time>
      </trkpt>
      <trkpt lat="44.67166" lon="4.86373">
        <ele>473</ele>
        <time>2022-08-18T07:43:57Z</time>
      </trkpt>
      <trkpt lat="44.67162" lon="4.86416">
        <ele>470</ele>
        <time>2022-08-18T07:44:00Z</time>
      </trkpt>
      <trkpt lat="44.67147" lon="4.86485">
        <ele>466</ele>
        <time>2022-08-18T07:44:05Z</time>
      </trkpt>
      <trkpt lat="44.67146" lon="4.86498">
        <ele>466</ele>
        <time>2022-08-18T07:44:06Z</time>
      </trkpt>
      <trkpt lat="44.67147" lon="4.8651">
        <ele>465</ele>
        <time>2022-08-18T07:44:07Z</time>
      </trkpt>
      <trkpt lat="44.67157" lon="4.86528">
        <ele>464</ele>
        <time>2022-08-18T07:44:09Z</time>
      </trkpt>
      <trkpt lat="44.67446" lon="4.86589">
        <ele>442</ele>
        <time>2022-08-18T07:44:36Z</time>
      </trkpt>
      <trkpt lat="44.67467" lon="4.86602">
        <ele>440</ele>
        <time>2022-08-18T07:44:38Z</time>
      </trkpt>
      <trkpt lat="44.67484" lon="4.86623">
        <ele>438</ele>
        <time>2022-08-18T07:44:40Z</time>
      </trkpt>
      <trkpt lat="44.67516" lon="4.86681">
        <ele>434</ele>
        <time>2022-08-18T07:44:45Z</time>
      </trkpt>
      <trkpt lat="44.6757" lon="4.86726">
        <ele>429</ele>
        <time>2022-08-18T07:44:51Z</time>
      </trkpt>
      <trkpt lat="44.6759" lon="4.86737">
        <ele>427</ele>
        <time>2022-08-18T07:44:53Z</time>
      </trkpt>
      <trkpt lat="44.67637" lon="4.86741">
        <ele>424</ele>
        <time>2022-08-18T07:44:58Z</time>
      </trkpt>
      <trkpt lat="44.67643" lon="4.86743">
        <ele>423</ele>
        <time>2022-08-18T07:44:59Z</time>
      </trkpt>
      <trkpt lat="44.67646" lon="4.86749">
        <ele>422</ele>
        <time>2022-08-18T07:45:00Z</time>
      </trkpt>
      <trkpt lat="44.67646" lon="4.86757">
        <ele>422</ele>
        <time>2022-08-18T07:45:01Z</time>
      </trkpt>
      <trkpt lat="44.67643" lon="4.86763">
        <ele>420</ele>
        <time>2022-08-18T07:45:02Z</time>
      </trkpt>
      <trkpt lat="44.67566" lon="4.86809">
        <ele>414</ele>
        <time>2022-08-18T07:45:13Z</time>
      </trkpt>
      <trkpt lat="44.67565" lon="4.86819">
        <ele>413</ele>
        <time>2022-08-18T07:45:14Z</time>
      </trkpt>
      <trkpt lat="44.67566" lon="4.86844">
        <ele>411</ele>
        <time>2022-08-18T07:45:16Z</time>
      </trkpt>
      <trkpt lat="44.67573" lon="4.86856">
        <ele>411</ele>
        <time>2022-08-18T07:45:17Z</time>
      </trkpt>
      <trkpt lat="44.67593" lon="4.86861">
        <ele>412</ele>
        <time>2022-08-18T07:45:18Z</time>
      </trkpt>
      <trkpt lat="44.6765" lon="4.86916">
        <ele>408</ele>
        <time>2022-08-18T07:45:25Z</time>
      </trkpt>
      <trkpt lat="44.67689" lon="4.86939">
        <ele>406</ele>
        <time>2022-08-18T07:45:29Z</time>
      </trkpt>
      <trkpt lat="44.67755" lon="4.86955">
        <ele>400</ele>
        <time>2022-08-18T07:45:35Z</time>
      </trkpt>
      <trkpt lat="44.67791" lon="4.86952">
        <ele>397</ele>
        <time>2022-08-18T07:45:38Z</time>
      </trkpt>
      <trkpt lat="44.67815" lon="4.8694">
        <ele>395</ele>
        <time>2022-08-18T07:45:40Z</time>
      </trkpt>
      <trkpt lat="44.67916" lon="4.86839">
        <ele>386</ele>
        <time>2022-08-18T07:45:51Z</time>
      </trkpt>
      <trkpt lat="44.67944" lon="4.86824">
        <ele>384</ele>
        <time>2022-08-18T07:45:54Z</time>
      </trkpt>
      <trkpt lat="44.67964" lon="4.8682">
        <ele>382</ele>
        <time>2022-08-18T07:45:56Z</time>
      </trkpt>
      <trkpt lat="44.67983" lon="4.86823">
        <ele>381</ele>
        <time>2022-08-18T07:45:58Z</time>
      </trkpt>
      <trkpt lat="44.68024" lon="4.86835">
        <ele>378</ele>
        <time>2022-08-18T07:46:02Z</time>
      </trkpt>
      <trkpt lat="44.68068" lon="4.86834">
        <ele>375</ele>
        <time>2022-08-18T07:46:06Z</time>
      </trkpt>
      <trkpt lat="44.6811" lon="4.86823">
        <ele>373</ele>
        <time>2022-08-18T07:46:10Z</time>
      </trkpt>
      <trkpt lat="44.68118" lon="4.86818">
        <ele>373</ele>
        <time>2022-08-18T07:46:11Z</time>
      </trkpt>
      <trkpt lat="44.68123" lon="4.8681">
        <ele>372</ele>
        <time>2022-08-18T07:46:12Z</time>
      </trkpt>
      <trkpt lat="44.68125" lon="4.86799">
        <ele>372</ele>
        <time>2022-08-18T07:46:13Z</time>
      </trkpt>
      <trkpt lat="44.68123" lon="4.86789">
        <ele>371</ele>
        <time>2022-08-18T07:46:14Z</time>
      </trkpt>
      <trkpt lat="44.6806" lon="4.86709">
        <ele>364</ele>
        <time>2022-08-18T07:46:23Z</time>
      </trkpt>
      <trkpt lat="44.68024" lon="4.86617">
        <ele>358</ele>
        <time>2022-08-18T07:46:30Z</time>
      </trkpt>
      <trkpt lat="44.67873" lon="4.8643">
        <ele>343</ele>
        <time>2022-08-18T07:46:47Z</time>
      </trkpt>
      <trkpt lat="44.67863" lon="4.86406">
        <ele>342</ele>
        <time>2022-08-18T07:46:49Z</time>
      </trkpt>
      <trkpt lat="44.67873" lon="4.86291">
        <ele>336</ele>
        <time>2022-08-18T07:46:57Z</time>
      </trkpt>
      <trkpt lat="44.67856" lon="4.86201">
        <ele>332</ele>
        <time>2022-08-18T07:47:04Z</time>
      </trkpt>
      <trkpt lat="44.67853" lon="4.86192">
        <ele>332</ele>
        <time>2022-08-18T07:47:05Z</time>
      </trkpt>
      <trkpt lat="44.67848" lon="4.86187">
        <ele>332</ele>
        <time>2022-08-18T07:47:06Z</time>
      </trkpt>
      <trkpt lat="44.67842" lon="4.86188">
        <ele>331</ele>
        <time>2022-08-18T07:47:07Z</time>
      </trkpt>
      <trkpt lat="44.67839" lon="4.86195">
        <ele>331</ele>
        <time>2022-08-18T07:47:08Z</time>
      </trkpt>
      <trkpt lat="44.67839" lon="4.86204">
        <ele>330</ele>
        <time>2022-08-18T07:47:09Z</time>
      </trkpt>
      <trkpt lat="44.67843" lon="4.86222">
        <ele>329</ele>
        <time>2022-08-18T07:47:11Z</time>
      </trkpt>
      <trkpt lat="44.67846" lon="4.86243">
        <ele>328</ele>
        <time>2022-08-18T07:47:13Z</time>
      </trkpt>
      <trkpt lat="44.67843" lon="4.86278">
        <ele>326</ele>
        <time>2022-08-18T07:47:16Z</time>
      </trkpt>
      <trkpt lat="44.67816" lon="4.86415">
        <ele>321</ele>
        <time>2022-08-18T07:47:27Z</time>
      </trkpt>
      <trkpt lat="44.67823" lon="4.86494">
        <ele>317</ele>
        <time>2022-08-18T07:47:33Z</time>
      </trkpt>
      <trkpt lat="44.6782" lon="4.86505">
        <ele>316</ele>
        <time>2022-08-18T07:47:34Z</time>
      </trkpt>
      <trkpt lat="44.67815" lon="4.86515">
        <ele>315</ele>
        <time>2022-08-18T07:47:35Z</time>
      </trkpt>
      <trkpt lat="44.67808" lon="4.86521">
        <ele>314</ele>
        <time>2022-08-18T07:47:36Z</time>
      </trkpt>
      <trkpt lat="44.67799" lon="4.86524">
        <ele>314</ele>
        <time>2022-08-18T07:47:37Z</time>
      </trkpt>
      <trkpt lat="44.67781" lon="4.86522">
        <ele>313</ele>
        <time>2022-08-18T07:47:39Z</time>
      </trkpt>
      <trkpt lat="44.67728" lon="4.86403">
        <ele>307</ele>
        <time>2022-08-18T07:47:49Z</time>
      </trkpt>
      <trkpt lat="44.67717" lon="4.86333">
        <ele>304</ele>
        <time>2022-08-18T07:47:54Z</time>
      </trkpt>
      <trkpt lat="44.67721" lon="4.86073">
        <ele>295</ele>
        <time>2022-08-18T07:48:11Z</time>
      </trkpt>
      <trkpt lat="44.67723" lon="4.86058">
        <ele>295</ele>
        <time>2022-08-18T07:48:12Z</time>
      </trkpt>
      <trkpt lat="44.67788" lon="4.8589">
        <ele>290</ele>
        <time>2022-08-18T07:48:27Z</time>
      </trkpt>
      <trkpt lat="44.67874" lon="4.85737">
        <ele>286</ele>
        <time>2022-08-18T07:48:44Z</time>
      </trkpt>
      <trkpt lat="44.67918" lon="4.85694">
        <ele>283</ele>
        <time>2022-08-18T07:48:50Z</time>
      </trkpt>
      <trkpt lat="44.67991" lon="4.85645">
        <ele>280</ele>
        <time>2022-08-18T07:48:59Z</time>
      </trkpt>
      <trkpt lat="44.68063" lon="4.85625">
        <ele>277</ele>
        <time>2022-08-18T07:49:08Z</time>
      </trkpt>
      <trkpt lat="44.68266" lon="4.85507">
        <ele>269</ele>
        <time>2022-08-18T07:49:38Z</time>
      </trkpt>
      <trkpt lat="44.6843" lon="4.85439">
        <ele>261</ele>
        <time>2022-08-18T07:49:58Z</time>
      </trkpt>
      <trkpt lat="44.68638" lon="4.85425">
        <ele>249</ele>
        <time>2022-08-18T07:50:23Z</time>
      </trkpt>
      <trkpt lat="44.68756" lon="4.8545">
        <ele>245</ele>
        <time>2022-08-18T07:50:37Z</time>
      </trkpt>
      <trkpt lat="44.6899" lon="4.85415">
        <ele>238</ele>
        <time>2022-08-18T07:51:07Z</time>
      </trkpt>
      <trkpt lat="44.69244" lon="4.85343">
        <ele>230</ele>
        <time>2022-08-18T07:51:37Z</time>
      </trkpt>
      <trkpt lat="44.69509" lon="4.8526">
        <ele>221</ele>
        <time>2022-08-18T07:52:07Z</time>
      </trkpt>
      <trkpt lat="44.69691" lon="4.85199">
        <ele>214</ele>
        <time>2022-08-18T07:52:27Z</time>
      </trkpt>
      <trkpt lat="44.69892" lon="4.85154">
        <ele>205</ele>
        <time>2022-08-18T07:52:47Z</time>
      </trkpt>
      <trkpt lat="44.70074" lon="4.85056">
        <ele>197</ele>
        <time>2022-08-18T07:53:06Z</time>
      </trkpt>
      <trkpt lat="44.70191" lon="4.85049">
        <ele>191</ele>
        <time>2022-08-18T07:53:18Z</time>
      </trkpt>
      <trkpt lat="44.70205" lon="4.85049">
        <ele>190</ele>
        <time>2022-08-18T07:53:20Z</time>
      </trkpt>
      <trkpt lat="44.7021" lon="4.85046">
        <ele>190</ele>
        <time>2022-08-18T07:53:21Z</time>
      </trkpt>
      <trkpt lat="44.70213" lon="4.8504">
        <ele>190</ele>
        <time>2022-08-18T07:53:22Z</time>
      </trkpt>
      <trkpt lat="44.70215" lon="4.85017">
        <ele>190</ele>
        <time>2022-08-18T07:53:25Z</time>
      </trkpt>
      <trkpt lat="44.70224" lon="4.84907">
        <ele>187</ele>
        <time>2022-08-18T07:53:38Z</time>
      </trkpt>
      <trkpt lat="44.70209" lon="4.84794">
        <ele>185</ele>
        <time>2022-08-18T07:53:51Z</time>
      </trkpt>
      <trkpt lat="44.70149" lon="4.84579">
        <ele>185</ele>
        <time>2022-08-18T07:54:21Z</time>
      </trkpt>
      <trkpt lat="44.70149" lon="4.84426">
        <ele>184</ele>
        <time>2022-08-18T07:54:38Z</time>
      </trkpt>
      <trkpt lat="44.70152" lon="4.84246">
        <ele>179</ele>
        <time>2022-08-18T07:54:54Z</time>
      </trkpt>
      <trkpt lat="44.70148" lon="4.84201">
        <ele>177</ele>
        <time>2022-08-18T07:54:58Z</time>
      </trkpt>
      <trkpt lat="44.70069" lon="4.83884">
        <ele>174</ele>
        <time>2022-08-18T07:55:28Z</time>
      </trkpt>
      <trkpt lat="44.70043" lon="4.83771">
        <ele>174</ele>
        <time>2022-08-18T07:55:41Z</time>
      </trkpt>
      <trkpt lat="44.7004" lon="4.83767">
        <ele>174</ele>
        <time>2022-08-18T07:55:42Z</time>
      </trkpt>
      <trkpt lat="44.70037" lon="4.83766">
        <ele>174</ele>
        <time>2022-08-18T07:55:43Z</time>
      </trkpt>
      <trkpt lat="44.7003" lon="4.83769">
        <ele>175</ele>
        <time>2022-08-18T07:55:45Z</time>
      </trkpt>
      <trkpt lat="44.7002" lon="4.8377">
        <ele>176</ele>
        <time>2022-08-18T07:55:48Z</time>
      </trkpt>
      <trkpt lat="44.70007" lon="4.83772">
        <ele>178</ele>
        <time>2022-08-18T07:55:53Z</time>
      </trkpt>
      <trkpt lat="44.70003" lon="4.83776">
        <ele>178</ele>
        <time>2022-08-18T07:55:56Z</time>
      </trkpt>
      <trkpt lat="44.69975" lon="4.83749">
        <ele>180</ele>
        <time>2022-08-18T07:56:09Z</time>
      </trkpt>
      <trkpt lat="44.6997" lon="4.83746">
        <ele>181</ele>
        <time>2022-08-18T07:56:11Z</time>
      </trkpt>
      <trkpt lat="44.69941" lon="4.83749">
        <ele>184</ele>
        <time>2022-08-18T07:56:23Z</time>
      </trkpt>
      <trkpt lat="44.69936" lon="4.8375">
        <ele>184</ele>
        <time>2022-08-18T07:56:25Z</time>
      </trkpt>
      <trkpt lat="44.69932" lon="4.83752">
        <ele>186</ele>
        <time>2022-08-18T07:56:27Z</time>
      </trkpt>
      <trkpt lat="44.69907" lon="4.83759">
        <ele>189</ele>
        <time>2022-08-18T07:56:39Z</time>
      </trkpt>
      <trkpt lat="44.69903" lon="4.83758">
        <ele>189</ele>
        <time>2022-08-18T07:56:41Z</time>
      </trkpt>
      <trkpt lat="44.699" lon="4.83755">
        <ele>191</ele>
        <time>2022-08-18T07:56:43Z</time>
      </trkpt>
      <trkpt lat="44.69898" lon="4.83749">
        <ele>192</ele>
        <time>2022-08-18T07:56:45Z</time>
      </trkpt>
      <trkpt lat="44.69903" lon="4.83737">
        <ele>194</ele>
        <time>2022-08-18T07:56:49Z</time>
      </trkpt>
      <trkpt lat="44.69942" lon="4.83691">
        <ele>199</ele>
        <time>2022-08-18T07:57:09Z</time>
      </trkpt>
      <trkpt lat="44.69954" lon="4.83665">
        <ele>201</ele>
        <time>2022-08-18T07:57:17Z</time>
      </trkpt>
      <trkpt lat="44.69958" lon="4.8365">
        <ele>201</ele>
        <time>2022-08-18T07:57:21Z</time>
      </trkpt>
      <trkpt lat="44.69954" lon="4.83628">
        <ele>201</ele>
        <time>2022-08-18T07:57:27Z</time>
      </trkpt>
      <trkpt lat="44.69948" lon="4.83608">
        <ele>202</ele>
        <time>2022-08-18T07:57:33Z</time>
      </trkpt>
      <trkpt lat="44.69946" lon="4.83603">
        <ele>202</ele>
        <time>2022-08-18T07:57:35Z</time>
      </trkpt>
      <trkpt lat="44.69943" lon="4.83599">
        <ele>202</ele>
        <time>2022-08-18T07:57:37Z</time>
      </trkpt>
      <trkpt lat="44.69938" lon="4.83603">
        <ele>202</ele>
        <time>2022-08-18T07:57:39Z</time>
      </trkpt>
      <trkpt lat="44.69938" lon="4.83609">
        <ele>202</ele>
        <time>2022-08-18T07:57:41Z</time>
      </trkpt>
      <trkpt lat="44.69941" lon="4.83613">
        <ele>203</ele>
        <time>2022-08-18T07:57:43Z</time>
      </trkpt>
      <trkpt lat="44.69942" lon="4.83617">
        <ele>203</ele>
        <time>2022-08-18T07:57:45Z</time>
      </trkpt>
      <trkpt lat="44.69943" lon="4.83639">
        <ele>204</ele>
        <time>2022-08-18T07:57:53Z</time>
      </trkpt>
      <trkpt lat="44.69944" lon="4.83645">
        <ele>204</ele>
        <time>2022-08-18T07:57:55Z</time>
      </trkpt>
      <trkpt lat="44.69942" lon="4.83651">
        <ele>205</ele>
        <time>2022-08-18T07:57:57Z</time>
      </trkpt>
      <trkpt lat="44.69937" lon="4.83659">
        <ele>206</ele>
        <time>2022-08-18T07:58:01Z</time>
      </trkpt>
      <trkpt lat="44.69931" lon="4.83671">
        <ele>207</ele>
        <time>2022-08-18T07:58:07Z</time>
      </trkpt>
      <trkpt lat="44.69927" lon="4.83675">
        <ele>207</ele>
        <time>2022-08-18T07:58:10Z</time>
      </trkpt>
      <trkpt lat="44.69904" lon="4.83699">
        <ele>209</ele>
        <time>2022-08-18T07:58:27Z</time>
      </trkpt>
      <trkpt lat="44.69892" lon="4.83706">
        <ele>209</ele>
        <time>2022-08-18T07:58:33Z</time>
      </trkpt>
      <trkpt lat="44.69885" lon="4.83712">
        <ele>209</ele>
        <time>2022-08-18T07:58:38Z</time>
      </trkpt>
      <trkpt lat="44.69877" lon="4.83718">
        <ele>209</ele>
        <time>2022-08-18T07:58:43Z</time>
      </trkpt>
      <trkpt lat="44.6987" lon="4.83732">
        <ele>209</ele>
        <time>2022-08-18T07:58:49Z</time>
      </trkpt>
      <trkpt lat="44.69866" lon="4.83742">
        <ele>209</ele>
        <time>2022-08-18T07:58:53Z</time>
      </trkpt>
      <trkpt lat="44.69864" lon="4.83746">
        <ele>208</ele>
        <time>2022-08-18T07:58:55Z</time>
      </trkpt>
      <trkpt lat="44.69861" lon="4.83745">
        <ele>208</ele>
        <time>2022-08-18T07:58:59Z</time>
      </trkpt>
      <trkpt lat="44.69858" lon="4.8374">
        <ele>208</ele>
        <time>2022-08-18T07:59:04Z</time>
      </trkpt>
      <trkpt lat="44.69855" lon="4.83736">
        <ele>209</ele>
        <time>2022-08-18T07:59:08Z</time>
      </trkpt>
      <trkpt lat="44.69854" lon="4.83731">
        <ele>211</ele>
        <time>2022-08-18T07:59:12Z</time>
      </trkpt>
      <trkpt lat="44.69857" lon="4.83726">
        <ele>212</ele>
        <time>2022-08-18T07:59:16Z</time>
      </trkpt>
      <trkpt lat="44.69859" lon="4.83721">
        <ele>214</ele>
        <time>2022-08-18T07:59:20Z</time>
      </trkpt>
      <trkpt lat="44.69862" lon="4.83712">
        <ele>216</ele>
        <time>2022-08-18T07:59:27Z</time>
      </trkpt>
      <trkpt lat="44.69865" lon="4.83707">
        <ele>217</ele>
        <time>2022-08-18T07:59:31Z</time>
      </trkpt>
      <trkpt lat="44.69878" lon="4.83678">
        <ele>221</ele>
        <time>2022-08-18T07:59:55Z</time>
      </trkpt>
      <trkpt lat="44.6988" lon="4.83673">
        <ele>221</ele>
        <time>2022-08-18T07:59:59Z</time>
      </trkpt>
      <trkpt lat="44.69881" lon="4.83669">
        <ele>222</ele>
        <time>2022-08-18T08:00:03Z</time>
      </trkpt>
      <trkpt lat="44.69884" lon="4.83665">
        <ele>222</ele>
        <time>2022-08-18T08:00:13Z</time>
      </trkpt>
      <trkpt lat="44.69906" lon="4.83662">
        <ele>218</ele>
        <time>2022-08-18T08:00:37Z</time>
      </trkpt>
      <trkpt lat="44.6991" lon="4.83663">
        <ele>217</ele>
        <time>2022-08-18T08:00:42Z</time>
      </trkpt>
      <trkpt lat="44.69913" lon="4.83668">
        <ele>215</ele>
        <time>2022-08-18T08:00:49Z</time>
      </trkpt>
      <trkpt lat="44.69916" lon="4.83668">
        <ele>213</ele>
        <time>2022-08-18T08:00:54Z</time>
      </trkpt>
      <trkpt lat="44.6992" lon="4.8367">
        <ele>211</ele>
        <time>2022-08-18T08:00:58Z</time>
      </trkpt>
      <trkpt lat="44.69924" lon="4.83653">
        <ele>211</ele>
        <time>2022-08-18T08:01:09Z</time>
      </trkpt>
      <trkpt lat="44.69923" lon="4.83637">
        <ele>210</ele>
        <time>2022-08-18T08:01:19Z</time>
      </trkpt>
      <trkpt lat="44.69921" lon="4.83632">
        <ele>210</ele>
        <time>2022-08-18T08:01:22Z</time>
      </trkpt>
      <trkpt lat="44.69906" lon="4.83614">
        <ele>211</ele>
        <time>2022-08-18T08:01:40Z</time>
      </trkpt>
      <trkpt lat="44.69898" lon="4.83595">
        <ele>211</ele>
        <time>2022-08-18T08:01:55Z</time>
      </trkpt>
      <trkpt lat="44.69895" lon="4.8359">
        <ele>212</ele>
        <time>2022-08-18T08:01:59Z</time>
      </trkpt>
      <trkpt lat="44.69891" lon="4.8359">
        <ele>211</ele>
        <time>2022-08-18T08:02:02Z</time>
      </trkpt>
      <trkpt lat="44.69888" lon="4.83591">
        <ele>212</ele>
        <time>2022-08-18T08:02:05Z</time>
      </trkpt>
      <trkpt lat="44.69884" lon="4.8359">
        <ele>212</ele>
        <time>2022-08-18T08:02:09Z</time>
      </trkpt>
      <trkpt lat="44.69882" lon="4.83585">
        <ele>212</ele>
        <time>2022-08-18T08:02:12Z</time>
      </trkpt>
      <trkpt lat="44.69878" lon="4.83581">
        <ele>212</ele>
        <time>2022-08-18T08:02:16Z</time>
      </trkpt>
      <trkpt lat="44.69875" lon="4.83579">
        <ele>212</ele>
        <time>2022-08-18T08:02:19Z</time>
      </trkpt>
      <trkpt lat="44.69849" lon="4.83555">
        <ele>212</ele>
        <time>2022-08-18T08:02:46Z</time>
      </trkpt>
      <trkpt lat="44.69846" lon="4.83551">
        <ele>211</ele>
        <time>2022-08-18T08:02:51Z</time>
      </trkpt>
      <trkpt lat="44.69846" lon="4.83556">
        <ele>212</ele>
        <time>2022-08-18T08:02:58Z</time>
      </trkpt>
      <trkpt lat="44.69851" lon="4.83571">
        <ele>216</ele>
        <time>2022-08-18T08:03:10Z</time>
      </trkpt>
      <trkpt lat="44.69853" lon="4.83576">
        <ele>217</ele>
        <time>2022-08-18T08:03:14Z</time>
      </trkpt>
      <trkpt lat="44.69859" lon="4.83589">
        <ele>220</ele>
        <time>2022-08-18T08:03:26Z</time>
      </trkpt>
      <trkpt lat="44.69866" lon="4.83609">
        <ele>223</ele>
        <time>2022-08-18T08:03:44Z</time>
      </trkpt>
      <trkpt lat="44.69862" lon="4.83611">
        <ele>223</ele>
        <time>2022-08-18T08:03:49Z</time>
      </trkpt>
      <trkpt lat="44.69854" lon="4.836">
        <ele>223</ele>
        <time>2022-08-18T08:03:58Z</time>
      </trkpt>
      <trkpt lat="44.69847" lon="4.83594">
        <ele>222</ele>
        <time>2022-08-18T08:04:05Z</time>
      </trkpt>
      <trkpt lat="44.6984" lon="4.83588">
        <ele>224</ele>
        <time>2022-08-18T08:04:12Z</time>
      </trkpt>
      <trkpt lat="44.69837" lon="4.83586">
        <ele>225</ele>
        <time>2022-08-18T08:04:15Z</time>
      </trkpt>
      <trkpt lat="44.69833" lon="4.83588">
        <ele>226</ele>
        <time>2022-08-18T08:04:18Z</time>
      </trkpt>
      <trkpt lat="44.69831" lon="4.83591">
        <ele>226</ele>
        <time>2022-08-18T08:04:21Z</time>
      </trkpt>
      <trkpt lat="44.69827" lon="4.83593">
        <ele>226</ele>
        <time>2022-08-18T08:04:25Z</time>
      </trkpt>
      <trkpt lat="44.69824" lon="4.8359">
        <ele>225</ele>
        <time>2022-08-18T08:04:28Z</time>
      </trkpt>
      <trkpt lat="44.69821" lon="4.83592">
        <ele>225</ele>
        <time>2022-08-18T08:04:32Z</time>
      </trkpt>
      <trkpt lat="44.69817" lon="4.83593">
        <ele>226</ele>
        <time>2022-08-18T08:04:36Z</time>
      </trkpt>
      <trkpt lat="44.69813" lon="4.83593">
        <ele>227</ele>
        <time>2022-08-18T08:04:40Z</time>
      </trkpt>
      <trkpt lat="44.69802" lon="4.83586">
        <ele>230</ele>
        <time>2022-08-18T08:04:52Z</time>
      </trkpt>
      <trkpt lat="44.69784" lon="4.8358">
        <ele>233</ele>
        <time>2022-08-18T08:05:11Z</time>
      </trkpt>
      <trkpt lat="44.69783" lon="4.83586">
        <ele>233</ele>
        <time>2022-08-18T08:05:57Z</time>
      </trkpt>
      <trkpt lat="44.69779" lon="4.83596">
        <ele>235</ele>
        <time>2022-08-18T08:06:05Z</time>
      </trkpt>
      <trkpt lat="44.69775" lon="4.83612">
        <ele>240</ele>
        <time>2022-08-18T08:06:23Z</time>
      </trkpt>
      <trkpt lat="44.69773" lon="4.83616">
        <ele>240</ele>
        <time>2022-08-18T08:06:28Z</time>
      </trkpt>
      <trkpt lat="44.69774" lon="4.83621">
        <ele>242</ele>
        <time>2022-08-18T08:06:37Z</time>
      </trkpt>
      <trkpt lat="44.69787" lon="4.83634">
        <ele>244</ele>
        <time>2022-08-18T08:06:49Z</time>
      </trkpt>
      <trkpt lat="44.69791" lon="4.83635">
        <ele>244</ele>
        <time>2022-08-18T08:06:53Z</time>
      </trkpt>
      <trkpt lat="44.69792" lon="4.83641">
        <ele>243</ele>
        <time>2022-08-18T08:06:59Z</time>
      </trkpt>
      <trkpt lat="44.69796" lon="4.83643">
        <ele>244</ele>
        <time>2022-08-18T08:07:04Z</time>
      </trkpt>
      <trkpt lat="44.69792" lon="4.83646">
        <ele>245</ele>
        <time>2022-08-18T08:07:12Z</time>
      </trkpt>
      <trkpt lat="44.69789" lon="4.83643">
        <ele>245</ele>
        <time>2022-08-18T08:07:15Z</time>
      </trkpt>
      <trkpt lat="44.69782" lon="4.83643">
        <ele>246</ele>
        <time>2022-08-18T08:07:21Z</time>
      </trkpt>
      <trkpt lat="44.69771" lon="4.83647">
        <ele>248</ele>
        <time>2022-08-18T08:07:30Z</time>
      </trkpt>
      <trkpt lat="44.69767" lon="4.83649">
        <ele>248</ele>
        <time>2022-08-18T08:07:33Z</time>
      </trkpt>
      <trkpt lat="44.69764" lon="4.83652">
        <ele>248</ele>
        <time>2022-08-18T08:07:36Z</time>
      </trkpt>
      <trkpt lat="44.6976" lon="4.83661">
        <ele>250</ele>
        <time>2022-08-18T08:07:43Z</time>
      </trkpt>
      <trkpt lat="44.69758" lon="4.83665">
        <ele>251</ele>
        <time>2022-08-18T08:07:47Z</time>
      </trkpt>
      <trkpt lat="44.69751" lon="4.83669">
        <ele>252</ele>
        <time>2022-08-18T08:07:53Z</time>
      </trkpt>
      <trkpt lat="44.69732" lon="4.83686">
        <ele>254</ele>
        <time>2022-08-18T08:08:11Z</time>
      </trkpt>
      <trkpt lat="44.69732" lon="4.83692">
        <ele>254</ele>
        <time>2022-08-18T08:08:15Z</time>
      </trkpt>
      <trkpt lat="44.6975" lon="4.83684">
        <ele>258</ele>
        <time>2022-08-18T08:08:33Z</time>
      </trkpt>
      <trkpt lat="44.69749" lon="4.83683">
        <ele>258</ele>
        <time>2022-08-18T08:12:22Z</time>
      </trkpt>
      <trkpt lat="44.69746" lon="4.83685">
        <ele>257</ele>
        <time>2022-08-18T08:12:25Z</time>
      </trkpt>
      <trkpt lat="44.69733" lon="4.8369">
        <ele>256</ele>
        <time>2022-08-18T08:12:38Z</time>
      </trkpt>
      <trkpt lat="44.6973" lon="4.83692">
        <ele>255</ele>
        <time>2022-08-18T08:12:42Z</time>
      </trkpt>
      <trkpt lat="44.69725" lon="4.83701">
        <ele>255</ele>
        <time>2022-08-18T08:12:46Z</time>
      </trkpt>
      <trkpt lat="44.69722" lon="4.83705">
        <ele>255</ele>
        <time>2022-08-18T08:12:48Z</time>
      </trkpt>
      <trkpt lat="44.69719" lon="4.83709">
        <ele>255</ele>
        <time>2022-08-18T08:12:50Z</time>
      </trkpt>
      <trkpt lat="44.69699" lon="4.83738">
        <ele>256</ele>
        <time>2022-08-18T08:13:02Z</time>
      </trkpt>
      <trkpt lat="44.69696" lon="4.83743">
        <ele>256</ele>
        <time>2022-08-18T08:13:04Z</time>
      </trkpt>
      <trkpt lat="44.69687" lon="4.83752">
        <ele>255</ele>
        <time>2022-08-18T08:13:08Z</time>
      </trkpt>
      <trkpt lat="44.69624" lon="4.83773">
        <ele>253</ele>
        <time>2022-08-18T08:13:23Z</time>
      </trkpt>
      <trkpt lat="44.6958" lon="4.83772">
        <ele>250</ele>
        <time>2022-08-18T08:13:30Z</time>
      </trkpt>
      <trkpt lat="44.69561" lon="4.83761">
        <ele>249</ele>
        <time>2022-08-18T08:13:33Z</time>
      </trkpt>
      <trkpt lat="44.69543" lon="4.83748">
        <ele>249</ele>
        <time>2022-08-18T08:13:36Z</time>
      </trkpt>
      <trkpt lat="44.6954" lon="4.83743">
        <ele>249</ele>
        <time>2022-08-18T08:13:37Z</time>
      </trkpt>
      <trkpt lat="44.69539" lon="4.83736">
        <ele>248</ele>
        <time>2022-08-18T08:13:38Z</time>
      </trkpt>
      <trkpt lat="44.69542" lon="4.83731">
        <ele>246</ele>
        <time>2022-08-18T08:13:39Z</time>
      </trkpt>
      <trkpt lat="44.69545" lon="4.83728">
        <ele>245</ele>
        <time>2022-08-18T08:13:40Z</time>
      </trkpt>
      <trkpt lat="44.69551" lon="4.83727">
        <ele>243</ele>
        <time>2022-08-18T08:13:41Z</time>
      </trkpt>
      <trkpt lat="44.69579" lon="4.83721">
        <ele>240</ele>
        <time>2022-08-18T08:13:45Z</time>
      </trkpt>
      <trkpt lat="44.69603" lon="4.83719">
        <ele>236</ele>
        <time>2022-08-18T08:13:48Z</time>
      </trkpt>
      <trkpt lat="44.69634" lon="4.83705">
        <ele>233</ele>
        <time>2022-08-18T08:13:52Z</time>
      </trkpt>
      <trkpt lat="44.69648" lon="4.83687">
        <ele>231</ele>
        <time>2022-08-18T08:13:55Z</time>
      </trkpt>
      <trkpt lat="44.69675" lon="4.83635">
        <ele>225</ele>
        <time>2022-08-18T08:14:03Z</time>
      </trkpt>
      <trkpt lat="44.69676" lon="4.83628">
        <ele>224</ele>
        <time>2022-08-18T08:14:04Z</time>
      </trkpt>
      <trkpt lat="44.69674" lon="4.83623">
        <ele>223</ele>
        <time>2022-08-18T08:14:05Z</time>
      </trkpt>
      <trkpt lat="44.69662" lon="4.83608">
        <ele>218</ele>
        <time>2022-08-18T08:14:09Z</time>
      </trkpt>
      <trkpt lat="44.69663" lon="4.83601">
        <ele>217</ele>
        <time>2022-08-18T08:14:10Z</time>
      </trkpt>
      <trkpt lat="44.697" lon="4.83524">
        <ele>209</ele>
        <time>2022-08-18T08:14:21Z</time>
      </trkpt>
      <trkpt lat="44.69699" lon="4.83516">
        <ele>209</ele>
        <time>2022-08-18T08:14:22Z</time>
      </trkpt>
      <trkpt lat="44.69719" lon="4.83464">
        <ele>204</ele>
        <time>2022-08-18T08:14:28Z</time>
      </trkpt>
      <trkpt lat="44.69727" lon="4.83447">
        <ele>203</ele>
        <time>2022-08-18T08:14:30Z</time>
      </trkpt>
      <trkpt lat="44.69838" lon="4.83303">
        <ele>184</ele>
        <time>2022-08-18T08:14:51Z</time>
      </trkpt>
      <trkpt lat="44.69857" lon="4.83288">
        <ele>181</ele>
        <time>2022-08-18T08:14:55Z</time>
      </trkpt>
      <trkpt lat="44.69864" lon="4.83279">
        <ele>179</ele>
        <time>2022-08-18T08:14:57Z</time>
      </trkpt>
      <trkpt lat="44.69868" lon="4.83275">
        <ele>178</ele>
        <time>2022-08-18T08:14:58Z</time>
      </trkpt>
      <trkpt lat="44.69872" lon="4.83272">
        <ele>177</ele>
        <time>2022-08-18T08:14:59Z</time>
      </trkpt>
      <trkpt lat="44.69881" lon="4.83275">
        <ele>176</ele>
        <time>2022-08-18T08:15:01Z</time>
      </trkpt>
      <trkpt lat="44.69894" lon="4.8329">
        <ele>174</ele>
        <time>2022-08-18T08:15:04Z</time>
      </trkpt>
      <trkpt lat="44.69912" lon="4.83301">
        <ele>172</ele>
        <time>2022-08-18T08:15:07Z</time>
      </trkpt>
      <trkpt lat="44.69923" lon="4.83305">
        <ele>170</ele>
        <time>2022-08-18T08:15:09Z</time>
      </trkpt>
      <trkpt lat="44.69931" lon="4.83309">
        <ele>169</ele>
        <time>2022-08-18T08:15:11Z</time>
      </trkpt>
      <trkpt lat="44.69939" lon="4.83315">
        <ele>169</ele>
        <time>2022-08-18T08:15:13Z</time>
      </trkpt>
      <trkpt lat="44.69942" lon="4.8332">
        <ele>169</ele>
        <time>2022-08-18T08:15:14Z</time>
      </trkpt>
      <trkpt lat="44.69946" lon="4.83331">
        <ele>169</ele>
        <time>2022-08-18T08:15:16Z</time>
      </trkpt>
      <trkpt lat="44.69943" lon="4.83375">
        <ele>171</ele>
        <time>2022-08-18T08:15:24Z</time>
      </trkpt>
      <trkpt lat="44.69941" lon="4.83399">
        <ele>172</ele>
        <time>2022-08-18T08:15:29Z</time>
      </trkpt>
      <trkpt lat="44.69937" lon="4.83427">
        <ele>173</ele>
        <time>2022-08-18T08:15:37Z</time>
      </trkpt>
      <trkpt lat="44.69936" lon="4.83431">
        <ele>173</ele>
        <time>2022-08-18T08:15:39Z</time>
      </trkpt>
      <trkpt lat="44.6995" lon="4.83496">
        <ele>173</ele>
        <time>2022-08-18T08:15:55Z</time>
      </trkpt>
      <trkpt lat="44.7001" lon="4.83632">
        <ele>173</ele>
        <time>2022-08-18T08:16:21Z</time>
      </trkpt>
      <trkpt lat="44.70052" lon="4.83823">
        <ele>172</ele>
        <time>2022-08-18T08:16:51Z</time>
      </trkpt>
      <trkpt lat="44.70097" lon="4.84018">
        <ele>174</ele>
        <time>2022-08-18T08:17:21Z</time>
      </trkpt>
      <trkpt lat="44.70143" lon="4.84193">
        <ele>177</ele>
        <time>2022-08-18T08:17:51Z</time>
      </trkpt>
      <trkpt lat="44.70148" lon="4.84231">
        <ele>179</ele>
        <time>2022-08-18T08:17:58Z</time>
      </trkpt>
      <trkpt lat="44.70148" lon="4.84397">
        <ele>184</ele>
        <time>2022-08-18T08:18:28Z</time>
      </trkpt>
      <trkpt lat="44.70145" lon="4.84562">
        <ele>188</ele>
        <time>2022-08-18T08:18:58Z</time>
      </trkpt>
      <trkpt lat="44.70145" lon="4.8458">
        <ele>188</ele>
        <time>2022-08-18T08:19:01Z</time>
      </trkpt>
      <trkpt lat="44.70162" lon="4.84649">
        <ele>186</ele>
        <time>2022-08-18T08:19:10Z</time>
      </trkpt>
      <trkpt lat="44.70208" lon="4.84808">
        <ele>185</ele>
        <time>2022-08-18T08:19:30Z</time>
      </trkpt>
      <trkpt lat="44.70221" lon="4.84916">
        <ele>187</ele>
        <time>2022-08-18T08:19:44Z</time>
      </trkpt>
      <trkpt lat="44.7021" lon="4.85045">
        <ele>189</ele>
        <time>2022-08-18T08:20:07Z</time>
      </trkpt>
      <trkpt lat="44.70224" lon="4.85223">
        <ele>189</ele>
        <time>2022-08-18T08:20:35Z</time>
      </trkpt>
      <trkpt lat="44.70224" lon="4.85237">
        <ele>190</ele>
        <time>2022-08-18T08:20:37Z</time>
      </trkpt>
      <trkpt lat="44.70242" lon="4.85382">
        <ele>191</ele>
        <time>2022-08-18T08:20:59Z</time>
      </trkpt>
      <trkpt lat="44.70253" lon="4.85414">
        <ele>191</ele>
        <time>2022-08-18T08:21:04Z</time>
      </trkpt>
      <trkpt lat="44.70292" lon="4.85487">
        <ele>193</ele>
        <time>2022-08-18T08:21:18Z</time>
      </trkpt>
      <trkpt lat="44.70308" lon="4.855">
        <ele>194</ele>
        <time>2022-08-18T08:21:22Z</time>
      </trkpt>
      <trkpt lat="44.70357" lon="4.85535">
        <ele>195</ele>
        <time>2022-08-18T08:21:34Z</time>
      </trkpt>
      <trkpt lat="44.70371" lon="4.8555">
        <ele>196</ele>
        <time>2022-08-18T08:21:38Z</time>
      </trkpt>
      <trkpt lat="44.70384" lon="4.85574">
        <ele>197</ele>
        <time>2022-08-18T08:21:43Z</time>
      </trkpt>
      <trkpt lat="44.70441" lon="4.85719">
        <ele>203</ele>
        <time>2022-08-18T08:22:13Z</time>
      </trkpt>
      <trkpt lat="44.70453" lon="4.85775">
        <ele>204</ele>
        <time>2022-08-18T08:22:24Z</time>
      </trkpt>
      <trkpt lat="44.70461" lon="4.85828">
        <ele>205</ele>
        <time>2022-08-18T08:22:34Z</time>
      </trkpt>
      <trkpt lat="44.70497" lon="4.85938">
        <ele>207</ele>
        <time>2022-08-18T08:22:55Z</time>
      </trkpt>
      <trkpt lat="44.70512" lon="4.86094">
        <ele>210</ele>
        <time>2022-08-18T08:23:25Z</time>
      </trkpt>
      <trkpt lat="44.70526" lon="4.86238">
        <ele>215</ele>
        <time>2022-08-18T08:23:56Z</time>
      </trkpt>
      <trkpt lat="44.70539" lon="4.86364">
        <ele>221</ele>
        <time>2022-08-18T08:24:26Z</time>
      </trkpt>
      <trkpt lat="44.70545" lon="4.86432">
        <ele>224</ele>
        <time>2022-08-18T08:24:42Z</time>
      </trkpt>
      <trkpt lat="44.70544" lon="4.86469">
        <ele>225</ele>
        <time>2022-08-18T08:24:50Z</time>
      </trkpt>
      <trkpt lat="44.70536" lon="4.865">
        <ele>226</ele>
        <time>2022-08-18T08:24:57Z</time>
      </trkpt>
      <trkpt lat="44.70491" lon="4.86596">
        <ele>228</ele>
        <time>2022-08-18T08:25:18Z</time>
      </trkpt>
      <trkpt lat="44.70453" lon="4.86764">
        <ele>229</ele>
        <time>2022-08-18T08:25:47Z</time>
      </trkpt>
      <trkpt lat="44.7045" lon="4.86792">
        <ele>229</ele>
        <time>2022-08-18T08:25:52Z</time>
      </trkpt>
      <trkpt lat="44.70461" lon="4.86874">
        <ele>234</ele>
        <time>2022-08-18T08:26:10Z</time>
      </trkpt>
      <trkpt lat="44.70466" lon="4.86914">
        <ele>236</ele>
        <time>2022-08-18T08:26:20Z</time>
      </trkpt>
      <trkpt lat="44.70464" lon="4.86954">
        <ele>237</ele>
        <time>2022-08-18T08:26:30Z</time>
      </trkpt>
      <trkpt lat="44.70455" lon="4.86998">
        <ele>239</ele>
        <time>2022-08-18T08:26:42Z</time>
      </trkpt>
      <trkpt lat="44.70409" lon="4.87128">
        <ele>244</ele>
        <time>2022-08-18T08:27:12Z</time>
      </trkpt>
      <trkpt lat="44.70358" lon="4.87282">
        <ele>249</ele>
        <time>2022-08-18T08:27:42Z</time>
      </trkpt>
      <trkpt lat="44.70298" lon="4.87429">
        <ele>253</ele>
        <time>2022-08-18T08:28:12Z</time>
      </trkpt>
      <trkpt lat="44.7022" lon="4.87562">
        <ele>254</ele>
        <time>2022-08-18T08:28:39Z</time>
      </trkpt>
      <trkpt lat="44.70111" lon="4.87702">
        <ele>257</ele>
        <time>2022-08-18T08:29:09Z</time>
      </trkpt>
      <trkpt lat="44.70075" lon="4.87757">
        <ele>258</ele>
        <time>2022-08-18T08:29:19Z</time>
      </trkpt>
      <trkpt lat="44.70051" lon="4.87799">
        <ele>258</ele>
        <time>2022-08-18T08:29:26Z</time>
      </trkpt>
      <trkpt lat="44.70017" lon="4.8785">
        <ele>258</ele>
        <time>2022-08-18T08:29:36Z</time>
      </trkpt>
      <trkpt lat="44.6999" lon="4.87903">
        <ele>260</ele>
        <time>2022-08-18T08:29:46Z</time>
      </trkpt>
      <trkpt lat="44.69987" lon="4.87905">
        <ele>260</ele>
        <time>2022-08-18T08:29:47Z</time>
      </trkpt>
      <trkpt lat="44.69963" lon="4.87936">
        <ele>262</ele>
        <time>2022-08-18T08:29:55Z</time>
      </trkpt>
      <trkpt lat="44.69952" lon="4.87961">
        <ele>262</ele>
        <time>2022-08-18T08:30:00Z</time>
      </trkpt>
      <trkpt lat="44.69943" lon="4.87993">
        <ele>263</ele>
        <time>2022-08-18T08:30:06Z</time>
      </trkpt>
      <trkpt lat="44.69943" lon="4.87998">
        <ele>263</ele>
        <time>2022-08-18T08:30:07Z</time>
      </trkpt>
      <trkpt lat="44.69944" lon="4.88007">
        <ele>263</ele>
        <time>2022-08-18T08:30:09Z</time>
      </trkpt>
      <trkpt lat="44.69946" lon="4.88012">
        <ele>263</ele>
        <time>2022-08-18T08:30:10Z</time>
      </trkpt>
      <trkpt lat="44.69951" lon="4.88014">
        <ele>263</ele>
        <time>2022-08-18T08:30:11Z</time>
      </trkpt>
      <trkpt lat="44.69956" lon="4.88015">
        <ele>262</ele>
        <time>2022-08-18T08:30:12Z</time>
      </trkpt>
      <trkpt lat="44.69974" lon="4.88005">
        <ele>262</ele>
        <time>2022-08-18T08:30:16Z</time>
      </trkpt>
      <trkpt lat="44.69978" lon="4.88005">
        <ele>262</ele>
        <time>2022-08-18T08:30:17Z</time>
      </trkpt>
      <trkpt lat="44.69982" lon="4.88005">
        <ele>263</ele>
        <time>2022-08-18T08:30:18Z</time>
      </trkpt>
      <trkpt lat="44.7003" lon="4.88042">
        <ele>264</ele>
        <time>2022-08-18T08:30:34Z</time>
      </trkpt>
      <trkpt lat="44.70059" lon="4.88059">
        <ele>265</ele>
        <time>2022-08-18T08:30:44Z</time>
      </trkpt>
      <trkpt lat="44.7009" lon="4.88091">
        <ele>268</ele>
        <time>2022-08-18T08:31:00Z</time>
      </trkpt>
      <trkpt lat="44.7011" lon="4.88116">
        <ele>272</ele>
        <time>2022-08-18T08:31:12Z</time>
      </trkpt>
      <trkpt lat="44.70161" lon="4.88152">
        <ele>280</ele>
        <time>2022-08-18T08:31:42Z</time>
      </trkpt>
      <trkpt lat="44.70175" lon="4.88161">
        <ele>282</ele>
        <time>2022-08-18T08:31:51Z</time>
      </trkpt>
      <trkpt lat="44.70179" lon="4.88161">
        <ele>282</ele>
        <time>2022-08-18T08:31:53Z</time>
      </trkpt>
      <trkpt lat="44.70182" lon="4.88158">
        <ele>283</ele>
        <time>2022-08-18T08:31:55Z</time>
      </trkpt>
      <trkpt lat="44.70183" lon="4.88151">
        <ele>283</ele>
        <time>2022-08-18T08:31:57Z</time>
      </trkpt>
      <trkpt lat="44.7018" lon="4.88143">
        <ele>283</ele>
        <time>2022-08-18T08:31:59Z</time>
      </trkpt>
      <trkpt lat="44.7016" lon="4.88127">
        <ele>285</ele>
        <time>2022-08-18T08:32:07Z</time>
      </trkpt>
      <trkpt lat="44.70139" lon="4.88096">
        <ele>287</ele>
        <time>2022-08-18T08:32:21Z</time>
      </trkpt>
      <trkpt lat="44.70136" lon="4.88089">
        <ele>287</ele>
        <time>2022-08-18T08:32:23Z</time>
      </trkpt>
      <trkpt lat="44.70134" lon="4.88083">
        <ele>287</ele>
        <time>2022-08-18T08:32:25Z</time>
      </trkpt>
      <trkpt lat="44.70135" lon="4.88076">
        <ele>287</ele>
        <time>2022-08-18T08:32:27Z</time>
      </trkpt>
      <trkpt lat="44.70139" lon="4.88071">
        <ele>287</ele>
        <time>2022-08-18T08:32:29Z</time>
      </trkpt>
      <trkpt lat="44.7015" lon="4.88071">
        <ele>288</ele>
        <time>2022-08-18T08:32:33Z</time>
      </trkpt>
      <trkpt lat="44.70211" lon="4.88101">
        <ele>292</ele>
        <time>2022-08-18T08:32:57Z</time>
      </trkpt>
      <trkpt lat="44.70244" lon="4.88123">
        <ele>293</ele>
        <time>2022-08-18T08:33:09Z</time>
      </trkpt>
      <trkpt lat="44.70263" lon="4.88128">
        <ele>293</ele>
        <time>2022-08-18T08:33:15Z</time>
      </trkpt>
      <trkpt lat="44.70346" lon="4.88111">
        <ele>299</ele>
        <time>2022-08-18T08:33:45Z</time>
      </trkpt>
      <trkpt lat="44.7038" lon="4.88102">
        <ele>302</ele>
        <time>2022-08-18T08:33:59Z</time>
      </trkpt>
      <trkpt lat="44.70417" lon="4.88106">
        <ele>306</ele>
        <time>2022-08-18T08:34:15Z</time>
      </trkpt>
      <trkpt lat="44.70487" lon="4.8813">
        <ele>313</ele>
        <time>2022-08-18T08:34:45Z</time>
      </trkpt>
      <trkpt lat="44.70525" lon="4.88149">
        <ele>320</ele>
        <time>2022-08-18T08:35:05Z</time>
      </trkpt>
      <trkpt lat="44.70532" lon="4.88154">
        <ele>321</ele>
        <time>2022-08-18T08:35:09Z</time>
      </trkpt>
      <trkpt lat="44.70553" lon="4.88165">
        <ele>325</ele>
        <time>2022-08-18T08:35:21Z</time>
      </trkpt>
      <trkpt lat="44.70563" lon="4.88173">
        <ele>326</ele>
        <time>2022-08-18T08:35:27Z</time>
      </trkpt>
      <trkpt lat="44.70568" lon="4.88181">
        <ele>328</ele>
        <time>2022-08-18T08:35:31Z</time>
      </trkpt>
      <trkpt lat="44.70582" lon="4.88246">
        <ele>332</ele>
        <time>2022-08-18T08:35:51Z</time>
      </trkpt>
      <trkpt lat="44.70585" lon="4.88257">
        <ele>333</ele>
        <time>2022-08-18T08:35:55Z</time>
      </trkpt>
      <trkpt lat="44.70593" lon="4.8827">
        <ele>335</ele>
        <time>2022-08-18T08:36:01Z</time>
      </trkpt>
      <trkpt lat="44.70603" lon="4.88301">
        <ele>338</ele>
        <time>2022-08-18T08:36:13Z</time>
      </trkpt>
      <trkpt lat="44.70605" lon="4.88331">
        <ele>341</ele>
        <time>2022-08-18T08:36:23Z</time>
      </trkpt>
      <trkpt lat="44.70604" lon="4.88342">
        <ele>342</ele>
        <time>2022-08-18T08:36:27Z</time>
      </trkpt>
      <trkpt lat="44.70601" lon="4.88354">
        <ele>342</ele>
        <time>2022-08-18T08:36:31Z</time>
      </trkpt>
      <trkpt lat="44.7057" lon="4.88414">
        <ele>347</ele>
        <time>2022-08-18T08:36:53Z</time>
      </trkpt>
      <trkpt lat="44.70568" lon="4.88419">
        <ele>347</ele>
        <time>2022-08-18T08:36:55Z</time>
      </trkpt>
      <trkpt lat="44.70529" lon="4.88504">
        <ele>352</ele>
        <time>2022-08-18T08:37:25Z</time>
      </trkpt>
      <trkpt lat="44.70524" lon="4.88526">
        <ele>353</ele>
        <time>2022-08-18T08:37:31Z</time>
      </trkpt>
      <trkpt lat="44.70524" lon="4.88555">
        <ele>356</ele>
        <time>2022-08-18T08:37:39Z</time>
      </trkpt>
      <trkpt lat="44.70529" lon="4.88584">
        <ele>358</ele>
        <time>2022-08-18T08:37:49Z</time>
      </trkpt>
      <trkpt lat="44.70534" lon="4.88601">
        <ele>360</ele>
        <time>2022-08-18T08:37:55Z</time>
      </trkpt>
      <trkpt lat="44.70537" lon="4.88605">
        <ele>360</ele>
        <time>2022-08-18T08:37:57Z</time>
      </trkpt>
      <trkpt lat="44.70544" lon="4.88619">
        <ele>362</ele>
        <time>2022-08-18T08:38:03Z</time>
      </trkpt>
      <trkpt lat="44.7055" lon="4.88633">
        <ele>364</ele>
        <time>2022-08-18T08:38:09Z</time>
      </trkpt>
      <trkpt lat="44.70565" lon="4.88676">
        <ele>369</ele>
        <time>2022-08-18T08:38:30Z</time>
      </trkpt>
      <trkpt lat="44.70565" lon="4.88687">
        <ele>371</ele>
        <time>2022-08-18T08:38:34Z</time>
      </trkpt>
      <trkpt lat="44.70575" lon="4.88717">
        <ele>375</ele>
        <time>2022-08-18T08:38:48Z</time>
      </trkpt>
      <trkpt lat="44.70582" lon="4.8873">
        <ele>377</ele>
        <time>2022-08-18T08:38:54Z</time>
      </trkpt>
      <trkpt lat="44.70588" lon="4.88737">
        <ele>378</ele>
        <time>2022-08-18T08:38:58Z</time>
      </trkpt>
      <trkpt lat="44.70592" lon="4.88741">
        <ele>379</ele>
        <time>2022-08-18T08:39:00Z</time>
      </trkpt>
      <trkpt lat="44.70602" lon="4.88751">
        <ele>380</ele>
        <time>2022-08-18T08:39:06Z</time>
      </trkpt>
      <trkpt lat="44.70648" lon="4.88789">
        <ele>388</ele>
        <time>2022-08-18T08:39:32Z</time>
      </trkpt>
      <trkpt lat="44.70658" lon="4.88801">
        <ele>389</ele>
        <time>2022-08-18T08:39:38Z</time>
      </trkpt>
      <trkpt lat="44.70671" lon="4.88809">
        <ele>390</ele>
        <time>2022-08-18T08:39:44Z</time>
      </trkpt>
      <trkpt lat="44.70752" lon="4.88827">
        <ele>394</ele>
        <time>2022-08-18T08:40:15Z</time>
      </trkpt>
      <trkpt lat="44.70884" lon="4.88871">
        <ele>391</ele>
        <time>2022-08-18T08:40:45Z</time>
      </trkpt>
      <trkpt lat="44.70904" lon="4.88878">
        <ele>389</ele>
        <time>2022-08-18T08:40:48Z</time>
      </trkpt>
      <trkpt lat="44.70987" lon="4.88945">
        <ele>387</ele>
        <time>2022-08-18T08:41:01Z</time>
      </trkpt>
      <trkpt lat="44.71131" lon="4.88998">
        <ele>380</ele>
        <time>2022-08-18T08:41:21Z</time>
      </trkpt>
      <trkpt lat="44.71176" lon="4.89002">
        <ele>378</ele>
        <time>2022-08-18T08:41:26Z</time>
      </trkpt>
      <trkpt lat="44.71282" lon="4.89043">
        <ele>372</ele>
        <time>2022-08-18T08:41:37Z</time>
      </trkpt>
      <trkpt lat="44.71312" lon="4.89042">
        <ele>370</ele>
        <time>2022-08-18T08:41:40Z</time>
      </trkpt>
      <trkpt lat="44.71413" lon="4.88999">
        <ele>359</ele>
        <time>2022-08-18T08:41:50Z</time>
      </trkpt>
      <trkpt lat="44.71436" lon="4.89002">
        <ele>356</ele>
        <time>2022-08-18T08:41:52Z</time>
      </trkpt>
      <trkpt lat="44.71492" lon="4.89025">
        <ele>349</ele>
        <time>2022-08-18T08:41:57Z</time>
      </trkpt>
      <trkpt lat="44.71515" lon="4.89024">
        <ele>346</ele>
        <time>2022-08-18T08:41:59Z</time>
      </trkpt>
      <trkpt lat="44.71601" lon="4.8897">
        <ele>334</ele>
        <time>2022-08-18T08:42:07Z</time>
      </trkpt>
      <trkpt lat="44.71613" lon="4.88966">
        <ele>333</ele>
        <time>2022-08-18T08:42:08Z</time>
      </trkpt>
      <trkpt lat="44.71635" lon="4.88968">
        <ele>332</ele>
        <time>2022-08-18T08:42:10Z</time>
      </trkpt>
      <trkpt lat="44.71683" lon="4.88997">
        <ele>329</ele>
        <time>2022-08-18T08:42:15Z</time>
      </trkpt>
      <trkpt lat="44.71728" lon="4.89048">
        <ele>323</ele>
        <time>2022-08-18T08:42:21Z</time>
      </trkpt>
      <trkpt lat="44.71991" lon="4.89167">
        <ele>301</ele>
        <time>2022-08-18T08:42:51Z</time>
      </trkpt>
      <trkpt lat="44.72044" lon="4.89203">
        <ele>294</ele>
        <time>2022-08-18T08:42:57Z</time>
      </trkpt>
      <trkpt lat="44.72064" lon="4.8921">
        <ele>292</ele>
        <time>2022-08-18T08:42:59Z</time>
      </trkpt>
      <trkpt lat="44.72103" lon="4.89206">
        <ele>291</ele>
        <time>2022-08-18T08:43:03Z</time>
      </trkpt>
      <trkpt lat="44.72163" lon="4.89179">
        <ele>290</ele>
        <time>2022-08-18T08:43:11Z</time>
      </trkpt>
      <trkpt lat="44.72179" lon="4.89163">
        <ele>290</ele>
        <time>2022-08-18T08:43:14Z</time>
      </trkpt>
      <trkpt lat="44.72191" lon="4.89146">
        <ele>290</ele>
        <time>2022-08-18T08:43:17Z</time>
      </trkpt>
      <trkpt lat="44.72198" lon="4.89139">
        <ele>290</ele>
        <time>2022-08-18T08:43:19Z</time>
      </trkpt>
      <trkpt lat="44.72202" lon="4.89138">
        <ele>290</ele>
        <time>2022-08-18T08:43:20Z</time>
      </trkpt>
      <trkpt lat="44.72206" lon="4.89139">
        <ele>290</ele>
        <time>2022-08-18T08:43:21Z</time>
      </trkpt>
      <trkpt lat="44.7221" lon="4.89141">
        <ele>290</ele>
        <time>2022-08-18T08:43:22Z</time>
      </trkpt>
      <trkpt lat="44.72213" lon="4.89146">
        <ele>289</ele>
        <time>2022-08-18T08:43:23Z</time>
      </trkpt>
      <trkpt lat="44.72246" lon="4.89278">
        <ele>278</ele>
        <time>2022-08-18T08:43:36Z</time>
      </trkpt>
      <trkpt lat="44.7225" lon="4.89289">
        <ele>277</ele>
        <time>2022-08-18T08:43:37Z</time>
      </trkpt>
      <trkpt lat="44.72256" lon="4.893">
        <ele>276</ele>
        <time>2022-08-18T08:43:38Z</time>
      </trkpt>
      <trkpt lat="44.72264" lon="4.89307">
        <ele>275</ele>
        <time>2022-08-18T08:43:39Z</time>
      </trkpt>
      <trkpt lat="44.72299" lon="4.89319">
        <ele>273</ele>
        <time>2022-08-18T08:43:43Z</time>
      </trkpt>
      <trkpt lat="44.72306" lon="4.89324">
        <ele>273</ele>
        <time>2022-08-18T08:43:44Z</time>
      </trkpt>
      <trkpt lat="44.72312" lon="4.89331">
        <ele>273</ele>
        <time>2022-08-18T08:43:45Z</time>
      </trkpt>
      <trkpt lat="44.72317" lon="4.89351">
        <ele>272</ele>
        <time>2022-08-18T08:43:47Z</time>
      </trkpt>
      <trkpt lat="44.72322" lon="4.89393">
        <ele>269</ele>
        <time>2022-08-18T08:43:51Z</time>
      </trkpt>
      <trkpt lat="44.72336" lon="4.89454">
        <ele>263</ele>
        <time>2022-08-18T08:43:57Z</time>
      </trkpt>
      <trkpt lat="44.72337" lon="4.89539">
        <ele>256</ele>
        <time>2022-08-18T08:44:04Z</time>
      </trkpt>
      <trkpt lat="44.72342" lon="4.89565">
        <ele>253</ele>
        <time>2022-08-18T08:44:06Z</time>
      </trkpt>
      <trkpt lat="44.72379" lon="4.8967">
        <ele>243</ele>
        <time>2022-08-18T08:44:15Z</time>
      </trkpt>
      <trkpt lat="44.72381" lon="4.89681">
        <ele>242</ele>
        <time>2022-08-18T08:44:16Z</time>
      </trkpt>
      <trkpt lat="44.72388" lon="4.89874">
        <ele>222</ele>
        <time>2022-08-18T08:44:31Z</time>
      </trkpt>
      <trkpt lat="44.7242" lon="4.90068">
        <ele>204</ele>
        <time>2022-08-18T08:44:45Z</time>
      </trkpt>
      <trkpt lat="44.72424" lon="4.90075">
        <ele>204</ele>
        <time>2022-08-18T08:44:46Z</time>
      </trkpt>
      <trkpt lat="44.7243" lon="4.9008">
        <ele>204</ele>
        <time>2022-08-18T08:44:47Z</time>
      </trkpt>
      <trkpt lat="44.72452" lon="4.90082">
        <ele>204</ele>
        <time>2022-08-18T08:44:51Z</time>
      </trkpt>
      <trkpt lat="44.72458" lon="4.90084">
        <ele>204</ele>
        <time>2022-08-18T08:44:52Z</time>
      </trkpt>
      <trkpt lat="44.72468" lon="4.90093">
        <ele>203</ele>
        <time>2022-08-18T08:44:54Z</time>
      </trkpt>
      <trkpt lat="44.72477" lon="4.90109">
        <ele>202</ele>
        <time>2022-08-18T08:44:56Z</time>
      </trkpt>
      <trkpt lat="44.72495" lon="4.9018">
        <ele>203</ele>
        <time>2022-08-18T08:45:05Z</time>
      </trkpt>
      <trkpt lat="44.72496" lon="4.90185">
        <ele>204</ele>
        <time>2022-08-18T08:45:06Z</time>
      </trkpt>
      <trkpt lat="44.72499" lon="4.90202">
        <ele>205</ele>
        <time>2022-08-18T08:45:11Z</time>
      </trkpt>
      <trkpt lat="44.72509" lon="4.9029">
        <ele>210</ele>
        <time>2022-08-18T08:45:35Z</time>
      </trkpt>
      <trkpt lat="44.72514" lon="4.90304">
        <ele>210</ele>
        <time>2022-08-18T08:45:38Z</time>
      </trkpt>
      <trkpt lat="44.72519" lon="4.90312">
        <ele>210</ele>
        <time>2022-08-18T08:45:40Z</time>
      </trkpt>
      <trkpt lat="44.72564" lon="4.90359">
        <ele>210</ele>
        <time>2022-08-18T08:45:54Z</time>
      </trkpt>
      <trkpt lat="44.72642" lon="4.90478">
        <ele>215</ele>
        <time>2022-08-18T08:46:24Z</time>
      </trkpt>
      <trkpt lat="44.72729" lon="4.90589">
        <ele>219</ele>
        <time>2022-08-18T08:46:54Z</time>
      </trkpt>
      <trkpt lat="44.72741" lon="4.90605">
        <ele>220</ele>
        <time>2022-08-18T08:47:00Z</time>
      </trkpt>
      <trkpt lat="44.72783" lon="4.90702">
        <ele>228</ele>
        <time>2022-08-18T08:47:30Z</time>
      </trkpt>
      <trkpt lat="44.72804" lon="4.90783">
        <ele>234</ele>
        <time>2022-08-18T08:47:58Z</time>
      </trkpt>
      <trkpt lat="44.72807" lon="4.90787">
        <ele>235</ele>
        <time>2022-08-18T08:48:00Z</time>
      </trkpt>
      <trkpt lat="44.72834" lon="4.90806">
        <ele>234</ele>
        <time>2022-08-18T08:48:09Z</time>
      </trkpt>
      <trkpt lat="44.72886" lon="4.90903">
        <ele>226</ele>
        <time>2022-08-18T08:48:23Z</time>
      </trkpt>
      <trkpt lat="44.72939" lon="4.91023">
        <ele>216</ele>
        <time>2022-08-18T08:48:35Z</time>
      </trkpt>
      <trkpt lat="44.72982" lon="4.91074">
        <ele>210</ele>
        <time>2022-08-18T08:48:41Z</time>
      </trkpt>
      <trkpt lat="44.72998" lon="4.91107">
        <ele>206</ele>
        <time>2022-08-18T08:48:44Z</time>
      </trkpt>
      <trkpt lat="44.73018" lon="4.91197">
        <ele>203</ele>
        <time>2022-08-18T08:48:51Z</time>
      </trkpt>
      <trkpt lat="44.7302" lon="4.91238">
        <ele>202</ele>
        <time>2022-08-18T08:48:55Z</time>
      </trkpt>
      <trkpt lat="44.73024" lon="4.9125">
        <ele>201</ele>
        <time>2022-08-18T08:48:57Z</time>
      </trkpt>
      <trkpt lat="44.73028" lon="4.91255">
        <ele>201</ele>
        <time>2022-08-18T08:48:58Z</time>
      </trkpt>
      <trkpt lat="44.73087" lon="4.91284">
        <ele>198</ele>
        <time>2022-08-18T08:49:09Z</time>
      </trkpt>
      <trkpt lat="44.731" lon="4.91288">
        <ele>197</ele>
        <time>2022-08-18T08:49:11Z</time>
      </trkpt>
      <trkpt lat="44.7321" lon="4.91297">
        <ele>187</ele>
        <time>2022-08-18T08:49:25Z</time>
      </trkpt>
      <trkpt lat="44.7326" lon="4.91313">
        <ele>185</ele>
        <time>2022-08-18T08:49:31Z</time>
      </trkpt>
      <trkpt lat="44.73266" lon="4.91317">
        <ele>184</ele>
        <time>2022-08-18T08:49:32Z</time>
      </trkpt>
      <trkpt lat="44.73272" lon="4.91322">
        <ele>184</ele>
        <time>2022-08-18T08:49:33Z</time>
      </trkpt>
      <trkpt lat="44.73274" lon="4.91329">
        <ele>183</ele>
        <time>2022-08-18T08:49:34Z</time>
      </trkpt>
      <trkpt lat="44.73274" lon="4.91337">
        <ele>183</ele>
        <time>2022-08-18T08:49:35Z</time>
      </trkpt>
      <trkpt lat="44.73244" lon="4.91414">
        <ele>181</ele>
        <time>2022-08-18T08:49:44Z</time>
      </trkpt>
      <trkpt lat="44.73219" lon="4.91464">
        <ele>180</ele>
        <time>2022-08-18T08:49:50Z</time>
      </trkpt>
      <trkpt lat="44.7319" lon="4.91558">
        <ele>175</ele>
        <time>2022-08-18T08:50:00Z</time>
      </trkpt>
      <trkpt lat="44.73181" lon="4.91577">
        <ele>174</ele>
        <time>2022-08-18T08:50:02Z</time>
      </trkpt>
      <trkpt lat="44.73172" lon="4.9161">
        <ele>172</ele>
        <time>2022-08-18T08:50:05Z</time>
      </trkpt>
      <trkpt lat="44.7317" lon="4.91634">
        <ele>171</ele>
        <time>2022-08-18T08:50:07Z</time>
      </trkpt>
      <trkpt lat="44.73171" lon="4.91646">
        <ele>170</ele>
        <time>2022-08-18T08:50:08Z</time>
      </trkpt>
      <trkpt lat="44.73188" lon="4.91687">
        <ele>167</ele>
        <time>2022-08-18T08:50:12Z</time>
      </trkpt>
      <trkpt lat="44.7319" lon="4.91699">
        <ele>166</ele>
        <time>2022-08-18T08:50:13Z</time>
      </trkpt>
      <trkpt lat="44.73191" lon="4.91711">
        <ele>165</ele>
        <time>2022-08-18T08:50:14Z</time>
      </trkpt>
      <trkpt lat="44.73185" lon="4.91736">
        <ele>163</ele>
        <time>2022-08-18T08:50:16Z</time>
      </trkpt>
      <trkpt lat="44.73159" lon="4.91808">
        <ele>159</ele>
        <time>2022-08-18T08:50:22Z</time>
      </trkpt>
      <trkpt lat="44.73153" lon="4.91847">
        <ele>158</ele>
        <time>2022-08-18T08:50:25Z</time>
      </trkpt>
      <trkpt lat="44.7315" lon="4.91914">
        <ele>156</ele>
        <time>2022-08-18T08:50:31Z</time>
      </trkpt>
      <trkpt lat="44.73148" lon="4.91922">
        <ele>156</ele>
        <time>2022-08-18T08:50:32Z</time>
      </trkpt>
      <trkpt lat="44.73141" lon="4.91935">
        <ele>156</ele>
        <time>2022-08-18T08:50:34Z</time>
      </trkpt>
      <trkpt lat="44.73081" lon="4.92007">
        <ele>155</ele>
        <time>2022-08-18T08:50:48Z</time>
      </trkpt>
      <trkpt lat="44.73072" lon="4.92012">
        <ele>155</ele>
        <time>2022-08-18T08:50:50Z</time>
      </trkpt>
      <trkpt lat="44.73068" lon="4.92016">
        <ele>156</ele>
        <time>2022-08-18T08:50:51Z</time>
      </trkpt>
      <trkpt lat="44.73064" lon="4.92018">
        <ele>156</ele>
        <time>2022-08-18T08:50:52Z</time>
      </trkpt>
      <trkpt lat="44.73058" lon="4.92021">
        <ele>157</ele>
        <time>2022-08-18T08:50:54Z</time>
      </trkpt>
      <trkpt lat="44.73049" lon="4.92027">
        <ele>158</ele>
        <time>2022-08-18T08:50:57Z</time>
      </trkpt>
      <trkpt lat="44.73019" lon="4.92038">
        <ele>160</ele>
        <time>2022-08-18T08:51:06Z</time>
      </trkpt>
      <trkpt lat="44.73016" lon="4.9204">
        <ele>160</ele>
        <time>2022-08-18T08:51:07Z</time>
      </trkpt>
      <trkpt lat="44.73014" lon="4.92044">
        <ele>160</ele>
        <time>2022-08-18T08:51:08Z</time>
      </trkpt>
      <trkpt lat="44.73014" lon="4.92053">
        <ele>161</ele>
        <time>2022-08-18T08:51:10Z</time>
      </trkpt>
      <trkpt lat="44.7302" lon="4.92083">
        <ele>160</ele>
        <time>2022-08-18T08:51:16Z</time>
      </trkpt>
      <trkpt lat="44.73029" lon="4.92109">
        <ele>160</ele>
        <time>2022-08-18T08:51:20Z</time>
      </trkpt>
      <trkpt lat="44.73045" lon="4.92184">
        <ele>166</ele>
        <time>2022-08-18T08:51:39Z</time>
      </trkpt>
      <trkpt lat="44.73046" lon="4.9219">
        <ele>167</ele>
        <time>2022-08-18T08:51:41Z</time>
      </trkpt>
      <trkpt lat="44.73052" lon="4.92214">
        <ele>169</ele>
        <time>2022-08-18T08:51:49Z</time>
      </trkpt>
      <trkpt lat="44.73059" lon="4.92224">
        <ele>169</ele>
        <time>2022-08-18T08:51:53Z</time>
      </trkpt>
      <trkpt lat="44.73068" lon="4.92233">
        <ele>169</ele>
        <time>2022-08-18T08:51:57Z</time>
      </trkpt>
      <trkpt lat="44.73109" lon="4.9229">
        <ele>177</ele>
        <time>2022-08-18T08:52:17Z</time>
      </trkpt>
      <trkpt lat="44.73126" lon="4.92304">
        <ele>178</ele>
        <time>2022-08-18T08:52:25Z</time>
      </trkpt>
      <trkpt lat="44.73135" lon="4.92319">
        <ele>179</ele>
        <time>2022-08-18T08:52:31Z</time>
      </trkpt>
      <trkpt lat="44.73137" lon="4.92323">
        <ele>179</ele>
        <time>2022-08-18T08:52:33Z</time>
      </trkpt>
      <trkpt lat="44.7314" lon="4.92327">
        <ele>179</ele>
        <time>2022-08-18T08:52:35Z</time>
      </trkpt>
      <trkpt lat="44.73148" lon="4.92328">
        <ele>181</ele>
        <time>2022-08-18T08:52:39Z</time>
      </trkpt>
      <trkpt lat="44.73151" lon="4.92331">
        <ele>182</ele>
        <time>2022-08-18T08:52:41Z</time>
      </trkpt>
      <trkpt lat="44.73174" lon="4.92387">
        <ele>185</ele>
        <time>2022-08-18T08:52:57Z</time>
      </trkpt>
      <trkpt lat="44.73198" lon="4.92439">
        <ele>187</ele>
        <time>2022-08-18T08:53:11Z</time>
      </trkpt>
      <trkpt lat="44.732" lon="4.92445">
        <ele>187</ele>
        <time>2022-08-18T08:53:13Z</time>
      </trkpt>
      <trkpt lat="44.73194" lon="4.92463">
        <ele>186</ele>
        <time>2022-08-18T08:53:19Z</time>
      </trkpt>
      <trkpt lat="44.73194" lon="4.92469">
        <ele>186</ele>
        <time>2022-08-18T08:53:22Z</time>
      </trkpt>
      <trkpt lat="44.73197" lon="4.92473">
        <ele>186</ele>
        <time>2022-08-18T08:53:24Z</time>
      </trkpt>
      <trkpt lat="44.732" lon="4.92478">
        <ele>186</ele>
        <time>2022-08-18T08:53:27Z</time>
      </trkpt>
      <trkpt lat="44.73201" lon="4.92482">
        <ele>186</ele>
        <time>2022-08-18T08:53:29Z</time>
      </trkpt>
      <trkpt lat="44.73199" lon="4.92486">
        <ele>186</ele>
        <time>2022-08-18T08:53:42Z</time>
      </trkpt>
      <trkpt lat="44.73199" lon="4.92491">
        <ele>184</ele>
        <time>2022-08-18T08:54:09Z</time>
      </trkpt>
      <trkpt lat="44.73196" lon="4.92494">
        <ele>184</ele>
        <time>2022-08-18T08:54:13Z</time>
      </trkpt>
      <trkpt lat="44.73193" lon="4.92497">
        <ele>183</ele>
        <time>2022-08-18T08:54:16Z</time>
      </trkpt>
      <trkpt lat="44.73196" lon="4.92501">
        <ele>183</ele>
        <time>2022-08-18T08:54:23Z</time>
      </trkpt>
      <trkpt lat="44.73195" lon="4.92503">
        <ele>189</ele>
        <time>2022-08-18T08:55:13Z</time>
      </trkpt>
      <trkpt lat="44.73194" lon="4.92497">
        <ele>189</ele>
        <time>2022-08-18T08:55:16Z</time>
      </trkpt>
      <trkpt lat="44.73192" lon="4.92493">
        <ele>187</ele>
        <time>2022-08-18T08:55:20Z</time>
      </trkpt>
      <trkpt lat="44.73195" lon="4.92489">
        <ele>185</ele>
        <time>2022-08-18T08:55:26Z</time>
      </trkpt>
      <trkpt lat="44.73197" lon="4.92493">
        <ele>182</ele>
        <time>2022-08-18T08:56:30Z</time>
      </trkpt>
      <trkpt lat="44.732" lon="4.9249">
        <ele>182</ele>
        <time>2022-08-18T09:06:47Z</time>
      </trkpt>
      <trkpt lat="44.73202" lon="4.92485">
        <ele>181</ele>
        <time>2022-08-18T09:06:51Z</time>
      </trkpt>
      <trkpt lat="44.73201" lon="4.9248">
        <ele>181</ele>
        <time>2022-08-18T09:07:58Z</time>
      </trkpt>
      <trkpt lat="44.73199" lon="4.92475">
        <ele>181</ele>
        <time>2022-08-18T09:08:01Z</time>
      </trkpt>
      <trkpt lat="44.73196" lon="4.92474">
        <ele>182</ele>
        <time>2022-08-18T09:08:05Z</time>
      </trkpt>
      <trkpt lat="44.73191" lon="4.92472">
        <ele>182</ele>
        <time>2022-08-18T09:08:13Z</time>
      </trkpt>
      <trkpt lat="44.73187" lon="4.92477">
        <ele>182</ele>
        <time>2022-08-18T09:08:15Z</time>
      </trkpt>
      <trkpt lat="44.73179" lon="4.92504">
        <ele>183</ele>
        <time>2022-08-18T09:08:21Z</time>
      </trkpt>
      <trkpt lat="44.73175" lon="4.92513">
        <ele>183</ele>
        <time>2022-08-18T09:08:23Z</time>
      </trkpt>
      <trkpt lat="44.73164" lon="4.92544">
        <ele>184</ele>
        <time>2022-08-18T09:08:31Z</time>
      </trkpt>
      <trkpt lat="44.73161" lon="4.9255">
        <ele>184</ele>
        <time>2022-08-18T09:08:33Z</time>
      </trkpt>
      <trkpt lat="44.73156" lon="4.92553">
        <ele>185</ele>
        <time>2022-08-18T09:08:35Z</time>
      </trkpt>
      <trkpt lat="44.73152" lon="4.92552">
        <ele>185</ele>
        <time>2022-08-18T09:08:37Z</time>
      </trkpt>
      <trkpt lat="44.73131" lon="4.92544">
        <ele>186</ele>
        <time>2022-08-18T09:08:45Z</time>
      </trkpt>
      <trkpt lat="44.73045" lon="4.92502">
        <ele>190</ele>
        <time>2022-08-18T09:09:15Z</time>
      </trkpt>
      <trkpt lat="44.73" lon="4.92487">
        <ele>192</ele>
        <time>2022-08-18T09:09:28Z</time>
      </trkpt>
      <trkpt lat="44.72889" lon="4.92478">
        <ele>195</ele>
        <time>2022-08-18T09:09:58Z</time>
      </trkpt>
      <trkpt lat="44.7284" lon="4.92478">
        <ele>197</ele>
        <time>2022-08-18T09:10:12Z</time>
      </trkpt>
      <trkpt lat="44.72827" lon="4.92485">
        <ele>198</ele>
        <time>2022-08-18T09:10:16Z</time>
      </trkpt>
      <trkpt lat="44.72818" lon="4.92492">
        <ele>198</ele>
        <time>2022-08-18T09:10:19Z</time>
      </trkpt>
      <trkpt lat="44.72802" lon="4.92516">
        <ele>199</ele>
        <time>2022-08-18T09:10:25Z</time>
      </trkpt>
      <trkpt lat="44.72794" lon="4.92537">
        <ele>199</ele>
        <time>2022-08-18T09:10:29Z</time>
      </trkpt>
      <trkpt lat="44.72775" lon="4.92613">
        <ele>199</ele>
        <time>2022-08-18T09:10:42Z</time>
      </trkpt>
      <trkpt lat="44.72767" lon="4.92629">
        <ele>199</ele>
        <time>2022-08-18T09:10:45Z</time>
      </trkpt>
      <trkpt lat="44.72749" lon="4.92651">
        <ele>200</ele>
        <time>2022-08-18T09:10:50Z</time>
      </trkpt>
      <trkpt lat="44.72736" lon="4.92659">
        <ele>201</ele>
        <time>2022-08-18T09:10:53Z</time>
      </trkpt>
      <trkpt lat="44.72708" lon="4.92667">
        <ele>201</ele>
        <time>2022-08-18T09:10:59Z</time>
      </trkpt>
      <trkpt lat="44.72652" lon="4.92663">
        <ele>202</ele>
        <time>2022-08-18T09:11:12Z</time>
      </trkpt>
      <trkpt lat="44.72632" lon="4.92656">
        <ele>203</ele>
        <time>2022-08-18T09:11:17Z</time>
      </trkpt>
      <trkpt lat="44.72536" lon="4.92595">
        <ele>208</ele>
        <time>2022-08-18T09:11:42Z</time>
      </trkpt>
      <trkpt lat="44.72498" lon="4.92594">
        <ele>210</ele>
        <time>2022-08-18T09:11:51Z</time>
      </trkpt>
      <trkpt lat="44.72435" lon="4.92601">
        <ele>211</ele>
        <time>2022-08-18T09:12:05Z</time>
      </trkpt>
      <trkpt lat="44.72395" lon="4.9262">
        <ele>210</ele>
        <time>2022-08-18T09:12:15Z</time>
      </trkpt>
      <trkpt lat="44.72386" lon="4.92621">
        <ele>210</ele>
        <time>2022-08-18T09:12:17Z</time>
      </trkpt>
      <trkpt lat="44.72226" lon="4.92586">
        <ele>207</ele>
        <time>2022-08-18T09:12:47Z</time>
      </trkpt>
      <trkpt lat="44.72008" lon="4.92547">
        <ele>204</ele>
        <time>2022-08-18T09:13:17Z</time>
      </trkpt>
      <trkpt lat="44.71898" lon="4.92532">
        <ele>202</ele>
        <time>2022-08-18T09:13:30Z</time>
      </trkpt>
      <trkpt lat="44.71777" lon="4.92561">
        <ele>198</ele>
        <time>2022-08-18T09:13:44Z</time>
      </trkpt>
      <trkpt lat="44.71745" lon="4.92582">
        <ele>198</ele>
        <time>2022-08-18T09:13:48Z</time>
      </trkpt>
      <trkpt lat="44.71628" lon="4.92694">
        <ele>192</ele>
        <time>2022-08-18T09:14:04Z</time>
      </trkpt>
      <trkpt lat="44.71595" lon="4.92713">
        <ele>192</ele>
        <time>2022-08-18T09:14:08Z</time>
      </trkpt>
      <trkpt lat="44.71578" lon="4.92717">
        <ele>191</ele>
        <time>2022-08-18T09:14:10Z</time>
      </trkpt>
      <trkpt lat="44.71461" lon="4.92692">
        <ele>186</ele>
        <time>2022-08-18T09:14:24Z</time>
      </trkpt>
      <trkpt lat="44.7143" lon="4.92672">
        <ele>185</ele>
        <time>2022-08-18T09:14:28Z</time>
      </trkpt>
      <trkpt lat="44.71393" lon="4.92643">
        <ele>183</ele>
        <time>2022-08-18T09:14:33Z</time>
      </trkpt>
      <trkpt lat="44.71362" lon="4.92629">
        <ele>183</ele>
        <time>2022-08-18T09:14:37Z</time>
      </trkpt>
      <trkpt lat="44.7131" lon="4.92628">
        <ele>182</ele>
        <time>2022-08-18T09:14:43Z</time>
      </trkpt>
      <trkpt lat="44.71217" lon="4.92655">
        <ele>183</ele>
        <time>2022-08-18T09:14:54Z</time>
      </trkpt>
      <trkpt lat="44.71165" lon="4.92683">
        <ele>185</ele>
        <time>2022-08-18T09:15:01Z</time>
      </trkpt>
      <trkpt lat="44.71117" lon="4.92721">
        <ele>186</ele>
        <time>2022-08-18T09:15:09Z</time>
      </trkpt>
      <trkpt lat="44.71055" lon="4.9274">
        <ele>187</ele>
        <time>2022-08-18T09:15:19Z</time>
      </trkpt>
      <trkpt lat="44.70906" lon="4.92754">
        <ele>188</ele>
        <time>2022-08-18T09:15:43Z</time>
      </trkpt>
      <trkpt lat="44.70744" lon="4.92821">
        <ele>192</ele>
        <time>2022-08-18T09:16:13Z</time>
      </trkpt>
      <trkpt lat="44.7071" lon="4.92834">
        <ele>192</ele>
        <time>2022-08-18T09:16:19Z</time>
      </trkpt>
      <trkpt lat="44.70685" lon="4.92835">
        <ele>192</ele>
        <time>2022-08-18T09:16:23Z</time>
      </trkpt>
      <trkpt lat="44.70596" lon="4.92816">
        <ele>194</ele>
        <time>2022-08-18T09:16:39Z</time>
      </trkpt>
      <trkpt lat="44.7045" lon="4.9285">
        <ele>195</ele>
        <time>2022-08-18T09:17:03Z</time>
      </trkpt>
      <trkpt lat="44.70432" lon="4.92863">
        <ele>195</ele>
        <time>2022-08-18T09:17:06Z</time>
      </trkpt>
      <trkpt lat="44.70363" lon="4.9294">
        <ele>197</ele>
        <time>2022-08-18T09:17:20Z</time>
      </trkpt>
      <trkpt lat="44.70329" lon="4.92962">
        <ele>197</ele>
        <time>2022-08-18T09:17:26Z</time>
      </trkpt>
      <trkpt lat="44.7028" lon="4.92972">
        <ele>198</ele>
        <time>2022-08-18T09:17:34Z</time>
      </trkpt>
      <trkpt lat="44.70105" lon="4.9296">
        <ele>200</ele>
        <time>2022-08-18T09:18:04Z</time>
      </trkpt>
      <trkpt lat="44.70066" lon="4.9296">
        <ele>201</ele>
        <time>2022-08-18T09:18:10Z</time>
      </trkpt>
      <trkpt lat="44.70045" lon="4.92968">
        <ele>201</ele>
        <time>2022-08-18T09:18:13Z</time>
      </trkpt>
      <trkpt lat="44.70019" lon="4.9299">
        <ele>200</ele>
        <time>2022-08-18T09:18:17Z</time>
      </trkpt>
      <trkpt lat="44.69849" lon="4.93188">
        <ele>201</ele>
        <time>2022-08-18T09:18:47Z</time>
      </trkpt>
      <trkpt lat="44.69789" lon="4.93276">
        <ele>201</ele>
        <time>2022-08-18T09:19:01Z</time>
      </trkpt>
      <trkpt lat="44.69762" lon="4.93298">
        <ele>203</ele>
        <time>2022-08-18T09:19:06Z</time>
      </trkpt>
      <trkpt lat="44.69663" lon="4.93352">
        <ele>204</ele>
        <time>2022-08-18T09:19:24Z</time>
      </trkpt>
      <trkpt lat="44.69571" lon="4.93361">
        <ele>205</ele>
        <time>2022-08-18T09:19:40Z</time>
      </trkpt>
      <trkpt lat="44.69489" lon="4.93361">
        <ele>206</ele>
        <time>2022-08-18T09:19:55Z</time>
      </trkpt>
      <trkpt lat="44.69483" lon="4.93362">
        <ele>206</ele>
        <time>2022-08-18T09:19:56Z</time>
      </trkpt>
      <trkpt lat="44.69472" lon="4.93369">
        <ele>207</ele>
        <time>2022-08-18T09:19:58Z</time>
      </trkpt>
      <trkpt lat="44.69464" lon="4.9338">
        <ele>207</ele>
        <time>2022-08-18T09:20:00Z</time>
      </trkpt>
      <trkpt lat="44.69461" lon="4.93386">
        <ele>207</ele>
        <time>2022-08-18T09:20:01Z</time>
      </trkpt>
      <trkpt lat="44.69457" lon="4.934">
        <ele>208</ele>
        <time>2022-08-18T09:20:03Z</time>
      </trkpt>
      <trkpt lat="44.69457" lon="4.93421">
        <ele>209</ele>
        <time>2022-08-18T09:20:06Z</time>
      </trkpt>
      <trkpt lat="44.69468" lon="4.93512">
        <ele>213</ele>
        <time>2022-08-18T09:20:22Z</time>
      </trkpt>
      <trkpt lat="44.69465" lon="4.93542">
        <ele>213</ele>
        <time>2022-08-18T09:20:28Z</time>
      </trkpt>
      <trkpt lat="44.69421" lon="4.93678">
        <ele>221</ele>
        <time>2022-08-18T09:20:58Z</time>
      </trkpt>
      <trkpt lat="44.69411" lon="4.93699">
        <ele>222</ele>
        <time>2022-08-18T09:21:03Z</time>
      </trkpt>
      <trkpt lat="44.69337" lon="4.93804">
        <ele>227</ele>
        <time>2022-08-18T09:21:33Z</time>
      </trkpt>
      <trkpt lat="44.69256" lon="4.93901">
        <ele>233</ele>
        <time>2022-08-18T09:22:04Z</time>
      </trkpt>
      <trkpt lat="44.69189" lon="4.93955">
        <ele>239</ele>
        <time>2022-08-18T09:22:26Z</time>
      </trkpt>
      <trkpt lat="44.69168" lon="4.93992">
        <ele>240</ele>
        <time>2022-08-18T09:22:35Z</time>
      </trkpt>
      <trkpt lat="44.6913" lon="4.94094">
        <ele>245</ele>
        <time>2022-08-18T09:22:58Z</time>
      </trkpt>
      <trkpt lat="44.69111" lon="4.94115">
        <ele>246</ele>
        <time>2022-08-18T09:23:05Z</time>
      </trkpt>
      <trkpt lat="44.69091" lon="4.94134">
        <ele>247</ele>
        <time>2022-08-18T09:23:12Z</time>
      </trkpt>
      <trkpt lat="44.69073" lon="4.94159">
        <ele>248</ele>
        <time>2022-08-18T09:23:19Z</time>
      </trkpt>
      <trkpt lat="44.69047" lon="4.94202">
        <ele>250</ele>
        <time>2022-08-18T09:23:30Z</time>
      </trkpt>
      <trkpt lat="44.69041" lon="4.94209">
        <ele>251</ele>
        <time>2022-08-18T09:23:32Z</time>
      </trkpt>
      <trkpt lat="44.69034" lon="4.94214">
        <ele>251</ele>
        <time>2022-08-18T09:23:34Z</time>
      </trkpt>
      <trkpt lat="44.68966" lon="4.9424">
        <ele>254</ele>
        <time>2022-08-18T09:23:53Z</time>
      </trkpt>
      <trkpt lat="44.68948" lon="4.94257">
        <ele>256</ele>
        <time>2022-08-18T09:23:59Z</time>
      </trkpt>
      <trkpt lat="44.68937" lon="4.9427">
        <ele>257</ele>
        <time>2022-08-18T09:24:03Z</time>
      </trkpt>
      <trkpt lat="44.68926" lon="4.94282">
        <ele>257</ele>
        <time>2022-08-18T09:24:07Z</time>
      </trkpt>
      <trkpt lat="44.6891" lon="4.94308">
        <ele>259</ele>
        <time>2022-08-18T09:24:14Z</time>
      </trkpt>
      <trkpt lat="44.68865" lon="4.94445">
        <ele>263</ele>
        <time>2022-08-18T09:24:44Z</time>
      </trkpt>
      <trkpt lat="44.68817" lon="4.94594">
        <ele>269</ele>
        <time>2022-08-18T09:25:14Z</time>
      </trkpt>
      <trkpt lat="44.68777" lon="4.94724">
        <ele>274</ele>
        <time>2022-08-18T09:25:40Z</time>
      </trkpt>
      <trkpt lat="44.68767" lon="4.94786">
        <ele>275</ele>
        <time>2022-08-18T09:25:50Z</time>
      </trkpt>
      <trkpt lat="44.6876" lon="4.94802">
        <ele>276</ele>
        <time>2022-08-18T09:25:53Z</time>
      </trkpt>
      <trkpt lat="44.68708" lon="4.94882">
        <ele>282</ele>
        <time>2022-08-18T09:26:11Z</time>
      </trkpt>
      <trkpt lat="44.68636" lon="4.95081">
        <ele>283</ele>
        <time>2022-08-18T09:26:41Z</time>
      </trkpt>
      <trkpt lat="44.68566" lon="4.95239">
        <ele>289</ele>
        <time>2022-08-18T09:27:11Z</time>
      </trkpt>
      <trkpt lat="44.68526" lon="4.95329">
        <ele>296</ele>
        <time>2022-08-18T09:27:30Z</time>
      </trkpt>
      <trkpt lat="44.68523" lon="4.95335">
        <ele>296</ele>
        <time>2022-08-18T09:27:32Z</time>
      </trkpt>
      <trkpt lat="44.68521" lon="4.9534">
        <ele>296</ele>
        <time>2022-08-18T09:27:47Z</time>
      </trkpt>
      <trkpt lat="44.68518" lon="4.95345">
        <ele>297</ele>
        <time>2022-08-18T09:27:50Z</time>
      </trkpt>
      <trkpt lat="44.68516" lon="4.95351">
        <ele>298</ele>
        <time>2022-08-18T09:27:53Z</time>
      </trkpt>
      <trkpt lat="44.68513" lon="4.95356">
        <ele>299</ele>
        <time>2022-08-18T09:27:56Z</time>
      </trkpt>
      <trkpt lat="44.68496" lon="4.954">
        <ele>301</ele>
        <time>2022-08-18T09:28:10Z</time>
      </trkpt>
      <trkpt lat="44.68491" lon="4.95439">
        <ele>303</ele>
        <time>2022-08-18T09:28:18Z</time>
      </trkpt>
      <trkpt lat="44.68488" lon="4.95465">
        <ele>303</ele>
        <time>2022-08-18T09:28:23Z</time>
      </trkpt>
      <trkpt lat="44.68483" lon="4.95495">
        <ele>303</ele>
        <time>2022-08-18T09:28:29Z</time>
      </trkpt>
      <trkpt lat="44.68476" lon="4.95513">
        <ele>303</ele>
        <time>2022-08-18T09:28:33Z</time>
      </trkpt>
      <trkpt lat="44.68448" lon="4.95554">
        <ele>306</ele>
        <time>2022-08-18T09:28:43Z</time>
      </trkpt>
      <trkpt lat="44.68438" lon="4.95584">
        <ele>306</ele>
        <time>2022-08-18T09:28:49Z</time>
      </trkpt>
      <trkpt lat="44.68398" lon="4.95726">
        <ele>308</ele>
        <time>2022-08-18T09:29:12Z</time>
      </trkpt>
      <trkpt lat="44.68301" lon="4.95885">
        <ele>308</ele>
        <time>2022-08-18T09:29:39Z</time>
      </trkpt>
      <trkpt lat="44.68296" lon="4.95901">
        <ele>308</ele>
        <time>2022-08-18T09:29:41Z</time>
      </trkpt>
      <trkpt lat="44.68292" lon="4.95957">
        <ele>308</ele>
        <time>2022-08-18T09:29:47Z</time>
      </trkpt>
      <trkpt lat="44.68293" lon="4.96038">
        <ele>308</ele>
        <time>2022-08-18T09:29:56Z</time>
      </trkpt>
      <trkpt lat="44.68287" lon="4.9607">
        <ele>309</ele>
        <time>2022-08-18T09:30:00Z</time>
      </trkpt>
      <trkpt lat="44.68251" lon="4.96182">
        <ele>312</ele>
        <time>2022-08-18T09:30:17Z</time>
      </trkpt>
      <trkpt lat="44.68243" lon="4.96198">
        <ele>313</ele>
        <time>2022-08-18T09:30:20Z</time>
      </trkpt>
      <trkpt lat="44.68225" lon="4.96218">
        <ele>314</ele>
        <time>2022-08-18T09:30:25Z</time>
      </trkpt>
      <trkpt lat="44.68206" lon="4.96236">
        <ele>315</ele>
        <time>2022-08-18T09:30:30Z</time>
      </trkpt>
      <trkpt lat="44.68116" lon="4.96354">
        <ele>319</ele>
        <time>2022-08-18T09:30:56Z</time>
      </trkpt>
      <trkpt lat="44.68108" lon="4.96372">
        <ele>320</ele>
        <time>2022-08-18T09:30:59Z</time>
      </trkpt>
      <trkpt lat="44.68103" lon="4.964">
        <ele>320</ele>
        <time>2022-08-18T09:31:03Z</time>
      </trkpt>
      <trkpt lat="44.68103" lon="4.96415">
        <ele>320</ele>
        <time>2022-08-18T09:31:05Z</time>
      </trkpt>
      <trkpt lat="44.68107" lon="4.96441">
        <ele>321</ele>
        <time>2022-08-18T09:31:09Z</time>
      </trkpt>
      <trkpt lat="44.68151" lon="4.96629">
        <ele>320</ele>
        <time>2022-08-18T09:31:35Z</time>
      </trkpt>
      <trkpt lat="44.68153" lon="4.96678">
        <ele>320</ele>
        <time>2022-08-18T09:31:41Z</time>
      </trkpt>
      <trkpt lat="44.6815" lon="4.96713">
        <ele>320</ele>
        <time>2022-08-18T09:31:45Z</time>
      </trkpt>
      <trkpt lat="44.68151" lon="4.96732">
        <ele>320</ele>
        <time>2022-08-18T09:31:47Z</time>
      </trkpt>
      <trkpt lat="44.68156" lon="4.9675">
        <ele>319</ele>
        <time>2022-08-18T09:31:49Z</time>
      </trkpt>
      <trkpt lat="44.68164" lon="4.96767">
        <ele>319</ele>
        <time>2022-08-18T09:31:51Z</time>
      </trkpt>
      <trkpt lat="44.6821" lon="4.96823">
        <ele>318</ele>
        <time>2022-08-18T09:31:59Z</time>
      </trkpt>
      <trkpt lat="44.68291" lon="4.96912">
        <ele>315</ele>
        <time>2022-08-18T09:32:11Z</time>
      </trkpt>
      <trkpt lat="44.68317" lon="4.9695">
        <ele>313</ele>
        <time>2022-08-18T09:32:15Z</time>
      </trkpt>
      <trkpt lat="44.68322" lon="4.96962">
        <ele>312</ele>
        <time>2022-08-18T09:32:16Z</time>
      </trkpt>
      <trkpt lat="44.68323" lon="4.96975">
        <ele>312</ele>
        <time>2022-08-18T09:32:17Z</time>
      </trkpt>
      <trkpt lat="44.6832" lon="4.96987">
        <ele>311</ele>
        <time>2022-08-18T09:32:18Z</time>
      </trkpt>
      <trkpt lat="44.68316" lon="4.96998">
        <ele>311</ele>
        <time>2022-08-18T09:32:19Z</time>
      </trkpt>
      <trkpt lat="44.6828" lon="4.97031">
        <ele>309</ele>
        <time>2022-08-18T09:32:24Z</time>
      </trkpt>
      <trkpt lat="44.68185" lon="4.97091">
        <ele>304</ele>
        <time>2022-08-18T09:32:36Z</time>
      </trkpt>
      <trkpt lat="44.68161" lon="4.97122">
        <ele>302</ele>
        <time>2022-08-18T09:32:40Z</time>
      </trkpt>
      <trkpt lat="44.68086" lon="4.97268">
        <ele>299</ele>
        <time>2022-08-18T09:32:55Z</time>
      </trkpt>
      <trkpt lat="44.68071" lon="4.97283">
        <ele>298</ele>
        <time>2022-08-18T09:32:57Z</time>
      </trkpt>
      <trkpt lat="44.68002" lon="4.97322">
        <ele>295</ele>
        <time>2022-08-18T09:33:05Z</time>
      </trkpt>
      <trkpt lat="44.67996" lon="4.9733">
        <ele>295</ele>
        <time>2022-08-18T09:33:06Z</time>
      </trkpt>
      <trkpt lat="44.67992" lon="4.97341">
        <ele>294</ele>
        <time>2022-08-18T09:33:07Z</time>
      </trkpt>
      <trkpt lat="44.67992" lon="4.97353">
        <ele>294</ele>
        <time>2022-08-18T09:33:08Z</time>
      </trkpt>
      <trkpt lat="44.68031" lon="4.97443">
        <ele>290</ele>
        <time>2022-08-18T09:33:16Z</time>
      </trkpt>
      <trkpt lat="44.68075" lon="4.97712">
        <ele>285</ele>
        <time>2022-08-18T09:33:37Z</time>
      </trkpt>
      <trkpt lat="44.68076" lon="4.97723">
        <ele>285</ele>
        <time>2022-08-18T09:33:38Z</time>
      </trkpt>
      <trkpt lat="44.68075" lon="4.97732">
        <ele>285</ele>
        <time>2022-08-18T09:33:39Z</time>
      </trkpt>
      <trkpt lat="44.68072" lon="4.97741">
        <ele>286</ele>
        <time>2022-08-18T09:33:40Z</time>
      </trkpt>
      <trkpt lat="44.68064" lon="4.97754">
        <ele>286</ele>
        <time>2022-08-18T09:33:42Z</time>
      </trkpt>
      <trkpt lat="44.68059" lon="4.97758">
        <ele>287</ele>
        <time>2022-08-18T09:33:43Z</time>
      </trkpt>
      <trkpt lat="44.67954" lon="4.97791">
        <ele>292</ele>
        <time>2022-08-18T09:34:07Z</time>
      </trkpt>
      <trkpt lat="44.67951" lon="4.97793">
        <ele>291</ele>
        <time>2022-08-18T09:35:04Z</time>
      </trkpt>
      <trkpt lat="44.67906" lon="4.9781">
        <ele>292</ele>
        <time>2022-08-18T09:35:25Z</time>
      </trkpt>
      <trkpt lat="44.6789" lon="4.97824">
        <ele>292</ele>
        <time>2022-08-18T09:35:29Z</time>
      </trkpt>
      <trkpt lat="44.67879" lon="4.9784">
        <ele>292</ele>
        <time>2022-08-18T09:35:32Z</time>
      </trkpt>
      <trkpt lat="44.6783" lon="4.98008">
        <ele>288</ele>
        <time>2022-08-18T09:35:51Z</time>
      </trkpt>
      <trkpt lat="44.67813" lon="4.98029">
        <ele>287</ele>
        <time>2022-08-18T09:35:54Z</time>
      </trkpt>
      <trkpt lat="44.67611" lon="4.98143">
        <ele>287</ele>
        <time>2022-08-18T09:36:24Z</time>
      </trkpt>
      <trkpt lat="44.67585" lon="4.98165">
        <ele>288</ele>
        <time>2022-08-18T09:36:29Z</time>
      </trkpt>
      <trkpt lat="44.67551" lon="4.98212">
        <ele>290</ele>
        <time>2022-08-18T09:36:37Z</time>
      </trkpt>
      <trkpt lat="44.67537" lon="4.98241">
        <ele>290</ele>
        <time>2022-08-18T09:36:41Z</time>
      </trkpt>
      <trkpt lat="44.6753" lon="4.98266">
        <ele>290</ele>
        <time>2022-08-18T09:36:44Z</time>
      </trkpt>
      <trkpt lat="44.67495" lon="4.98507">
        <ele>293</ele>
        <time>2022-08-18T09:37:12Z</time>
      </trkpt>
      <trkpt lat="44.67487" lon="4.9853">
        <ele>293</ele>
        <time>2022-08-18T09:37:15Z</time>
      </trkpt>
      <trkpt lat="44.67369" lon="4.9873">
        <ele>291</ele>
        <time>2022-08-18T09:37:41Z</time>
      </trkpt>
      <trkpt lat="44.67344" lon="4.98751">
        <ele>290</ele>
        <time>2022-08-18T09:37:45Z</time>
      </trkpt>
      <trkpt lat="44.67284" lon="4.98785">
        <ele>291</ele>
        <time>2022-08-18T09:37:57Z</time>
      </trkpt>
      <trkpt lat="44.67282" lon="4.98789">
        <ele>291</ele>
        <time>2022-08-18T09:37:58Z</time>
      </trkpt>
      <trkpt lat="44.67281" lon="4.98794">
        <ele>291</ele>
        <time>2022-08-18T09:37:59Z</time>
      </trkpt>
      <trkpt lat="44.67285" lon="4.98808">
        <ele>292</ele>
        <time>2022-08-18T09:38:02Z</time>
      </trkpt>
      <trkpt lat="44.67345" lon="4.98934">
        <ele>298</ele>
        <time>2022-08-18T09:38:32Z</time>
      </trkpt>
      <trkpt lat="44.67366" lon="4.98987">
        <ele>302</ele>
        <time>2022-08-18T09:38:46Z</time>
      </trkpt>
      <trkpt lat="44.67371" lon="4.99012">
        <ele>304</ele>
        <time>2022-08-18T09:38:52Z</time>
      </trkpt>
      <trkpt lat="44.67371" lon="4.9902">
        <ele>304</ele>
        <time>2022-08-18T09:38:54Z</time>
      </trkpt>
      <trkpt lat="44.67368" lon="4.99034">
        <ele>305</ele>
        <time>2022-08-18T09:38:58Z</time>
      </trkpt>
      <trkpt lat="44.67362" lon="4.99049">
        <ele>306</ele>
        <time>2022-08-18T09:39:02Z</time>
      </trkpt>
      <trkpt lat="44.67351" lon="4.99058">
        <ele>307</ele>
        <time>2022-08-18T09:39:06Z</time>
      </trkpt>
      <trkpt lat="44.67338" lon="4.9906">
        <ele>308</ele>
        <time>2022-08-18T09:39:10Z</time>
      </trkpt>
      <trkpt lat="44.6732" lon="4.99052">
        <ele>310</ele>
        <time>2022-08-18T09:39:16Z</time>
      </trkpt>
      <trkpt lat="44.67285" lon="4.99029">
        <ele>312</ele>
        <time>2022-08-18T09:39:28Z</time>
      </trkpt>
      <trkpt lat="44.67275" lon="4.99027">
        <ele>313</ele>
        <time>2022-08-18T09:39:31Z</time>
      </trkpt>
      <trkpt lat="44.67271" lon="4.99027">
        <ele>313</ele>
        <time>2022-08-18T09:39:32Z</time>
      </trkpt>
      <trkpt lat="44.67268" lon="4.9903">
        <ele>314</ele>
        <time>2022-08-18T09:39:33Z</time>
      </trkpt>
      <trkpt lat="44.67265" lon="4.99034">
        <ele>314</ele>
        <time>2022-08-18T09:39:34Z</time>
      </trkpt>
      <trkpt lat="44.67263" lon="4.99038">
        <ele>315</ele>
        <time>2022-08-18T09:39:35Z</time>
      </trkpt>
      <trkpt lat="44.67264" lon="4.99048">
        <ele>315</ele>
        <time>2022-08-18T09:39:37Z</time>
      </trkpt>
      <trkpt lat="44.67288" lon="4.99094">
        <ele>318</ele>
        <time>2022-08-18T09:39:49Z</time>
      </trkpt>
      <trkpt lat="44.67292" lon="4.991">
        <ele>318</ele>
        <time>2022-08-18T09:39:51Z</time>
      </trkpt>
      <trkpt lat="44.67314" lon="4.99143">
        <ele>320</ele>
        <time>2022-08-18T09:40:03Z</time>
      </trkpt>
      <trkpt lat="44.67316" lon="4.99151">
        <ele>321</ele>
        <time>2022-08-18T09:40:05Z</time>
      </trkpt>
      <trkpt lat="44.67298" lon="4.99177">
        <ele>321</ele>
        <time>2022-08-18T09:40:12Z</time>
      </trkpt>
      <trkpt lat="44.67292" lon="4.99186">
        <ele>321</ele>
        <time>2022-08-18T09:40:14Z</time>
      </trkpt>
      <trkpt lat="44.67215" lon="4.99314">
        <ele>319</ele>
        <time>2022-08-18T09:40:34Z</time>
      </trkpt>
      <trkpt lat="44.67208" lon="4.99343">
        <ele>319</ele>
        <time>2022-08-18T09:40:37Z</time>
      </trkpt>
      <trkpt lat="44.67207" lon="4.99363">
        <ele>319</ele>
        <time>2022-08-18T09:40:39Z</time>
      </trkpt>
      <trkpt lat="44.67214" lon="4.99436">
        <ele>318</ele>
        <time>2022-08-18T09:40:46Z</time>
      </trkpt>
      <trkpt lat="44.67213" lon="4.99457">
        <ele>317</ele>
        <time>2022-08-18T09:40:48Z</time>
      </trkpt>
      <trkpt lat="44.67209" lon="4.99479">
        <ele>316</ele>
        <time>2022-08-18T09:40:50Z</time>
      </trkpt>
      <trkpt lat="44.67196" lon="4.99509">
        <ele>315</ele>
        <time>2022-08-18T09:40:53Z</time>
      </trkpt>
      <trkpt lat="44.67177" lon="4.99534">
        <ele>313</ele>
        <time>2022-08-18T09:40:56Z</time>
      </trkpt>
      <trkpt lat="44.67098" lon="4.99594">
        <ele>309</ele>
        <time>2022-08-18T09:41:06Z</time>
      </trkpt>
      <trkpt lat="44.67085" lon="4.99614">
        <ele>309</ele>
        <time>2022-08-18T09:41:08Z</time>
      </trkpt>
      <trkpt lat="44.67057" lon="4.99686">
        <ele>307</ele>
        <time>2022-08-18T09:41:14Z</time>
      </trkpt>
      <trkpt lat="44.67025" lon="4.99728">
        <ele>309</ele>
        <time>2022-08-18T09:41:19Z</time>
      </trkpt>
      <trkpt lat="44.66987" lon="4.99769">
        <ele>309</ele>
        <time>2022-08-18T09:41:26Z</time>
      </trkpt>
      <trkpt lat="44.66971" lon="4.99797">
        <ele>309</ele>
        <time>2022-08-18T09:41:30Z</time>
      </trkpt>
      <trkpt lat="44.66895" lon="5.00027">
        <ele>313</ele>
        <time>2022-08-18T09:42:00Z</time>
      </trkpt>
      <trkpt lat="44.66854" lon="5.0015">
        <ele>318</ele>
        <time>2022-08-18T09:42:19Z</time>
      </trkpt>
      <trkpt lat="44.66848" lon="5.00189">
        <ele>320</ele>
        <time>2022-08-18T09:42:25Z</time>
      </trkpt>
      <trkpt lat="44.66836" lon="5.00338">
        <ele>322</ele>
        <time>2022-08-18T09:42:46Z</time>
      </trkpt>
      <trkpt lat="44.66822" lon="5.00449">
        <ele>323</ele>
        <time>2022-08-18T09:43:01Z</time>
      </trkpt>
      <trkpt lat="44.66804" lon="5.005">
        <ele>323</ele>
        <time>2022-08-18T09:43:09Z</time>
      </trkpt>
      <trkpt lat="44.66779" lon="5.00558">
        <ele>324</ele>
        <time>2022-08-18T09:43:19Z</time>
      </trkpt>
      <trkpt lat="44.66775" lon="5.00573">
        <ele>324</ele>
        <time>2022-08-18T09:43:21Z</time>
      </trkpt>
      <trkpt lat="44.66757" lon="5.00623">
        <ele>324</ele>
        <time>2022-08-18T09:43:28Z</time>
      </trkpt>
      <trkpt lat="44.66753" lon="5.00629">
        <ele>323</ele>
        <time>2022-08-18T09:43:29Z</time>
      </trkpt>
      <trkpt lat="44.66748" lon="5.00631">
        <ele>323</ele>
        <time>2022-08-18T09:43:30Z</time>
      </trkpt>
      <trkpt lat="44.66739" lon="5.00625">
        <ele>323</ele>
        <time>2022-08-18T09:43:32Z</time>
      </trkpt>
      <trkpt lat="44.66693" lon="5.00588">
        <ele>318</ele>
        <time>2022-08-18T09:43:40Z</time>
      </trkpt>
      <trkpt lat="44.66679" lon="5.00584">
        <ele>317</ele>
        <time>2022-08-18T09:43:42Z</time>
      </trkpt>
      <trkpt lat="44.66565" lon="5.00624">
        <ele>317</ele>
        <time>2022-08-18T09:43:58Z</time>
      </trkpt>
      <trkpt lat="44.66529" lon="5.00616">
        <ele>315</ele>
        <time>2022-08-18T09:44:03Z</time>
      </trkpt>
      <trkpt lat="44.66415" lon="5.0058">
        <ele>310</ele>
        <time>2022-08-18T09:44:17Z</time>
      </trkpt>
      <trkpt lat="44.6639" lon="5.00579">
        <ele>310</ele>
        <time>2022-08-18T09:44:20Z</time>
      </trkpt>
      <trkpt lat="44.66288" lon="5.00619">
        <ele>316</ele>
        <time>2022-08-18T09:44:35Z</time>
      </trkpt>
      <trkpt lat="44.66271" lon="5.00616">
        <ele>317</ele>
        <time>2022-08-18T09:44:38Z</time>
      </trkpt>
      <trkpt lat="44.66183" lon="5.00549">
        <ele>321</ele>
        <time>2022-08-18T09:45:00Z</time>
      </trkpt>
      <trkpt lat="44.66059" lon="5.00453">
        <ele>325</ele>
        <time>2022-08-18T09:45:30Z</time>
      </trkpt>
      <trkpt lat="44.65911" lon="5.00328">
        <ele>324</ele>
        <time>2022-08-18T09:46:00Z</time>
      </trkpt>
      <trkpt lat="44.65768" lon="5.00208">
        <ele>328</ele>
        <time>2022-08-18T09:46:30Z</time>
      </trkpt>
      <trkpt lat="44.65716" lon="5.00162">
        <ele>332</ele>
        <time>2022-08-18T09:46:45Z</time>
      </trkpt>
      <trkpt lat="44.65616" lon="5.00136">
        <ele>337</ele>
        <time>2022-08-18T09:47:10Z</time>
      </trkpt>
      <trkpt lat="44.65605" lon="5.00136">
        <ele>338</ele>
        <time>2022-08-18T09:47:13Z</time>
      </trkpt>
      <trkpt lat="44.65598" lon="5.00139">
        <ele>338</ele>
        <time>2022-08-18T09:47:15Z</time>
      </trkpt>
      <trkpt lat="44.65483" lon="5.00254">
        <ele>344</ele>
        <time>2022-08-18T09:47:45Z</time>
      </trkpt>
      <trkpt lat="44.65384" lon="5.00379">
        <ele>350</ele>
        <time>2022-08-18T09:48:15Z</time>
      </trkpt>
      <trkpt lat="44.65328" lon="5.00426">
        <ele>353</ele>
        <time>2022-08-18T09:48:30Z</time>
      </trkpt>
      <trkpt lat="44.65322" lon="5.00437">
        <ele>353</ele>
        <time>2022-08-18T09:48:32Z</time>
      </trkpt>
      <trkpt lat="44.65311" lon="5.00505">
        <ele>353</ele>
        <time>2022-08-18T09:48:41Z</time>
      </trkpt>
      <trkpt lat="44.65308" lon="5.00636">
        <ele>353</ele>
        <time>2022-08-18T09:48:58Z</time>
      </trkpt>
      <trkpt lat="44.65304" lon="5.0065">
        <ele>354</ele>
        <time>2022-08-18T09:49:00Z</time>
      </trkpt>
      <trkpt lat="44.65297" lon="5.00662">
        <ele>355</ele>
        <time>2022-08-18T09:49:02Z</time>
      </trkpt>
      <trkpt lat="44.65222" lon="5.00749">
        <ele>352</ele>
        <time>2022-08-18T09:49:18Z</time>
      </trkpt>
      <trkpt lat="44.65213" lon="5.00766">
        <ele>352</ele>
        <time>2022-08-18T09:49:20Z</time>
      </trkpt>
      <trkpt lat="44.65206" lon="5.00788">
        <ele>350</ele>
        <time>2022-08-18T09:49:22Z</time>
      </trkpt>
      <trkpt lat="44.65204" lon="5.00811">
        <ele>350</ele>
        <time>2022-08-18T09:49:24Z</time>
      </trkpt>
      <trkpt lat="44.6521" lon="5.0087">
        <ele>351</ele>
        <time>2022-08-18T09:49:30Z</time>
      </trkpt>
      <trkpt lat="44.65224" lon="5.00932">
        <ele>354</ele>
        <time>2022-08-18T09:49:41Z</time>
      </trkpt>
      <trkpt lat="44.65223" lon="5.00951">
        <ele>355</ele>
        <time>2022-08-18T09:49:45Z</time>
      </trkpt>
      <trkpt lat="44.6522" lon="5.00961">
        <ele>355</ele>
        <time>2022-08-18T09:49:47Z</time>
      </trkpt>
      <trkpt lat="44.65217" lon="5.00965">
        <ele>355</ele>
        <time>2022-08-18T09:49:48Z</time>
      </trkpt>
      <trkpt lat="44.65174" lon="5.01012">
        <ele>356</ele>
        <time>2022-08-18T09:49:58Z</time>
      </trkpt>
      <trkpt lat="44.6515" lon="5.01059">
        <ele>356</ele>
        <time>2022-08-18T09:50:05Z</time>
      </trkpt>
      <trkpt lat="44.65092" lon="5.01137">
        <ele>360</ele>
        <time>2022-08-18T09:50:22Z</time>
      </trkpt>
      <trkpt lat="44.65056" lon="5.01217">
        <ele>364</ele>
        <time>2022-08-18T09:50:41Z</time>
      </trkpt>
      <trkpt lat="44.65027" lon="5.01346">
        <ele>372</ele>
        <time>2022-08-18T09:51:11Z</time>
      </trkpt>
      <trkpt lat="44.65018" lon="5.01397">
        <ele>376</ele>
        <time>2022-08-18T09:51:25Z</time>
      </trkpt>
      <trkpt lat="44.65012" lon="5.01493">
        <ele>383</ele>
        <time>2022-08-18T09:51:56Z</time>
      </trkpt>
      <trkpt lat="44.6501" lon="5.01498">
        <ele>380</ele>
        <time>2022-08-18T09:51:58Z</time>
      </trkpt>
      <trkpt lat="44.65012" lon="5.01512">
        <ele>381</ele>
        <time>2022-08-18T09:52:02Z</time>
      </trkpt>
      <trkpt lat="44.65013" lon="5.0152">
        <ele>383</ele>
        <time>2022-08-18T09:52:04Z</time>
      </trkpt>
      <trkpt lat="44.65018" lon="5.01539">
        <ele>390</ele>
        <time>2022-08-18T09:52:09Z</time>
      </trkpt>
      <trkpt lat="44.65021" lon="5.01543">
        <ele>390</ele>
        <time>2022-08-18T09:52:11Z</time>
      </trkpt>
      <trkpt lat="44.65024" lon="5.01556">
        <ele>392</ele>
        <time>2022-08-18T09:52:15Z</time>
      </trkpt>
      <trkpt lat="44.65025" lon="5.01562">
        <ele>393</ele>
        <time>2022-08-18T09:52:17Z</time>
      </trkpt>
      <trkpt lat="44.65033" lon="5.01582">
        <ele>394</ele>
        <time>2022-08-18T09:52:23Z</time>
      </trkpt>
      <trkpt lat="44.65036" lon="5.01598">
        <ele>395</ele>
        <time>2022-08-18T09:52:27Z</time>
      </trkpt>
      <trkpt lat="44.65035" lon="5.01615">
        <ele>397</ele>
        <time>2022-08-18T09:52:31Z</time>
      </trkpt>
      <trkpt lat="44.65034" lon="5.01623">
        <ele>398</ele>
        <time>2022-08-18T09:52:33Z</time>
      </trkpt>
      <trkpt lat="44.65023" lon="5.0164">
        <ele>400</ele>
        <time>2022-08-18T09:52:39Z</time>
      </trkpt>
      <trkpt lat="44.65014" lon="5.01649">
        <ele>400</ele>
        <time>2022-08-18T09:52:43Z</time>
      </trkpt>
      <trkpt lat="44.64999" lon="5.01657">
        <ele>402</ele>
        <time>2022-08-18T09:52:49Z</time>
      </trkpt>
      <trkpt lat="44.64951" lon="5.01672">
        <ele>406</ele>
        <time>2022-08-18T09:53:09Z</time>
      </trkpt>
      <trkpt lat="44.64917" lon="5.01703">
        <ele>407</ele>
        <time>2022-08-18T09:53:23Z</time>
      </trkpt>
      <trkpt lat="44.64866" lon="5.01722">
        <ele>408</ele>
        <time>2022-08-18T09:53:41Z</time>
      </trkpt>
      <trkpt lat="44.64863" lon="5.01725">
        <ele>408</ele>
        <time>2022-08-18T09:53:42Z</time>
      </trkpt>
      <trkpt lat="44.6486" lon="5.01729">
        <ele>409</ele>
        <time>2022-08-18T09:53:43Z</time>
      </trkpt>
      <trkpt lat="44.64859" lon="5.01737">
        <ele>410</ele>
        <time>2022-08-18T09:53:45Z</time>
      </trkpt>
      <trkpt lat="44.64867" lon="5.01749">
        <ele>411</ele>
        <time>2022-08-18T09:53:49Z</time>
      </trkpt>
      <trkpt lat="44.64878" lon="5.01772">
        <ele>413</ele>
        <time>2022-08-18T09:53:55Z</time>
      </trkpt>
      <trkpt lat="44.64899" lon="5.01842">
        <ele>413</ele>
        <time>2022-08-18T09:54:08Z</time>
      </trkpt>
      <trkpt lat="44.64952" lon="5.01974">
        <ele>410</ele>
        <time>2022-08-18T09:54:29Z</time>
      </trkpt>
      <trkpt lat="44.65012" lon="5.02066">
        <ele>407</ele>
        <time>2022-08-18T09:54:43Z</time>
      </trkpt>
      <trkpt lat="44.6504" lon="5.02152">
        <ele>407</ele>
        <time>2022-08-18T09:54:52Z</time>
      </trkpt>
      <trkpt lat="44.6505" lon="5.02194">
        <ele>406</ele>
        <time>2022-08-18T09:54:56Z</time>
      </trkpt>
      <trkpt lat="44.65069" lon="5.02238">
        <ele>406</ele>
        <time>2022-08-18T09:55:01Z</time>
      </trkpt>
      <trkpt lat="44.65077" lon="5.02251">
        <ele>406</ele>
        <time>2022-08-18T09:55:03Z</time>
      </trkpt>
      <trkpt lat="44.65093" lon="5.02296">
        <ele>407</ele>
        <time>2022-08-18T09:55:09Z</time>
      </trkpt>
      <trkpt lat="44.65097" lon="5.02327">
        <ele>407</ele>
        <time>2022-08-18T09:55:13Z</time>
      </trkpt>
      <trkpt lat="44.65094" lon="5.02343">
        <ele>407</ele>
        <time>2022-08-18T09:55:15Z</time>
      </trkpt>
      <trkpt lat="44.65059" lon="5.02379">
        <ele>408</ele>
        <time>2022-08-18T09:55:23Z</time>
      </trkpt>
      <trkpt lat="44.65052" lon="5.02391">
        <ele>408</ele>
        <time>2022-08-18T09:55:25Z</time>
      </trkpt>
      <trkpt lat="44.65047" lon="5.02405">
        <ele>408</ele>
        <time>2022-08-18T09:55:27Z</time>
      </trkpt>
      <trkpt lat="44.65034" lon="5.02502">
        <ele>407</ele>
        <time>2022-08-18T09:55:38Z</time>
      </trkpt>
      <trkpt lat="44.65034" lon="5.02521">
        <ele>407</ele>
        <time>2022-08-18T09:55:40Z</time>
      </trkpt>
      <trkpt lat="44.6504" lon="5.02557">
        <ele>406</ele>
        <time>2022-08-18T09:55:44Z</time>
      </trkpt>
      <trkpt lat="44.65053" lon="5.02594">
        <ele>406</ele>
        <time>2022-08-18T09:55:48Z</time>
      </trkpt>
      <trkpt lat="44.65075" lon="5.02625">
        <ele>405</ele>
        <time>2022-08-18T09:55:52Z</time>
      </trkpt>
      <trkpt lat="44.65116" lon="5.02673">
        <ele>405</ele>
        <time>2022-08-18T09:55:59Z</time>
      </trkpt>
      <trkpt lat="44.65128" lon="5.02701">
        <ele>404</ele>
        <time>2022-08-18T09:56:02Z</time>
      </trkpt>
      <trkpt lat="44.65149" lon="5.02789">
        <ele>401</ele>
        <time>2022-08-18T09:56:12Z</time>
      </trkpt>
      <trkpt lat="44.65164" lon="5.02815">
        <ele>401</ele>
        <time>2022-08-18T09:56:16Z</time>
      </trkpt>
      <trkpt lat="44.65166" lon="5.02822">
        <ele>401</ele>
        <time>2022-08-18T09:56:17Z</time>
      </trkpt>
      <trkpt lat="44.65166" lon="5.02828">
        <ele>401</ele>
        <time>2022-08-18T09:56:18Z</time>
      </trkpt>
      <trkpt lat="44.65163" lon="5.02833">
        <ele>400</ele>
        <time>2022-08-18T09:56:19Z</time>
      </trkpt>
      <trkpt lat="44.65158" lon="5.02834">
        <ele>400</ele>
        <time>2022-08-18T09:56:20Z</time>
      </trkpt>
      <trkpt lat="44.65153" lon="5.0283">
        <ele>399</ele>
        <time>2022-08-18T09:56:21Z</time>
      </trkpt>
      <trkpt lat="44.6515" lon="5.02823">
        <ele>399</ele>
        <time>2022-08-18T09:56:22Z</time>
      </trkpt>
      <trkpt lat="44.65148" lon="5.02816">
        <ele>398</ele>
        <time>2022-08-18T09:56:23Z</time>
      </trkpt>
      <trkpt lat="44.65145" lon="5.02809">
        <ele>398</ele>
        <time>2022-08-18T09:56:24Z</time>
      </trkpt>
      <trkpt lat="44.65077" lon="5.02729">
        <ele>390</ele>
        <time>2022-08-18T09:56:36Z</time>
      </trkpt>
      <trkpt lat="44.65002" lon="5.02679">
        <ele>385</ele>
        <time>2022-08-18T09:56:45Z</time>
      </trkpt>
      <trkpt lat="44.64947" lon="5.02644">
        <ele>381</ele>
        <time>2022-08-18T09:56:51Z</time>
      </trkpt>
      <trkpt lat="44.64753" lon="5.02486">
        <ele>365</ele>
        <time>2022-08-18T09:57:13Z</time>
      </trkpt>
      <trkpt lat="44.64744" lon="5.02482">
        <ele>364</ele>
        <time>2022-08-18T09:57:14Z</time>
      </trkpt>
      <trkpt lat="44.64725" lon="5.02482">
        <ele>363</ele>
        <time>2022-08-18T09:57:16Z</time>
      </trkpt>
      <trkpt lat="44.64663" lon="5.02523">
        <ele>358</ele>
        <time>2022-08-18T09:57:23Z</time>
      </trkpt>
      <trkpt lat="44.64654" lon="5.02525">
        <ele>357</ele>
        <time>2022-08-18T09:57:24Z</time>
      </trkpt>
      <trkpt lat="44.64645" lon="5.02523">
        <ele>357</ele>
        <time>2022-08-18T09:57:25Z</time>
      </trkpt>
      <trkpt lat="44.64613" lon="5.02495">
        <ele>354</ele>
        <time>2022-08-18T09:57:29Z</time>
      </trkpt>
      <trkpt lat="44.64594" lon="5.02488">
        <ele>353</ele>
        <time>2022-08-18T09:57:31Z</time>
      </trkpt>
      <trkpt lat="44.64388" lon="5.02494">
        <ele>344</ele>
        <time>2022-08-18T09:57:52Z</time>
      </trkpt>
      <trkpt lat="44.6438" lon="5.02492">
        <ele>344</ele>
        <time>2022-08-18T09:57:53Z</time>
      </trkpt>
      <trkpt lat="44.64091" lon="5.02519">
        <ele>331</ele>
        <time>2022-08-18T09:58:23Z</time>
      </trkpt>
      <trkpt lat="44.63791" lon="5.02537">
        <ele>321</ele>
        <time>2022-08-18T09:58:53Z</time>
      </trkpt>
      <trkpt lat="44.6354" lon="5.02599">
        <ele>317</ele>
        <time>2022-08-18T09:59:23Z</time>
      </trkpt>
      <trkpt lat="44.63495" lon="5.02588">
        <ele>316</ele>
        <time>2022-08-18T09:59:29Z</time>
      </trkpt>
      <trkpt lat="44.63469" lon="5.02572">
        <ele>316</ele>
        <time>2022-08-18T09:59:33Z</time>
      </trkpt>
      <trkpt lat="44.63465" lon="5.02566">
        <ele>315</ele>
        <time>2022-08-18T09:59:34Z</time>
      </trkpt>
      <trkpt lat="44.63463" lon="5.02558">
        <ele>315</ele>
        <time>2022-08-18T09:59:35Z</time>
      </trkpt>
      <trkpt lat="44.63466" lon="5.02542">
        <ele>315</ele>
        <time>2022-08-18T09:59:37Z</time>
      </trkpt>
      <trkpt lat="44.63477" lon="5.02512">
        <ele>315</ele>
        <time>2022-08-18T09:59:41Z</time>
      </trkpt>
      <trkpt lat="44.63481" lon="5.02495">
        <ele>315</ele>
        <time>2022-08-18T09:59:43Z</time>
      </trkpt>
      <trkpt lat="44.6348" lon="5.02468">
        <ele>315</ele>
        <time>2022-08-18T09:59:46Z</time>
      </trkpt>
      <trkpt lat="44.63438" lon="5.02411">
        <ele>315</ele>
        <time>2022-08-18T09:59:54Z</time>
      </trkpt>
      <trkpt lat="44.63355" lon="5.02347">
        <ele>313</ele>
        <time>2022-08-18T10:00:07Z</time>
      </trkpt>
      <trkpt lat="44.63335" lon="5.02339">
        <ele>309</ele>
        <time>2022-08-18T10:00:10Z</time>
      </trkpt>
      <trkpt lat="44.63329" lon="5.02334">
        <ele>309</ele>
        <time>2022-08-18T10:00:11Z</time>
      </trkpt>
      <trkpt lat="44.63315" lon="5.02304">
        <ele>309</ele>
        <time>2022-08-18T10:00:14Z</time>
      </trkpt>
      <trkpt lat="44.63318" lon="5.02293">
        <ele>309</ele>
        <time>2022-08-18T10:00:15Z</time>
      </trkpt>
      <trkpt lat="44.63323" lon="5.02282">
        <ele>308</ele>
        <time>2022-08-18T10:00:16Z</time>
      </trkpt>
      <trkpt lat="44.63336" lon="5.02276">
        <ele>306</ele>
        <time>2022-08-18T10:00:17Z</time>
      </trkpt>
      <trkpt lat="44.6334" lon="5.02268">
        <ele>306</ele>
        <time>2022-08-18T10:00:18Z</time>
      </trkpt>
      <trkpt lat="44.63363" lon="5.02238">
        <ele>305</ele>
        <time>2022-08-18T10:00:22Z</time>
      </trkpt>
      <trkpt lat="44.6339" lon="5.02179">
        <ele>304</ele>
        <time>2022-08-18T10:00:28Z</time>
      </trkpt>
      <trkpt lat="44.63391" lon="5.02167">
        <ele>304</ele>
        <time>2022-08-18T10:00:29Z</time>
      </trkpt>
      <trkpt lat="44.6339" lon="5.02143">
        <ele>303</ele>
        <time>2022-08-18T10:00:31Z</time>
      </trkpt>
      <trkpt lat="44.63382" lon="5.02135">
        <ele>303</ele>
        <time>2022-08-18T10:00:32Z</time>
      </trkpt>
      <trkpt lat="44.63378" lon="5.02124">
        <ele>303</ele>
        <time>2022-08-18T10:00:33Z</time>
      </trkpt>
      <trkpt lat="44.63222" lon="5.01994">
        <ele>295</ele>
        <time>2022-08-18T10:00:53Z</time>
      </trkpt>
      <trkpt lat="44.63196" lon="5.01982">
        <ele>295</ele>
        <time>2022-08-18T10:00:56Z</time>
      </trkpt>
      <trkpt lat="44.63116" lon="5.01967">
        <ele>291</ele>
        <time>2022-08-18T10:01:05Z</time>
      </trkpt>
      <trkpt lat="44.63053" lon="5.01928">
        <ele>289</ele>
        <time>2022-08-18T10:01:13Z</time>
      </trkpt>
      <trkpt lat="44.62977" lon="5.01868">
        <ele>286</ele>
        <time>2022-08-18T10:01:23Z</time>
      </trkpt>
      <trkpt lat="44.62852" lon="5.01806">
        <ele>281</ele>
        <time>2022-08-18T10:01:38Z</time>
      </trkpt>
      <trkpt lat="44.62691" lon="5.01653">
        <ele>275</ele>
        <time>2022-08-18T10:02:00Z</time>
      </trkpt>
      <trkpt lat="44.62538" lon="5.01602">
        <ele>269</ele>
        <time>2022-08-18T10:02:20Z</time>
      </trkpt>
      <trkpt lat="44.62529" lon="5.01593">
        <ele>269</ele>
        <time>2022-08-18T10:02:22Z</time>
      </trkpt>
      <trkpt lat="44.62524" lon="5.01592">
        <ele>269</ele>
        <time>2022-08-18T10:02:23Z</time>
      </trkpt>
      <trkpt lat="44.6252" lon="5.01595">
        <ele>269</ele>
        <time>2022-08-18T10:02:24Z</time>
      </trkpt>
      <trkpt lat="44.62517" lon="5.016">
        <ele>269</ele>
        <time>2022-08-18T10:02:25Z</time>
      </trkpt>
      <trkpt lat="44.62513" lon="5.01612">
        <ele>268</ele>
        <time>2022-08-18T10:02:27Z</time>
      </trkpt>
      <trkpt lat="44.62508" lon="5.01647">
        <ele>268</ele>
        <time>2022-08-18T10:02:32Z</time>
      </trkpt>
      <trkpt lat="44.62512" lon="5.01678">
        <ele>268</ele>
        <time>2022-08-18T10:02:36Z</time>
      </trkpt>
      <trkpt lat="44.62521" lon="5.0171">
        <ele>269</ele>
        <time>2022-08-18T10:02:41Z</time>
      </trkpt>
      <trkpt lat="44.62562" lon="5.01815">
        <ele>273</ele>
        <time>2022-08-18T10:03:00Z</time>
      </trkpt>
      <trkpt lat="44.62563" lon="5.01826">
        <ele>273</ele>
        <time>2022-08-18T10:03:02Z</time>
      </trkpt>
      <trkpt lat="44.62555" lon="5.01861">
        <ele>273</ele>
        <time>2022-08-18T10:03:08Z</time>
      </trkpt>
      <trkpt lat="44.62535" lon="5.01909">
        <ele>275</ele>
        <time>2022-08-18T10:03:18Z</time>
      </trkpt>
      <trkpt lat="44.62517" lon="5.01945">
        <ele>277</ele>
        <time>2022-08-18T10:03:26Z</time>
      </trkpt>
      <trkpt lat="44.62498" lon="5.01999">
        <ele>279</ele>
        <time>2022-08-18T10:03:38Z</time>
      </trkpt>
      <trkpt lat="44.62496" lon="5.02007">
        <ele>280</ele>
        <time>2022-08-18T10:03:40Z</time>
      </trkpt>
      <trkpt lat="44.62495" lon="5.02015">
        <ele>280</ele>
        <time>2022-08-18T10:03:42Z</time>
      </trkpt>
      <trkpt lat="44.62499" lon="5.0204">
        <ele>281</ele>
        <time>2022-08-18T10:03:48Z</time>
      </trkpt>
      <trkpt lat="44.62506" lon="5.02059">
        <ele>281</ele>
        <time>2022-08-18T10:03:52Z</time>
      </trkpt>
      <trkpt lat="44.62511" lon="5.02067">
        <ele>282</ele>
        <time>2022-08-18T10:03:54Z</time>
      </trkpt>
      <trkpt lat="44.62514" lon="5.0207">
        <ele>283</ele>
        <time>2022-08-18T10:03:55Z</time>
      </trkpt>
      <trkpt lat="44.62535" lon="5.02074">
        <ele>285</ele>
        <time>2022-08-18T10:04:00Z</time>
      </trkpt>
      <trkpt lat="44.62579" lon="5.02104">
        <ele>287</ele>
        <time>2022-08-18T10:04:11Z</time>
      </trkpt>
      <trkpt lat="44.62586" lon="5.02111">
        <ele>288</ele>
        <time>2022-08-18T10:04:13Z</time>
      </trkpt>
      <trkpt lat="44.62593" lon="5.0212">
        <ele>288</ele>
        <time>2022-08-18T10:04:15Z</time>
      </trkpt>
      <trkpt lat="44.62601" lon="5.02137">
        <ele>287</ele>
        <time>2022-08-18T10:04:18Z</time>
      </trkpt>
      <trkpt lat="44.62629" lon="5.02245">
        <ele>286</ele>
        <time>2022-08-18T10:04:34Z</time>
      </trkpt>
      <trkpt lat="44.62626" lon="5.02322">
        <ele>286</ele>
        <time>2022-08-18T10:04:44Z</time>
      </trkpt>
      <trkpt lat="44.62591" lon="5.0256">
        <ele>284</ele>
        <time>2022-08-18T10:05:14Z</time>
      </trkpt>
      <trkpt lat="44.62587" lon="5.02628">
        <ele>284</ele>
        <time>2022-08-18T10:05:22Z</time>
      </trkpt>
      <trkpt lat="44.62591" lon="5.02692">
        <ele>284</ele>
        <time>2022-08-18T10:05:30Z</time>
      </trkpt>
      <trkpt lat="44.62619" lon="5.028">
        <ele>285</ele>
        <time>2022-08-18T10:05:44Z</time>
      </trkpt>
      <trkpt lat="44.62639" lon="5.0285">
        <ele>286</ele>
        <time>2022-08-18T10:05:51Z</time>
      </trkpt>
      <trkpt lat="44.62659" lon="5.02879">
        <ele>286</ele>
        <time>2022-08-18T10:05:56Z</time>
      </trkpt>
      <trkpt lat="44.62671" lon="5.02908">
        <ele>286</ele>
        <time>2022-08-18T10:06:00Z</time>
      </trkpt>
      <trkpt lat="44.62677" lon="5.02942">
        <ele>286</ele>
        <time>2022-08-18T10:06:04Z</time>
      </trkpt>
      <trkpt lat="44.62678" lon="5.02992">
        <ele>287</ele>
        <time>2022-08-18T10:06:10Z</time>
      </trkpt>
      <trkpt lat="44.62678" lon="5.03014">
        <ele>287</ele>
        <time>2022-08-18T10:06:13Z</time>
      </trkpt>
      <trkpt lat="44.62679" lon="5.03022">
        <ele>287</ele>
        <time>2022-08-18T10:06:14Z</time>
      </trkpt>
      <trkpt lat="44.6269" lon="5.03062">
        <ele>287</ele>
        <time>2022-08-18T10:06:19Z</time>
      </trkpt>
      <trkpt lat="44.6269" lon="5.03089">
        <ele>287</ele>
        <time>2022-08-18T10:06:22Z</time>
      </trkpt>
      <trkpt lat="44.62682" lon="5.03146">
        <ele>288</ele>
        <time>2022-08-18T10:06:29Z</time>
      </trkpt>
      <trkpt lat="44.62684" lon="5.03207">
        <ele>288</ele>
        <time>2022-08-18T10:06:37Z</time>
      </trkpt>
      <trkpt lat="44.62716" lon="5.03442">
        <ele>289</ele>
        <time>2022-08-18T10:07:07Z</time>
      </trkpt>
      <trkpt lat="44.6272" lon="5.0348">
        <ele>289</ele>
        <time>2022-08-18T10:07:12Z</time>
      </trkpt>
      <trkpt lat="44.62718" lon="5.03547">
        <ele>289</ele>
        <time>2022-08-18T10:07:20Z</time>
      </trkpt>
      <trkpt lat="44.62714" lon="5.03571">
        <ele>289</ele>
        <time>2022-08-18T10:07:23Z</time>
      </trkpt>
      <trkpt lat="44.6271" lon="5.03578">
        <ele>289</ele>
        <time>2022-08-18T10:07:24Z</time>
      </trkpt>
      <trkpt lat="44.62705" lon="5.03582">
        <ele>289</ele>
        <time>2022-08-18T10:07:25Z</time>
      </trkpt>
      <trkpt lat="44.62604" lon="5.03583">
        <ele>291</ele>
        <time>2022-08-18T10:07:43Z</time>
      </trkpt>
      <trkpt lat="44.62599" lon="5.03585">
        <ele>291</ele>
        <time>2022-08-18T10:07:44Z</time>
      </trkpt>
      <trkpt lat="44.62591" lon="5.03593">
        <ele>291</ele>
        <time>2022-08-18T10:07:46Z</time>
      </trkpt>
      <trkpt lat="44.62564" lon="5.03628">
        <ele>292</ele>
        <time>2022-08-18T10:07:53Z</time>
      </trkpt>
      <trkpt lat="44.6255" lon="5.0364">
        <ele>292</ele>
        <time>2022-08-18T10:07:56Z</time>
      </trkpt>
      <trkpt lat="44.62462" lon="5.03692">
        <ele>292</ele>
        <time>2022-08-18T10:08:13Z</time>
      </trkpt>
      <trkpt lat="44.62435" lon="5.03719">
        <ele>293</ele>
        <time>2022-08-18T10:08:19Z</time>
      </trkpt>
      <trkpt lat="44.6239" lon="5.03798">
        <ele>294</ele>
        <time>2022-08-18T10:08:32Z</time>
      </trkpt>
      <trkpt lat="44.62375" lon="5.03811">
        <ele>294</ele>
        <time>2022-08-18T10:08:35Z</time>
      </trkpt>
      <trkpt lat="44.62226" lon="5.03886">
        <ele>296</ele>
        <time>2022-08-18T10:09:05Z</time>
      </trkpt>
      <trkpt lat="44.62095" lon="5.03952">
        <ele>300</ele>
        <time>2022-08-18T10:09:35Z</time>
      </trkpt>
      <trkpt lat="44.61996" lon="5.03996">
        <ele>306</ele>
        <time>2022-08-18T10:09:59Z</time>
      </trkpt>
      <trkpt lat="44.6187" lon="5.04023">
        <ele>313</ele>
        <time>2022-08-18T10:10:29Z</time>
      </trkpt>
      <trkpt lat="44.61737" lon="5.04036">
        <ele>316</ele>
        <time>2022-08-18T10:10:59Z</time>
      </trkpt>
      <trkpt lat="44.61682" lon="5.04043">
        <ele>319</ele>
        <time>2022-08-18T10:11:12Z</time>
      </trkpt>
      <trkpt lat="44.61604" lon="5.04089">
        <ele>322</ele>
        <time>2022-08-18T10:11:30Z</time>
      </trkpt>
      <trkpt lat="44.61584" lon="5.04109">
        <ele>323</ele>
        <time>2022-08-18T10:11:35Z</time>
      </trkpt>
      <trkpt lat="44.61527" lon="5.04195">
        <ele>327</ele>
        <time>2022-08-18T10:11:53Z</time>
      </trkpt>
      <trkpt lat="44.61461" lon="5.04248">
        <ele>330</ele>
        <time>2022-08-18T10:12:10Z</time>
      </trkpt>
      <trkpt lat="44.61448" lon="5.04252">
        <ele>330</ele>
        <time>2022-08-18T10:12:13Z</time>
      </trkpt>
      <trkpt lat="44.61352" lon="5.04255">
        <ele>332</ele>
        <time>2022-08-18T10:12:35Z</time>
      </trkpt>
      <trkpt lat="44.61312" lon="5.04247">
        <ele>334</ele>
        <time>2022-08-18T10:12:44Z</time>
      </trkpt>
      <trkpt lat="44.61278" lon="5.04222">
        <ele>337</ele>
        <time>2022-08-18T10:12:53Z</time>
      </trkpt>
      <trkpt lat="44.61242" lon="5.04183">
        <ele>338</ele>
        <time>2022-08-18T10:13:04Z</time>
      </trkpt>
      <trkpt lat="44.61133" lon="5.04131">
        <ele>338</ele>
        <time>2022-08-18T10:13:28Z</time>
      </trkpt>
      <trkpt lat="44.6101" lon="5.04119">
        <ele>340</ele>
        <time>2022-08-18T10:13:54Z</time>
      </trkpt>
      <trkpt lat="44.60931" lon="5.04122">
        <ele>336</ele>
        <time>2022-08-18T10:14:08Z</time>
      </trkpt>
      <trkpt lat="44.60899" lon="5.04113">
        <ele>335</ele>
        <time>2022-08-18T10:14:13Z</time>
      </trkpt>
      <trkpt lat="44.60895" lon="5.04118">
        <ele>334</ele>
        <time>2022-08-18T10:14:14Z</time>
      </trkpt>
      <trkpt lat="44.60894" lon="5.04126">
        <ele>334</ele>
        <time>2022-08-18T10:14:15Z</time>
      </trkpt>
      <trkpt lat="44.60952" lon="5.04255">
        <ele>324</ele>
        <time>2022-08-18T10:14:27Z</time>
      </trkpt>
      <trkpt lat="44.61006" lon="5.04403">
        <ele>326</ele>
        <time>2022-08-18T10:14:44Z</time>
      </trkpt>
      <trkpt lat="44.6102" lon="5.04458">
        <ele>327</ele>
        <time>2022-08-18T10:14:53Z</time>
      </trkpt>
      <trkpt lat="44.61086" lon="5.04658">
        <ele>327</ele>
        <time>2022-08-18T10:15:23Z</time>
      </trkpt>
      <trkpt lat="44.61148" lon="5.0486">
        <ele>329</ele>
        <time>2022-08-18T10:15:53Z</time>
      </trkpt>
      <trkpt lat="44.61179" lon="5.04961">
        <ele>332</ele>
        <time>2022-08-18T10:16:08Z</time>
      </trkpt>
      <trkpt lat="44.6119" lon="5.04981">
        <ele>333</ele>
        <time>2022-08-18T10:16:12Z</time>
      </trkpt>
      <trkpt lat="44.61222" lon="5.05017">
        <ele>336</ele>
        <time>2022-08-18T10:16:22Z</time>
      </trkpt>
      <trkpt lat="44.61314" lon="5.05169">
        <ele>338</ele>
        <time>2022-08-18T10:16:52Z</time>
      </trkpt>
      <trkpt lat="44.61442" lon="5.0537">
        <ele>332</ele>
        <time>2022-08-18T10:17:22Z</time>
      </trkpt>
      <trkpt lat="44.61456" lon="5.05391">
        <ele>331</ele>
        <time>2022-08-18T10:17:25Z</time>
      </trkpt>
      <trkpt lat="44.61468" lon="5.05399">
        <ele>331</ele>
        <time>2022-08-18T10:17:27Z</time>
      </trkpt>
      <trkpt lat="44.61479" lon="5.05403">
        <ele>332</ele>
        <time>2022-08-18T10:17:29Z</time>
      </trkpt>
      <trkpt lat="44.61488" lon="5.0541">
        <ele>332</ele>
        <time>2022-08-18T10:17:31Z</time>
      </trkpt>
      <trkpt lat="44.615" lon="5.05427">
        <ele>333</ele>
        <time>2022-08-18T10:17:35Z</time>
      </trkpt>
      <trkpt lat="44.61537" lon="5.05531">
        <ele>334</ele>
        <time>2022-08-18T10:17:55Z</time>
      </trkpt>
      <trkpt lat="44.6154" lon="5.05548">
        <ele>333</ele>
        <time>2022-08-18T10:17:57Z</time>
      </trkpt>
      <trkpt lat="44.61542" lon="5.05689">
        <ele>328</ele>
        <time>2022-08-18T10:18:09Z</time>
      </trkpt>
      <trkpt lat="44.61547" lon="5.0571">
        <ele>328</ele>
        <time>2022-08-18T10:18:11Z</time>
      </trkpt>
      <trkpt lat="44.61571" lon="5.05762">
        <ele>330</ele>
        <time>2022-08-18T10:18:18Z</time>
      </trkpt>
      <trkpt lat="44.61648" lon="5.05869">
        <ele>333</ele>
        <time>2022-08-18T10:18:37Z</time>
      </trkpt>
      <trkpt lat="44.6168" lon="5.05944">
        <ele>336</ele>
        <time>2022-08-18T10:18:49Z</time>
      </trkpt>
      <trkpt lat="44.61683" lon="5.05955">
        <ele>336</ele>
        <time>2022-08-18T10:18:51Z</time>
      </trkpt>
      <trkpt lat="44.61685" lon="5.05975">
        <ele>337</ele>
        <time>2022-08-18T10:18:55Z</time>
      </trkpt>
      <trkpt lat="44.61669" lon="5.06094">
        <ele>338</ele>
        <time>2022-08-18T10:19:13Z</time>
      </trkpt>
      <trkpt lat="44.6167" lon="5.06103">
        <ele>338</ele>
        <time>2022-08-18T10:19:14Z</time>
      </trkpt>
      <trkpt lat="44.61674" lon="5.06118">
        <ele>338</ele>
        <time>2022-08-18T10:19:16Z</time>
      </trkpt>
      <trkpt lat="44.6168" lon="5.06128">
        <ele>339</ele>
        <time>2022-08-18T10:19:18Z</time>
      </trkpt>
      <trkpt lat="44.61705" lon="5.0615">
        <ele>341</ele>
        <time>2022-08-18T10:19:25Z</time>
      </trkpt>
      <trkpt lat="44.61729" lon="5.06197">
        <ele>343</ele>
        <time>2022-08-18T10:19:36Z</time>
      </trkpt>
      <trkpt lat="44.61747" lon="5.0624">
        <ele>345</ele>
        <time>2022-08-18T10:19:45Z</time>
      </trkpt>
      <trkpt lat="44.61751" lon="5.06272">
        <ele>345</ele>
        <time>2022-08-18T10:19:50Z</time>
      </trkpt>
      <trkpt lat="44.61754" lon="5.0628">
        <ele>345</ele>
        <time>2022-08-18T10:19:51Z</time>
      </trkpt>
      <trkpt lat="44.61832" lon="5.0639">
        <ele>348</ele>
        <time>2022-08-18T10:20:14Z</time>
      </trkpt>
      <trkpt lat="44.61848" lon="5.06437">
        <ele>350</ele>
        <time>2022-08-18T10:20:24Z</time>
      </trkpt>
      <trkpt lat="44.61855" lon="5.06481">
        <ele>353</ele>
        <time>2022-08-18T10:20:34Z</time>
      </trkpt>
      <trkpt lat="44.6185" lon="5.06554">
        <ele>352</ele>
        <time>2022-08-18T10:20:47Z</time>
      </trkpt>
      <trkpt lat="44.61829" lon="5.06637">
        <ele>351</ele>
        <time>2022-08-18T10:20:57Z</time>
      </trkpt>
      <trkpt lat="44.61828" lon="5.06647">
        <ele>350</ele>
        <time>2022-08-18T10:20:58Z</time>
      </trkpt>
      <trkpt lat="44.61861" lon="5.06781">
        <ele>347</ele>
        <time>2022-08-18T10:21:13Z</time>
      </trkpt>
      <trkpt lat="44.61872" lon="5.06822">
        <ele>346</ele>
        <time>2022-08-18T10:21:18Z</time>
      </trkpt>
      <trkpt lat="44.6191" lon="5.07044">
        <ele>345</ele>
        <time>2022-08-18T10:21:48Z</time>
      </trkpt>
      <trkpt lat="44.61917" lon="5.07073">
        <ele>343</ele>
        <time>2022-08-18T10:21:51Z</time>
      </trkpt>
      <trkpt lat="44.61977" lon="5.07202">
        <ele>340</ele>
        <time>2022-08-18T10:22:06Z</time>
      </trkpt>
      <trkpt lat="44.62052" lon="5.0733">
        <ele>341</ele>
        <time>2022-08-18T10:22:27Z</time>
      </trkpt>
      <trkpt lat="44.62088" lon="5.07436">
        <ele>338</ele>
        <time>2022-08-18T10:22:41Z</time>
      </trkpt>
      <trkpt lat="44.62098" lon="5.07491">
        <ele>337</ele>
        <time>2022-08-18T10:22:47Z</time>
      </trkpt>
      <trkpt lat="44.62103" lon="5.07555">
        <ele>334</ele>
        <time>2022-08-18T10:22:53Z</time>
      </trkpt>
      <trkpt lat="44.62147" lon="5.077">
        <ele>336</ele>
        <time>2022-08-18T10:23:11Z</time>
      </trkpt>
      <trkpt lat="44.62195" lon="5.07788">
        <ele>335</ele>
        <time>2022-08-18T10:23:23Z</time>
      </trkpt>
      <trkpt lat="44.62245" lon="5.07857">
        <ele>334</ele>
        <time>2022-08-18T10:23:33Z</time>
      </trkpt>
      <trkpt lat="44.62252" lon="5.07874">
        <ele>334</ele>
        <time>2022-08-18T10:23:35Z</time>
      </trkpt>
      <trkpt lat="44.62254" lon="5.07883">
        <ele>334</ele>
        <time>2022-08-18T10:23:36Z</time>
      </trkpt>
      <trkpt lat="44.62251" lon="5.0793">
        <ele>335</ele>
        <time>2022-08-18T10:23:42Z</time>
      </trkpt>
      <trkpt lat="44.62243" lon="5.07972">
        <ele>337</ele>
        <time>2022-08-18T10:23:50Z</time>
      </trkpt>
      <trkpt lat="44.62244" lon="5.07982">
        <ele>337</ele>
        <time>2022-08-18T10:23:52Z</time>
      </trkpt>
      <trkpt lat="44.62248" lon="5.07996">
        <ele>338</ele>
        <time>2022-08-18T10:23:55Z</time>
      </trkpt>
      <trkpt lat="44.62269" lon="5.08046">
        <ele>340</ele>
        <time>2022-08-18T10:24:07Z</time>
      </trkpt>
      <trkpt lat="44.62299" lon="5.08182">
        <ele>346</ele>
        <time>2022-08-18T10:24:36Z</time>
      </trkpt>
      <trkpt lat="44.62347" lon="5.08268">
        <ele>347</ele>
        <time>2022-08-18T10:24:54Z</time>
      </trkpt>
      <trkpt lat="44.62397" lon="5.08364">
        <ele>346</ele>
        <time>2022-08-18T10:25:14Z</time>
      </trkpt>
      <trkpt lat="44.62398" lon="5.08369">
        <ele>346</ele>
        <time>2022-08-18T10:25:15Z</time>
      </trkpt>
      <trkpt lat="44.62392" lon="5.08414">
        <ele>345</ele>
        <time>2022-08-18T10:25:21Z</time>
      </trkpt>
      <trkpt lat="44.62385" lon="5.08509">
        <ele>343</ele>
        <time>2022-08-18T10:25:34Z</time>
      </trkpt>
      <trkpt lat="44.62387" lon="5.08514">
        <ele>343</ele>
        <time>2022-08-18T10:25:35Z</time>
      </trkpt>
      <trkpt lat="44.62389" lon="5.08519">
        <ele>343</ele>
        <time>2022-08-18T10:25:36Z</time>
      </trkpt>
      <trkpt lat="44.62392" lon="5.08522">
        <ele>343</ele>
        <time>2022-08-18T10:25:37Z</time>
      </trkpt>
      <trkpt lat="44.62422" lon="5.08525">
        <ele>344</ele>
        <time>2022-08-18T10:25:44Z</time>
      </trkpt>
      <trkpt lat="44.62433" lon="5.08533">
        <ele>344</ele>
        <time>2022-08-18T10:25:47Z</time>
      </trkpt>
      <trkpt lat="44.62455" lon="5.08554">
        <ele>346</ele>
        <time>2022-08-18T10:25:54Z</time>
      </trkpt>
      <trkpt lat="44.62463" lon="5.08569">
        <ele>346</ele>
        <time>2022-08-18T10:25:58Z</time>
      </trkpt>
      <trkpt lat="44.6247" lon="5.08592">
        <ele>348</ele>
        <time>2022-08-18T10:26:03Z</time>
      </trkpt>
      <trkpt lat="44.62476" lon="5.08631">
        <ele>350</ele>
        <time>2022-08-18T10:26:11Z</time>
      </trkpt>
      <trkpt lat="44.62476" lon="5.08636">
        <ele>350</ele>
        <time>2022-08-18T10:26:12Z</time>
      </trkpt>
      <trkpt lat="44.62476" lon="5.08641">
        <ele>350</ele>
        <time>2022-08-18T10:26:13Z</time>
      </trkpt>
      <trkpt lat="44.62474" lon="5.08645">
        <ele>350</ele>
        <time>2022-08-18T10:26:14Z</time>
      </trkpt>
      <trkpt lat="44.62471" lon="5.08648">
        <ele>350</ele>
        <time>2022-08-18T10:26:15Z</time>
      </trkpt>
      <trkpt lat="44.62468" lon="5.08648">
        <ele>351</ele>
        <time>2022-08-18T10:26:16Z</time>
      </trkpt>
      <trkpt lat="44.62462" lon="5.08644">
        <ele>351</ele>
        <time>2022-08-18T10:26:18Z</time>
      </trkpt>
      <trkpt lat="44.6246" lon="5.08639">
        <ele>351</ele>
        <time>2022-08-18T10:26:19Z</time>
      </trkpt>
      <trkpt lat="44.62457" lon="5.0863">
        <ele>352</ele>
        <time>2022-08-18T10:26:21Z</time>
      </trkpt>
      <trkpt lat="44.62455" lon="5.08626">
        <ele>352</ele>
        <time>2022-08-18T10:26:22Z</time>
      </trkpt>
      <trkpt lat="44.62452" lon="5.08619">
        <ele>352</ele>
        <time>2022-08-18T10:26:24Z</time>
      </trkpt>
      <trkpt lat="44.62419" lon="5.0858">
        <ele>353</ele>
        <time>2022-08-18T10:26:38Z</time>
      </trkpt>
      <trkpt lat="44.62403" lon="5.08569">
        <ele>352</ele>
        <time>2022-08-18T10:26:43Z</time>
      </trkpt>
      <trkpt lat="44.62395" lon="5.08568">
        <ele>352</ele>
        <time>2022-08-18T10:26:45Z</time>
      </trkpt>
      <trkpt lat="44.62391" lon="5.08569">
        <ele>352</ele>
        <time>2022-08-18T10:26:46Z</time>
      </trkpt>
      <trkpt lat="44.6237" lon="5.08583">
        <ele>352</ele>
        <time>2022-08-18T10:26:53Z</time>
      </trkpt>
      <trkpt lat="44.62365" lon="5.08583">
        <ele>352</ele>
        <time>2022-08-18T10:26:55Z</time>
      </trkpt>
      <trkpt lat="44.62359" lon="5.08583">
        <ele>352</ele>
        <time>2022-08-18T10:26:57Z</time>
      </trkpt>
      <trkpt lat="44.62348" lon="5.08585">
        <ele>355</ele>
        <time>2022-08-18T10:27:01Z</time>
      </trkpt>
      <trkpt lat="44.62344" lon="5.08584">
        <ele>356</ele>
        <time>2022-08-18T10:27:02Z</time>
      </trkpt>
      <trkpt lat="44.62319" lon="5.08566">
        <ele>355</ele>
        <time>2022-08-18T10:27:09Z</time>
      </trkpt>
      <trkpt lat="44.62312" lon="5.08564">
        <ele>355</ele>
        <time>2022-08-18T10:27:11Z</time>
      </trkpt>
      <trkpt lat="44.62252" lon="5.0857">
        <ele>357</ele>
        <time>2022-08-18T10:27:30Z</time>
      </trkpt>
      <trkpt lat="44.62161" lon="5.08537">
        <ele>353</ele>
        <time>2022-08-18T10:27:50Z</time>
      </trkpt>
      <trkpt lat="44.62032" lon="5.08545">
        <ele>355</ele>
        <time>2022-08-18T10:28:20Z</time>
      </trkpt>
      <trkpt lat="44.62023" lon="5.08547">
        <ele>355</ele>
        <time>2022-08-18T10:28:23Z</time>
      </trkpt>
      <trkpt lat="44.62002" lon="5.08554">
        <ele>356</ele>
        <time>2022-08-18T10:28:29Z</time>
      </trkpt>
      <trkpt lat="44.61888" lon="5.08572">
        <ele>359</ele>
        <time>2022-08-18T10:28:59Z</time>
      </trkpt>
      <trkpt lat="44.61873" lon="5.08575">
        <ele>360</ele>
        <time>2022-08-18T10:29:03Z</time>
      </trkpt>
      <trkpt lat="44.61789" lon="5.08621">
        <ele>365</ele>
        <time>2022-08-18T10:29:27Z</time>
      </trkpt>
      <trkpt lat="44.61767" lon="5.0862">
        <ele>366</ele>
        <time>2022-08-18T10:29:33Z</time>
      </trkpt>
      <trkpt lat="44.61695" lon="5.08605">
        <ele>368</ele>
        <time>2022-08-18T10:29:53Z</time>
      </trkpt>
      <trkpt lat="44.61685" lon="5.08596">
        <ele>369</ele>
        <time>2022-08-18T10:29:56Z</time>
      </trkpt>
      <trkpt lat="44.61683" lon="5.08592">
        <ele>369</ele>
        <time>2022-08-18T10:29:57Z</time>
      </trkpt>
      <trkpt lat="44.61678" lon="5.08584">
        <ele>369</ele>
        <time>2022-08-18T10:29:59Z</time>
      </trkpt>
      <trkpt lat="44.61647" lon="5.08436">
        <ele>373</ele>
        <time>2022-08-18T10:30:29Z</time>
      </trkpt>
      <trkpt lat="44.61645" lon="5.08427">
        <ele>374</ele>
        <time>2022-08-18T10:30:31Z</time>
      </trkpt>
      <trkpt lat="44.61624" lon="5.08388">
        <ele>378</ele>
        <time>2022-08-18T10:30:43Z</time>
      </trkpt>
      <trkpt lat="44.61599" lon="5.08349">
        <ele>381</ele>
        <time>2022-08-18T10:30:57Z</time>
      </trkpt>
      <trkpt lat="44.61593" lon="5.08336">
        <ele>382</ele>
        <time>2022-08-18T10:31:01Z</time>
      </trkpt>
      <trkpt lat="44.61574" lon="5.08264">
        <ele>388</ele>
        <time>2022-08-18T10:31:23Z</time>
      </trkpt>
      <trkpt lat="44.61534" lon="5.08188">
        <ele>392</ele>
        <time>2022-08-18T10:31:49Z</time>
      </trkpt>
      <trkpt lat="44.61516" lon="5.08168">
        <ele>394</ele>
        <time>2022-08-18T10:31:57Z</time>
      </trkpt>
      <trkpt lat="44.615" lon="5.08159">
        <ele>395</ele>
        <time>2022-08-18T10:32:03Z</time>
      </trkpt>
      <trkpt lat="44.61477" lon="5.08153">
        <ele>396</ele>
        <time>2022-08-18T10:32:11Z</time>
      </trkpt>
      <trkpt lat="44.61467" lon="5.08148">
        <ele>397</ele>
        <time>2022-08-18T10:32:15Z</time>
      </trkpt>
      <trkpt lat="44.61434" lon="5.08136">
        <ele>400</ele>
        <time>2022-08-18T10:32:27Z</time>
      </trkpt>
      <trkpt lat="44.61412" lon="5.08117">
        <ele>402</ele>
        <time>2022-08-18T10:32:35Z</time>
      </trkpt>
      <trkpt lat="44.61407" lon="5.08109">
        <ele>402</ele>
        <time>2022-08-18T10:32:37Z</time>
      </trkpt>
      <trkpt lat="44.61405" lon="5.08104">
        <ele>402</ele>
        <time>2022-08-18T10:32:38Z</time>
      </trkpt>
      <trkpt lat="44.61406" lon="5.08098">
        <ele>402</ele>
        <time>2022-08-18T10:32:39Z</time>
      </trkpt>
      <trkpt lat="44.61407" lon="5.08093">
        <ele>402</ele>
        <time>2022-08-18T10:32:40Z</time>
      </trkpt>
      <trkpt lat="44.61416" lon="5.0808">
        <ele>402</ele>
        <time>2022-08-18T10:32:43Z</time>
      </trkpt>
      <trkpt lat="44.61419" lon="5.08076">
        <ele>402</ele>
        <time>2022-08-18T10:32:44Z</time>
      </trkpt>
      <trkpt lat="44.61423" lon="5.08074">
        <ele>402</ele>
        <time>2022-08-18T10:32:45Z</time>
      </trkpt>
      <trkpt lat="44.6144" lon="5.08071">
        <ele>404</ele>
        <time>2022-08-18T10:32:51Z</time>
      </trkpt>
      <trkpt lat="44.61446" lon="5.0807">
        <ele>404</ele>
        <time>2022-08-18T10:32:53Z</time>
      </trkpt>
      <trkpt lat="44.61451" lon="5.08066">
        <ele>405</ele>
        <time>2022-08-18T10:32:55Z</time>
      </trkpt>
      <trkpt lat="44.61466" lon="5.08041">
        <ele>407</ele>
        <time>2022-08-18T10:33:03Z</time>
      </trkpt>
      <trkpt lat="44.61514" lon="5.07986">
        <ele>412</ele>
        <time>2022-08-18T10:33:25Z</time>
      </trkpt>
      <trkpt lat="44.61548" lon="5.07936">
        <ele>417</ele>
        <time>2022-08-18T10:33:43Z</time>
      </trkpt>
      <trkpt lat="44.61558" lon="5.07927">
        <ele>417</ele>
        <time>2022-08-18T10:33:47Z</time>
      </trkpt>
      <trkpt lat="44.6157" lon="5.07922">
        <ele>418</ele>
        <time>2022-08-18T10:33:51Z</time>
      </trkpt>
      <trkpt lat="44.61588" lon="5.07907">
        <ele>420</ele>
        <time>2022-08-18T10:33:59Z</time>
      </trkpt>
      <trkpt lat="44.61617" lon="5.07868">
        <ele>422</ele>
        <time>2022-08-18T10:34:13Z</time>
      </trkpt>
      <trkpt lat="44.61623" lon="5.07855">
        <ele>423</ele>
        <time>2022-08-18T10:34:17Z</time>
      </trkpt>
      <trkpt lat="44.61625" lon="5.07847">
        <ele>424</ele>
        <time>2022-08-18T10:34:19Z</time>
      </trkpt>
      <trkpt lat="44.61625" lon="5.07839">
        <ele>424</ele>
        <time>2022-08-18T10:34:21Z</time>
      </trkpt>
      <trkpt lat="44.61623" lon="5.07831">
        <ele>425</ele>
        <time>2022-08-18T10:34:23Z</time>
      </trkpt>
      <trkpt lat="44.61608" lon="5.07806">
        <ele>428</ele>
        <time>2022-08-18T10:34:31Z</time>
      </trkpt>
      <trkpt lat="44.61555" lon="5.07741">
        <ele>435</ele>
        <time>2022-08-18T10:34:57Z</time>
      </trkpt>
      <trkpt lat="44.61544" lon="5.07734">
        <ele>435</ele>
        <time>2022-08-18T10:35:01Z</time>
      </trkpt>
      <trkpt lat="44.61481" lon="5.07717">
        <ele>441</ele>
        <time>2022-08-18T10:35:23Z</time>
      </trkpt>
      <trkpt lat="44.61464" lon="5.07718">
        <ele>441</ele>
        <time>2022-08-18T10:35:29Z</time>
      </trkpt>
      <trkpt lat="44.61426" lon="5.07737">
        <ele>445</ele>
        <time>2022-08-18T10:35:43Z</time>
      </trkpt>
      <trkpt lat="44.61394" lon="5.07766">
        <ele>449</ele>
        <time>2022-08-18T10:35:55Z</time>
      </trkpt>
      <trkpt lat="44.61346" lon="5.07824">
        <ele>452</ele>
        <time>2022-08-18T10:36:15Z</time>
      </trkpt>
      <trkpt lat="44.61326" lon="5.07839">
        <ele>453</ele>
        <time>2022-08-18T10:36:23Z</time>
      </trkpt>
      <trkpt lat="44.61308" lon="5.07842">
        <ele>455</ele>
        <time>2022-08-18T10:36:29Z</time>
      </trkpt>
      <trkpt lat="44.6129" lon="5.07842">
        <ele>456</ele>
        <time>2022-08-18T10:36:35Z</time>
      </trkpt>
      <trkpt lat="44.61272" lon="5.07848">
        <ele>458</ele>
        <time>2022-08-18T10:36:41Z</time>
      </trkpt>
      <trkpt lat="44.61246" lon="5.07876">
        <ele>460</ele>
        <time>2022-08-18T10:36:50Z</time>
      </trkpt>
      <trkpt lat="44.61229" lon="5.07902">
        <ele>462</ele>
        <time>2022-08-18T10:36:57Z</time>
      </trkpt>
      <trkpt lat="44.61222" lon="5.07924">
        <ele>463</ele>
        <time>2022-08-18T10:37:02Z</time>
      </trkpt>
      <trkpt lat="44.61219" lon="5.07939">
        <ele>463</ele>
        <time>2022-08-18T10:37:05Z</time>
      </trkpt>
      <trkpt lat="44.61216" lon="5.07948">
        <ele>463</ele>
        <time>2022-08-18T10:37:07Z</time>
      </trkpt>
      <trkpt lat="44.61197" lon="5.07973">
        <ele>465</ele>
        <time>2022-08-18T10:37:15Z</time>
      </trkpt>
      <trkpt lat="44.61182" lon="5.08019">
        <ele>468</ele>
        <time>2022-08-18T10:37:27Z</time>
      </trkpt>
      <trkpt lat="44.61181" lon="5.08028">
        <ele>469</ele>
        <time>2022-08-18T10:37:29Z</time>
      </trkpt>
      <trkpt lat="44.61181" lon="5.08036">
        <ele>469</ele>
        <time>2022-08-18T10:37:31Z</time>
      </trkpt>
      <trkpt lat="44.61184" lon="5.08045">
        <ele>470</ele>
        <time>2022-08-18T10:37:33Z</time>
      </trkpt>
      <trkpt lat="44.61188" lon="5.08054">
        <ele>471</ele>
        <time>2022-08-18T10:37:35Z</time>
      </trkpt>
      <trkpt lat="44.61189" lon="5.08062">
        <ele>471</ele>
        <time>2022-08-18T10:37:37Z</time>
      </trkpt>
      <trkpt lat="44.61185" lon="5.08067">
        <ele>472</ele>
        <time>2022-08-18T10:37:39Z</time>
      </trkpt>
      <trkpt lat="44.61179" lon="5.08068">
        <ele>472</ele>
        <time>2022-08-18T10:37:41Z</time>
      </trkpt>
      <trkpt lat="44.61173" lon="5.08056">
        <ele>472</ele>
        <time>2022-08-18T10:37:44Z</time>
      </trkpt>
      <trkpt lat="44.61172" lon="5.08044">
        <ele>473</ele>
        <time>2022-08-18T10:37:46Z</time>
      </trkpt>
      <trkpt lat="44.61167" lon="5.08006">
        <ele>476</ele>
        <time>2022-08-18T10:37:54Z</time>
      </trkpt>
      <trkpt lat="44.61163" lon="5.07989">
        <ele>478</ele>
        <time>2022-08-18T10:37:58Z</time>
      </trkpt>
      <trkpt lat="44.61138" lon="5.07941">
        <ele>482</ele>
        <time>2022-08-18T10:38:12Z</time>
      </trkpt>
      <trkpt lat="44.61126" lon="5.0791">
        <ele>486</ele>
        <time>2022-08-18T10:38:20Z</time>
      </trkpt>
      <trkpt lat="44.61118" lon="5.07897">
        <ele>487</ele>
        <time>2022-08-18T10:38:24Z</time>
      </trkpt>
      <trkpt lat="44.61108" lon="5.07888">
        <ele>488</ele>
        <time>2022-08-18T10:38:28Z</time>
      </trkpt>
      <trkpt lat="44.61103" lon="5.07885">
        <ele>488</ele>
        <time>2022-08-18T10:38:30Z</time>
      </trkpt>
      <trkpt lat="44.61093" lon="5.07879">
        <ele>489</ele>
        <time>2022-08-18T10:38:34Z</time>
      </trkpt>
      <trkpt lat="44.61086" lon="5.07867">
        <ele>491</ele>
        <time>2022-08-18T10:38:38Z</time>
      </trkpt>
      <trkpt lat="44.61084" lon="5.07853">
        <ele>491</ele>
        <time>2022-08-18T10:38:42Z</time>
      </trkpt>
      <trkpt lat="44.61072" lon="5.07826">
        <ele>491</ele>
        <time>2022-08-18T10:38:50Z</time>
      </trkpt>
      <trkpt lat="44.61069" lon="5.0782">
        <ele>491</ele>
        <time>2022-08-18T10:38:52Z</time>
      </trkpt>
      <trkpt lat="44.61066" lon="5.07813">
        <ele>491</ele>
        <time>2022-08-18T10:38:54Z</time>
      </trkpt>
      <trkpt lat="44.61066" lon="5.07797">
        <ele>492</ele>
        <time>2022-08-18T10:38:58Z</time>
      </trkpt>
      <trkpt lat="44.61069" lon="5.07781">
        <ele>492</ele>
        <time>2022-08-18T10:39:02Z</time>
      </trkpt>
      <trkpt lat="44.61069" lon="5.07773">
        <ele>493</ele>
        <time>2022-08-18T10:39:04Z</time>
      </trkpt>
      <trkpt lat="44.61068" lon="5.07765">
        <ele>494</ele>
        <time>2022-08-18T10:39:06Z</time>
      </trkpt>
      <trkpt lat="44.61035" lon="5.07708">
        <ele>498</ele>
        <time>2022-08-18T10:39:24Z</time>
      </trkpt>
      <trkpt lat="44.61028" lon="5.07686">
        <ele>499</ele>
        <time>2022-08-18T10:39:30Z</time>
      </trkpt>
      <trkpt lat="44.61007" lon="5.07654">
        <ele>503</ele>
        <time>2022-08-18T10:39:40Z</time>
      </trkpt>
      <trkpt lat="44.61001" lon="5.0765">
        <ele>504</ele>
        <time>2022-08-18T10:39:42Z</time>
      </trkpt>
      <trkpt lat="44.60997" lon="5.0765">
        <ele>504</ele>
        <time>2022-08-18T10:39:43Z</time>
      </trkpt>
      <trkpt lat="44.60994" lon="5.07651">
        <ele>505</ele>
        <time>2022-08-18T10:39:44Z</time>
      </trkpt>
      <trkpt lat="44.60993" lon="5.0766">
        <ele>505</ele>
        <time>2022-08-18T10:39:46Z</time>
      </trkpt>
      <trkpt lat="44.61011" lon="5.07682">
        <ele>506</ele>
        <time>2022-08-18T10:39:54Z</time>
      </trkpt>
      <trkpt lat="44.61014" lon="5.07689">
        <ele>505</ele>
        <time>2022-08-18T10:39:56Z</time>
      </trkpt>
      <trkpt lat="44.61029" lon="5.07786">
        <ele>513</ele>
        <time>2022-08-18T10:40:22Z</time>
      </trkpt>
      <trkpt lat="44.61028" lon="5.07814">
        <ele>515</ele>
        <time>2022-08-18T10:40:30Z</time>
      </trkpt>
      <trkpt lat="44.6103" lon="5.07838">
        <ele>520</ele>
        <time>2022-08-18T10:40:36Z</time>
      </trkpt>
      <trkpt lat="44.61043" lon="5.07875">
        <ele>523</ele>
        <time>2022-08-18T10:40:48Z</time>
      </trkpt>
      <trkpt lat="44.61041" lon="5.07916">
        <ele>525</ele>
        <time>2022-08-18T10:40:58Z</time>
      </trkpt>
      <trkpt lat="44.61065" lon="5.07985">
        <ele>527</ele>
        <time>2022-08-18T10:41:18Z</time>
      </trkpt>
      <trkpt lat="44.61064" lon="5.08">
        <ele>527</ele>
        <time>2022-08-18T10:41:22Z</time>
      </trkpt>
      <trkpt lat="44.61058" lon="5.08021">
        <ele>528</ele>
        <time>2022-08-18T10:41:28Z</time>
      </trkpt>
      <trkpt lat="44.61041" lon="5.08057">
        <ele>530</ele>
        <time>2022-08-18T10:41:40Z</time>
      </trkpt>
      <trkpt lat="44.61031" lon="5.08076">
        <ele>531</ele>
        <time>2022-08-18T10:41:46Z</time>
      </trkpt>
      <trkpt lat="44.61021" lon="5.08106">
        <ele>532</ele>
        <time>2022-08-18T10:41:54Z</time>
      </trkpt>
      <trkpt lat="44.61019" lon="5.08143">
        <ele>531</ele>
        <time>2022-08-18T10:42:04Z</time>
      </trkpt>
      <trkpt lat="44.61022" lon="5.08173">
        <ele>533</ele>
        <time>2022-08-18T10:42:12Z</time>
      </trkpt>
      <trkpt lat="44.61021" lon="5.0818">
        <ele>533</ele>
        <time>2022-08-18T10:42:14Z</time>
      </trkpt>
      <trkpt lat="44.6102" lon="5.08187">
        <ele>534</ele>
        <time>2022-08-18T10:42:16Z</time>
      </trkpt>
      <trkpt lat="44.61025" lon="5.08203">
        <ele>536</ele>
        <time>2022-08-18T10:42:20Z</time>
      </trkpt>
      <trkpt lat="44.61034" lon="5.08226">
        <ele>540</ele>
        <time>2022-08-18T10:42:26Z</time>
      </trkpt>
      <trkpt lat="44.6105" lon="5.08253">
        <ele>547</ele>
        <time>2022-08-18T10:42:36Z</time>
      </trkpt>
      <trkpt lat="44.61064" lon="5.08281">
        <ele>549</ele>
        <time>2022-08-18T10:42:46Z</time>
      </trkpt>
      <trkpt lat="44.61069" lon="5.08295">
        <ele>550</ele>
        <time>2022-08-18T10:42:50Z</time>
      </trkpt>
      <trkpt lat="44.61083" lon="5.08353">
        <ele>552</ele>
        <time>2022-08-18T10:43:06Z</time>
      </trkpt>
      <trkpt lat="44.61083" lon="5.08405">
        <ele>553</ele>
        <time>2022-08-18T10:43:20Z</time>
      </trkpt>
      <trkpt lat="44.61081" lon="5.08428">
        <ele>555</ele>
        <time>2022-08-18T10:43:26Z</time>
      </trkpt>
      <trkpt lat="44.61081" lon="5.08444">
        <ele>556</ele>
        <time>2022-08-18T10:43:30Z</time>
      </trkpt>
      <trkpt lat="44.61105" lon="5.08517">
        <ele>561</ele>
        <time>2022-08-18T10:43:50Z</time>
      </trkpt>
      <trkpt lat="44.61108" lon="5.08525">
        <ele>562</ele>
        <time>2022-08-18T10:43:52Z</time>
      </trkpt>
      <trkpt lat="44.61113" lon="5.08541">
        <ele>562</ele>
        <time>2022-08-18T10:43:56Z</time>
      </trkpt>
      <trkpt lat="44.61114" lon="5.08549">
        <ele>563</ele>
        <time>2022-08-18T10:43:58Z</time>
      </trkpt>
      <trkpt lat="44.61114" lon="5.08558">
        <ele>563</ele>
        <time>2022-08-18T10:44:00Z</time>
      </trkpt>
      <trkpt lat="44.6111" lon="5.08575">
        <ele>564</ele>
        <time>2022-08-18T10:44:04Z</time>
      </trkpt>
      <trkpt lat="44.61102" lon="5.08588">
        <ele>565</ele>
        <time>2022-08-18T10:44:08Z</time>
      </trkpt>
      <trkpt lat="44.61092" lon="5.08598">
        <ele>566</ele>
        <time>2022-08-18T10:44:12Z</time>
      </trkpt>
      <trkpt lat="44.61074" lon="5.08602">
        <ele>567</ele>
        <time>2022-08-18T10:44:18Z</time>
      </trkpt>
      <trkpt lat="44.60984" lon="5.08605">
        <ele>572</ele>
        <time>2022-08-18T10:44:48Z</time>
      </trkpt>
      <trkpt lat="44.60955" lon="5.08606">
        <ele>575</ele>
        <time>2022-08-18T10:44:58Z</time>
      </trkpt>
      <trkpt lat="44.60932" lon="5.08598">
        <ele>576</ele>
        <time>2022-08-18T10:45:06Z</time>
      </trkpt>
      <trkpt lat="44.60918" lon="5.08585">
        <ele>578</ele>
        <time>2022-08-18T10:45:12Z</time>
      </trkpt>
      <trkpt lat="44.60869" lon="5.08497">
        <ele>584</ele>
        <time>2022-08-18T10:45:42Z</time>
      </trkpt>
      <trkpt lat="44.60813" lon="5.08406">
        <ele>589</ele>
        <time>2022-08-18T10:46:12Z</time>
      </trkpt>
      <trkpt lat="44.60796" lon="5.08382">
        <ele>590</ele>
        <time>2022-08-18T10:46:20Z</time>
      </trkpt>
      <trkpt lat="44.6079" lon="5.08383">
        <ele>590</ele>
        <time>2022-08-18T10:46:22Z</time>
      </trkpt>
      <trkpt lat="44.60788" lon="5.08387">
        <ele>591</ele>
        <time>2022-08-18T10:46:23Z</time>
      </trkpt>
      <trkpt lat="44.60786" lon="5.08395">
        <ele>591</ele>
        <time>2022-08-18T10:46:25Z</time>
      </trkpt>
      <trkpt lat="44.60793" lon="5.08412">
        <ele>591</ele>
        <time>2022-08-18T10:46:29Z</time>
      </trkpt>
      <trkpt lat="44.60798" lon="5.08428">
        <ele>593</ele>
        <time>2022-08-18T10:46:33Z</time>
      </trkpt>
      <trkpt lat="44.60802" lon="5.08441">
        <ele>595</ele>
        <time>2022-08-18T10:46:36Z</time>
      </trkpt>
      <trkpt lat="44.60803" lon="5.08456">
        <ele>596</ele>
        <time>2022-08-18T10:46:39Z</time>
      </trkpt>
      <trkpt lat="44.60801" lon="5.08474">
        <ele>598</ele>
        <time>2022-08-18T10:46:43Z</time>
      </trkpt>
      <trkpt lat="44.60789" lon="5.08495">
        <ele>598</ele>
        <time>2022-08-18T10:46:49Z</time>
      </trkpt>
      <trkpt lat="44.60784" lon="5.085">
        <ele>598</ele>
        <time>2022-08-18T10:46:51Z</time>
      </trkpt>
      <trkpt lat="44.60778" lon="5.08503">
        <ele>598</ele>
        <time>2022-08-18T10:46:53Z</time>
      </trkpt>
      <trkpt lat="44.60771" lon="5.08504">
        <ele>598</ele>
        <time>2022-08-18T10:46:55Z</time>
      </trkpt>
      <trkpt lat="44.60702" lon="5.08502">
        <ele>601</ele>
        <time>2022-08-18T10:47:13Z</time>
      </trkpt>
      <trkpt lat="44.60694" lon="5.08499">
        <ele>601</ele>
        <time>2022-08-18T10:47:15Z</time>
      </trkpt>
      <trkpt lat="44.60686" lon="5.08501">
        <ele>602</ele>
        <time>2022-08-18T10:47:17Z</time>
      </trkpt>
      <trkpt lat="44.6065" lon="5.0852">
        <ele>603</ele>
        <time>2022-08-18T10:47:27Z</time>
      </trkpt>
      <trkpt lat="44.60642" lon="5.0852">
        <ele>603</ele>
        <time>2022-08-18T10:47:28Z</time>
      </trkpt>
      <trkpt lat="44.60639" lon="5.08523">
        <ele>603</ele>
        <time>2022-08-18T10:47:29Z</time>
      </trkpt>
      <trkpt lat="44.60634" lon="5.08521">
        <ele>602</ele>
        <time>2022-08-18T10:47:30Z</time>
      </trkpt>
      <trkpt lat="44.60631" lon="5.08518">
        <ele>602</ele>
        <time>2022-08-18T10:47:31Z</time>
      </trkpt>
      <trkpt lat="44.60628" lon="5.08516">
        <ele>601</ele>
        <time>2022-08-18T10:47:32Z</time>
      </trkpt>
      <trkpt lat="44.60623" lon="5.08511">
        <ele>600</ele>
        <time>2022-08-18T10:47:34Z</time>
      </trkpt>
      <trkpt lat="44.60598" lon="5.08498">
        <ele>599</ele>
        <time>2022-08-18T10:47:42Z</time>
      </trkpt>
      <trkpt lat="44.60587" lon="5.08492">
        <ele>600</ele>
        <time>2022-08-18T10:47:46Z</time>
      </trkpt>
      <trkpt lat="44.60562" lon="5.0847">
        <ele>600</ele>
        <time>2022-08-18T10:47:55Z</time>
      </trkpt>
      <trkpt lat="44.60524" lon="5.08422">
        <ele>606</ele>
        <time>2022-08-18T10:48:13Z</time>
      </trkpt>
      <trkpt lat="44.60477" lon="5.08348">
        <ele>612</ele>
        <time>2022-08-18T10:48:38Z</time>
      </trkpt>
      <trkpt lat="44.60444" lon="5.08317">
        <ele>616</ele>
        <time>2022-08-18T10:48:54Z</time>
      </trkpt>
      <trkpt lat="44.60439" lon="5.08314">
        <ele>617</ele>
        <time>2022-08-18T10:48:56Z</time>
      </trkpt>
      <trkpt lat="44.60425" lon="5.08302">
        <ele>618</ele>
        <time>2022-08-18T10:49:02Z</time>
      </trkpt>
      <trkpt lat="44.60413" lon="5.08284">
        <ele>618</ele>
        <time>2022-08-18T10:49:08Z</time>
      </trkpt>
      <trkpt lat="44.60406" lon="5.08275">
        <ele>618</ele>
        <time>2022-08-18T10:49:12Z</time>
      </trkpt>
      <trkpt lat="44.60387" lon="5.08263">
        <ele>622</ele>
        <time>2022-08-18T10:49:20Z</time>
      </trkpt>
      <trkpt lat="44.6037" lon="5.08239">
        <ele>624</ele>
        <time>2022-08-18T10:49:27Z</time>
      </trkpt>
      <trkpt lat="44.60313" lon="5.08132">
        <ele>628</ele>
        <time>2022-08-18T10:49:57Z</time>
      </trkpt>
      <trkpt lat="44.60286" lon="5.0806">
        <ele>630</ele>
        <time>2022-08-18T10:50:13Z</time>
      </trkpt>
      <trkpt lat="44.60284" lon="5.08049">
        <ele>633</ele>
        <time>2022-08-18T10:50:15Z</time>
      </trkpt>
      <trkpt lat="44.60287" lon="5.08023">
        <ele>634</ele>
        <time>2022-08-18T10:50:20Z</time>
      </trkpt>
      <trkpt lat="44.60285" lon="5.08012">
        <ele>634</ele>
        <time>2022-08-18T10:50:22Z</time>
      </trkpt>
      <trkpt lat="44.60281" lon="5.08003">
        <ele>635</ele>
        <time>2022-08-18T10:50:24Z</time>
      </trkpt>
      <trkpt lat="44.60244" lon="5.07946">
        <ele>637</ele>
        <time>2022-08-18T10:50:39Z</time>
      </trkpt>
      <trkpt lat="44.60184" lon="5.07895">
        <ele>639</ele>
        <time>2022-08-18T10:50:57Z</time>
      </trkpt>
      <trkpt lat="44.60097" lon="5.07778">
        <ele>643</ele>
        <time>2022-08-18T10:51:27Z</time>
      </trkpt>
      <trkpt lat="44.60052" lon="5.07723">
        <ele>644</ele>
        <time>2022-08-18T10:51:41Z</time>
      </trkpt>
      <trkpt lat="44.60039" lon="5.07686">
        <ele>644</ele>
        <time>2022-08-18T10:51:48Z</time>
      </trkpt>
      <trkpt lat="44.60021" lon="5.07674">
        <ele>643</ele>
        <time>2022-08-18T10:51:52Z</time>
      </trkpt>
      <trkpt lat="44.59986" lon="5.07655">
        <ele>641</ele>
        <time>2022-08-18T10:51:58Z</time>
      </trkpt>
      <trkpt lat="44.59979" lon="5.07654">
        <ele>641</ele>
        <time>2022-08-18T10:51:59Z</time>
      </trkpt>
      <trkpt lat="44.59973" lon="5.07656">
        <ele>641</ele>
        <time>2022-08-18T10:52:00Z</time>
      </trkpt>
      <trkpt lat="44.59969" lon="5.07659">
        <ele>641</ele>
        <time>2022-08-18T10:52:01Z</time>
      </trkpt>
      <trkpt lat="44.59965" lon="5.07664">
        <ele>642</ele>
        <time>2022-08-18T10:52:03Z</time>
      </trkpt>
      <trkpt lat="44.59961" lon="5.07667">
        <ele>641</ele>
        <time>2022-08-18T10:52:05Z</time>
      </trkpt>
      <trkpt lat="44.59958" lon="5.07671">
        <ele>641</ele>
        <time>2022-08-18T10:52:08Z</time>
      </trkpt>
      <trkpt lat="44.59955" lon="5.07674">
        <ele>642</ele>
        <time>2022-08-18T10:52:11Z</time>
      </trkpt>
      <trkpt lat="44.59955" lon="5.07674">
        <ele>643</ele>
        <time>2022-08-18T10:55:07Z</time>
      </trkpt>
      <trkpt lat="44.60099" lon="5.07518">
        <ele>630</ele>
        <time>2022-08-18T10:55:37Z</time>
      </trkpt>
      <trkpt lat="44.60111" lon="5.07498">
        <ele>628</ele>
        <time>2022-08-18T10:55:39Z</time>
      </trkpt>
      <trkpt lat="44.60122" lon="5.07462">
        <ele>626</ele>
        <time>2022-08-18T10:55:42Z</time>
      </trkpt>
      <trkpt lat="44.60133" lon="5.07396">
        <ele>623</ele>
        <time>2022-08-18T10:55:47Z</time>
      </trkpt>
      <trkpt lat="44.60132" lon="5.07353">
        <ele>620</ele>
        <time>2022-08-18T10:55:50Z</time>
      </trkpt>
      <trkpt lat="44.60119" lon="5.07231">
        <ele>613</ele>
        <time>2022-08-18T10:55:58Z</time>
      </trkpt>
      <trkpt lat="44.60122" lon="5.072">
        <ele>611</ele>
        <time>2022-08-18T10:56:00Z</time>
      </trkpt>
      <trkpt lat="44.6013" lon="5.07156">
        <ele>611</ele>
        <time>2022-08-18T10:56:03Z</time>
      </trkpt>
      <trkpt lat="44.60132" lon="5.07128">
        <ele>611</ele>
        <time>2022-08-18T10:56:05Z</time>
      </trkpt>
      <trkpt lat="44.60122" lon="5.07076">
        <ele>610</ele>
        <time>2022-08-18T10:56:09Z</time>
      </trkpt>
      <trkpt lat="44.60114" lon="5.07054">
        <ele>610</ele>
        <time>2022-08-18T10:56:11Z</time>
      </trkpt>
      <trkpt lat="44.60104" lon="5.07034">
        <ele>609</ele>
        <time>2022-08-18T10:56:13Z</time>
      </trkpt>
      <trkpt lat="44.59939" lon="5.06887">
        <ele>605</ele>
        <time>2022-08-18T10:56:39Z</time>
      </trkpt>
      <trkpt lat="44.59934" lon="5.06879">
        <ele>605</ele>
        <time>2022-08-18T10:56:40Z</time>
      </trkpt>
      <trkpt lat="44.59931" lon="5.06857">
        <ele>604</ele>
        <time>2022-08-18T10:56:42Z</time>
      </trkpt>
      <trkpt lat="44.59944" lon="5.06671">
        <ele>599</ele>
        <time>2022-08-18T10:56:57Z</time>
      </trkpt>
      <trkpt lat="44.59968" lon="5.06545">
        <ele>595</ele>
        <time>2022-08-18T10:57:06Z</time>
      </trkpt>
      <trkpt lat="44.59961" lon="5.06465">
        <ele>593</ele>
        <time>2022-08-18T10:57:11Z</time>
      </trkpt>
      <trkpt lat="44.59955" lon="5.06437">
        <ele>590</ele>
        <time>2022-08-18T10:57:13Z</time>
      </trkpt>
      <trkpt lat="44.59896" lon="5.06341">
        <ele>584</ele>
        <time>2022-08-18T10:57:21Z</time>
      </trkpt>
      <trkpt lat="44.59828" lon="5.06277">
        <ele>578</ele>
        <time>2022-08-18T10:57:28Z</time>
      </trkpt>
      <trkpt lat="44.59806" lon="5.06264">
        <ele>576</ele>
        <time>2022-08-18T10:57:30Z</time>
      </trkpt>
      <trkpt lat="44.59737" lon="5.06254">
        <ele>570</ele>
        <time>2022-08-18T10:57:36Z</time>
      </trkpt>
      <trkpt lat="44.59637" lon="5.06259">
        <ele>560</ele>
        <time>2022-08-18T10:57:45Z</time>
      </trkpt>
      <trkpt lat="44.59594" lon="5.0628">
        <ele>556</ele>
        <time>2022-08-18T10:57:49Z</time>
      </trkpt>
      <trkpt lat="44.59569" lon="5.06295">
        <ele>554</ele>
        <time>2022-08-18T10:57:52Z</time>
      </trkpt>
      <trkpt lat="44.5955" lon="5.06288">
        <ele>554</ele>
        <time>2022-08-18T10:57:54Z</time>
      </trkpt>
      <trkpt lat="44.59542" lon="5.06281">
        <ele>554</ele>
        <time>2022-08-18T10:57:55Z</time>
      </trkpt>
      <trkpt lat="44.5946" lon="5.06156">
        <ele>547</ele>
        <time>2022-08-18T10:58:06Z</time>
      </trkpt>
      <trkpt lat="44.5944" lon="5.06116">
        <ele>544</ele>
        <time>2022-08-18T10:58:09Z</time>
      </trkpt>
      <trkpt lat="44.59429" lon="5.06073">
        <ele>542</ele>
        <time>2022-08-18T10:58:12Z</time>
      </trkpt>
      <trkpt lat="44.59434" lon="5.06015">
        <ele>539</ele>
        <time>2022-08-18T10:58:15Z</time>
      </trkpt>
      <trkpt lat="44.59441" lon="5.06">
        <ele>536</ele>
        <time>2022-08-18T10:58:16Z</time>
      </trkpt>
      <trkpt lat="44.59478" lon="5.05888">
        <ele>525</ele>
        <time>2022-08-18T10:58:24Z</time>
      </trkpt>
      <trkpt lat="44.59483" lon="5.0588">
        <ele>524</ele>
        <time>2022-08-18T10:58:25Z</time>
      </trkpt>
      <trkpt lat="44.59491" lon="5.05862">
        <ele>523</ele>
        <time>2022-08-18T10:58:27Z</time>
      </trkpt>
      <trkpt lat="44.59489" lon="5.05855">
        <ele>523</ele>
        <time>2022-08-18T10:58:28Z</time>
      </trkpt>
      <trkpt lat="44.59482" lon="5.05855">
        <ele>522</ele>
        <time>2022-08-18T10:58:29Z</time>
      </trkpt>
      <trkpt lat="44.59478" lon="5.05858">
        <ele>522</ele>
        <time>2022-08-18T10:58:30Z</time>
      </trkpt>
      <trkpt lat="44.59454" lon="5.05908">
        <ele>520</ele>
        <time>2022-08-18T10:58:37Z</time>
      </trkpt>
      <trkpt lat="44.59402" lon="5.05986">
        <ele>513</ele>
        <time>2022-08-18T10:58:46Z</time>
      </trkpt>
      <trkpt lat="44.59395" lon="5.06009">
        <ele>512</ele>
        <time>2022-08-18T10:58:48Z</time>
      </trkpt>
      <trkpt lat="44.59391" lon="5.06039">
        <ele>510</ele>
        <time>2022-08-18T10:58:51Z</time>
      </trkpt>
      <trkpt lat="44.59388" lon="5.06046">
        <ele>509</ele>
        <time>2022-08-18T10:58:52Z</time>
      </trkpt>
      <trkpt lat="44.59383" lon="5.06048">
        <ele>508</ele>
        <time>2022-08-18T10:58:53Z</time>
      </trkpt>
      <trkpt lat="44.59376" lon="5.06042">
        <ele>506</ele>
        <time>2022-08-18T10:58:55Z</time>
      </trkpt>
      <trkpt lat="44.59382" lon="5.05999">
        <ele>503</ele>
        <time>2022-08-18T10:58:59Z</time>
      </trkpt>
      <trkpt lat="44.59412" lon="5.05864">
        <ele>494</ele>
        <time>2022-08-18T10:59:09Z</time>
      </trkpt>
      <trkpt lat="44.59456" lon="5.05743">
        <ele>486</ele>
        <time>2022-08-18T10:59:17Z</time>
      </trkpt>
      <trkpt lat="44.5946" lon="5.05726">
        <ele>485</ele>
        <time>2022-08-18T10:59:18Z</time>
      </trkpt>
      <trkpt lat="44.59462" lon="5.05676">
        <ele>483</ele>
        <time>2022-08-18T10:59:21Z</time>
      </trkpt>
      <trkpt lat="44.59461" lon="5.0566">
        <ele>482</ele>
        <time>2022-08-18T10:59:22Z</time>
      </trkpt>
      <trkpt lat="44.59456" lon="5.05646">
        <ele>481</ele>
        <time>2022-08-18T10:59:23Z</time>
      </trkpt>
      <trkpt lat="44.59443" lon="5.05619">
        <ele>479</ele>
        <time>2022-08-18T10:59:25Z</time>
      </trkpt>
      <trkpt lat="44.59433" lon="5.05611">
        <ele>478</ele>
        <time>2022-08-18T10:59:26Z</time>
      </trkpt>
      <trkpt lat="44.5942" lon="5.05585">
        <ele>476</ele>
        <time>2022-08-18T10:59:28Z</time>
      </trkpt>
      <trkpt lat="44.59421" lon="5.05554">
        <ele>475</ele>
        <time>2022-08-18T10:59:30Z</time>
      </trkpt>
      <trkpt lat="44.59432" lon="5.05515">
        <ele>472</ele>
        <time>2022-08-18T10:59:33Z</time>
      </trkpt>
      <trkpt lat="44.59468" lon="5.05447">
        <ele>468</ele>
        <time>2022-08-18T10:59:39Z</time>
      </trkpt>
      <trkpt lat="44.59507" lon="5.05406">
        <ele>465</ele>
        <time>2022-08-18T10:59:44Z</time>
      </trkpt>
      <trkpt lat="44.59521" lon="5.05385">
        <ele>463</ele>
        <time>2022-08-18T10:59:46Z</time>
      </trkpt>
      <trkpt lat="44.59573" lon="5.05334">
        <ele>459</ele>
        <time>2022-08-18T10:59:52Z</time>
      </trkpt>
      <trkpt lat="44.59585" lon="5.05308">
        <ele>457</ele>
        <time>2022-08-18T10:59:54Z</time>
      </trkpt>
      <trkpt lat="44.59599" lon="5.05265">
        <ele>454</ele>
        <time>2022-08-18T10:59:57Z</time>
      </trkpt>
      <trkpt lat="44.59608" lon="5.05242">
        <ele>453</ele>
        <time>2022-08-18T10:59:59Z</time>
      </trkpt>
      <trkpt lat="44.59611" lon="5.05232">
        <ele>452</ele>
        <time>2022-08-18T11:00:00Z</time>
      </trkpt>
      <trkpt lat="44.59611" lon="5.05223">
        <ele>452</ele>
        <time>2022-08-18T11:00:01Z</time>
      </trkpt>
      <trkpt lat="44.59609" lon="5.05216">
        <ele>451</ele>
        <time>2022-08-18T11:00:02Z</time>
      </trkpt>
      <trkpt lat="44.59604" lon="5.05213">
        <ele>451</ele>
        <time>2022-08-18T11:00:03Z</time>
      </trkpt>
      <trkpt lat="44.59599" lon="5.05217">
        <ele>450</ele>
        <time>2022-08-18T11:00:04Z</time>
      </trkpt>
      <trkpt lat="44.59572" lon="5.05268">
        <ele>447</ele>
        <time>2022-08-18T11:00:10Z</time>
      </trkpt>
      <trkpt lat="44.59559" lon="5.05285">
        <ele>446</ele>
        <time>2022-08-18T11:00:12Z</time>
      </trkpt>
      <trkpt lat="44.59542" lon="5.05296">
        <ele>445</ele>
        <time>2022-08-18T11:00:14Z</time>
      </trkpt>
      <trkpt lat="44.59523" lon="5.05303">
        <ele>445</ele>
        <time>2022-08-18T11:00:16Z</time>
      </trkpt>
      <trkpt lat="44.59514" lon="5.05308">
        <ele>444</ele>
        <time>2022-08-18T11:00:17Z</time>
      </trkpt>
      <trkpt lat="44.59451" lon="5.05374">
        <ele>440</ele>
        <time>2022-08-18T11:00:25Z</time>
      </trkpt>
      <trkpt lat="44.59431" lon="5.0538">
        <ele>439</ele>
        <time>2022-08-18T11:00:27Z</time>
      </trkpt>
      <trkpt lat="44.59255" lon="5.05327">
        <ele>426</ele>
        <time>2022-08-18T11:00:43Z</time>
      </trkpt>
      <trkpt lat="44.59221" lon="5.05309">
        <ele>425</ele>
        <time>2022-08-18T11:00:46Z</time>
      </trkpt>
      <trkpt lat="44.59194" lon="5.05287">
        <ele>424</ele>
        <time>2022-08-18T11:00:49Z</time>
      </trkpt>
      <trkpt lat="44.59189" lon="5.05278">
        <ele>423</ele>
        <time>2022-08-18T11:00:50Z</time>
      </trkpt>
      <trkpt lat="44.59187" lon="5.05269">
        <ele>423</ele>
        <time>2022-08-18T11:00:51Z</time>
      </trkpt>
      <trkpt lat="44.59187" lon="5.0526">
        <ele>423</ele>
        <time>2022-08-18T11:00:52Z</time>
      </trkpt>
      <trkpt lat="44.59194" lon="5.05239">
        <ele>423</ele>
        <time>2022-08-18T11:00:55Z</time>
      </trkpt>
      <trkpt lat="44.59201" lon="5.05228">
        <ele>423</ele>
        <time>2022-08-18T11:00:57Z</time>
      </trkpt>
      <trkpt lat="44.59295" lon="5.05008">
        <ele>424</ele>
        <time>2022-08-18T11:01:27Z</time>
      </trkpt>
      <trkpt lat="44.59401" lon="5.04798">
        <ele>424</ele>
        <time>2022-08-18T11:01:57Z</time>
      </trkpt>
      <trkpt lat="44.59417" lon="5.04747">
        <ele>424</ele>
        <time>2022-08-18T11:02:04Z</time>
      </trkpt>
      <trkpt lat="44.59441" lon="5.04611">
        <ele>425</ele>
        <time>2022-08-18T11:02:21Z</time>
      </trkpt>
      <trkpt lat="44.59454" lon="5.04583">
        <ele>424</ele>
        <time>2022-08-18T11:02:25Z</time>
      </trkpt>
      <trkpt lat="44.59477" lon="5.04547">
        <ele>424</ele>
        <time>2022-08-18T11:02:31Z</time>
      </trkpt>
      <trkpt lat="44.59576" lon="5.04344">
        <ele>424</ele>
        <time>2022-08-18T11:03:01Z</time>
      </trkpt>
      <trkpt lat="44.5966" lon="5.0411">
        <ele>422</ele>
        <time>2022-08-18T11:03:30Z</time>
      </trkpt>
      <trkpt lat="44.59682" lon="5.04037">
        <ele>423</ele>
        <time>2022-08-18T11:03:39Z</time>
      </trkpt>
      <trkpt lat="44.59693" lon="5.04015">
        <ele>423</ele>
        <time>2022-08-18T11:03:42Z</time>
      </trkpt>
      <trkpt lat="44.59741" lon="5.03953">
        <ele>423</ele>
        <time>2022-08-18T11:03:52Z</time>
      </trkpt>
      <trkpt lat="44.59749" lon="5.03938">
        <ele>423</ele>
        <time>2022-08-18T11:03:54Z</time>
      </trkpt>
      <trkpt lat="44.5976" lon="5.03896">
        <ele>423</ele>
        <time>2022-08-18T11:03:59Z</time>
      </trkpt>
      <trkpt lat="44.59764" lon="5.03889">
        <ele>423</ele>
        <time>2022-08-18T11:04:00Z</time>
      </trkpt>
      <trkpt lat="44.59769" lon="5.03883">
        <ele>423</ele>
        <time>2022-08-18T11:04:01Z</time>
      </trkpt>
      <trkpt lat="44.59776" lon="5.0388">
        <ele>423</ele>
        <time>2022-08-18T11:04:02Z</time>
      </trkpt>
      <trkpt lat="44.59803" lon="5.0388">
        <ele>423</ele>
        <time>2022-08-18T11:04:06Z</time>
      </trkpt>
      <trkpt lat="44.59816" lon="5.03877">
        <ele>424</ele>
        <time>2022-08-18T11:04:08Z</time>
      </trkpt>
      <trkpt lat="44.59845" lon="5.03859">
        <ele>425</ele>
        <time>2022-08-18T11:04:13Z</time>
      </trkpt>
      <trkpt lat="44.59898" lon="5.03814">
        <ele>425</ele>
        <time>2022-08-18T11:04:23Z</time>
      </trkpt>
      <trkpt lat="44.59951" lon="5.03784">
        <ele>426</ele>
        <time>2022-08-18T11:04:32Z</time>
      </trkpt>
      <trkpt lat="44.59961" lon="5.03774">
        <ele>426</ele>
        <time>2022-08-18T11:04:34Z</time>
      </trkpt>
      <trkpt lat="44.59965" lon="5.03768">
        <ele>426</ele>
        <time>2022-08-18T11:04:35Z</time>
      </trkpt>
      <trkpt lat="44.59971" lon="5.03753">
        <ele>427</ele>
        <time>2022-08-18T11:04:37Z</time>
      </trkpt>
      <trkpt lat="44.59995" lon="5.03516">
        <ele>420</ele>
        <time>2022-08-18T11:05:01Z</time>
      </trkpt>
      <trkpt lat="44.60002" lon="5.03338">
        <ele>409</ele>
        <time>2022-08-18T11:05:13Z</time>
      </trkpt>
      <trkpt lat="44.60038" lon="5.03094">
        <ele>395</ele>
        <time>2022-08-18T11:05:29Z</time>
      </trkpt>
      <trkpt lat="44.60038" lon="5.03044">
        <ele>392</ele>
        <time>2022-08-18T11:05:32Z</time>
      </trkpt>
      <trkpt lat="44.60031" lon="5.02961">
        <ele>390</ele>
        <time>2022-08-18T11:05:37Z</time>
      </trkpt>
      <trkpt lat="44.60034" lon="5.02912">
        <ele>388</ele>
        <time>2022-08-18T11:05:40Z</time>
      </trkpt>
      <trkpt lat="44.60088" lon="5.02735">
        <ele>376</ele>
        <time>2022-08-18T11:05:52Z</time>
      </trkpt>
      <trkpt lat="44.60124" lon="5.02671">
        <ele>371</ele>
        <time>2022-08-18T11:05:57Z</time>
      </trkpt>
      <trkpt lat="44.60147" lon="5.02641">
        <ele>369</ele>
        <time>2022-08-18T11:06:00Z</time>
      </trkpt>
      <trkpt lat="44.60185" lon="5.0261">
        <ele>365</ele>
        <time>2022-08-18T11:06:04Z</time>
      </trkpt>
      <trkpt lat="44.602" lon="5.02586">
        <ele>364</ele>
        <time>2022-08-18T11:06:06Z</time>
      </trkpt>
      <trkpt lat="44.60218" lon="5.02543">
        <ele>361</ele>
        <time>2022-08-18T11:06:09Z</time>
      </trkpt>
      <trkpt lat="44.60222" lon="5.02528">
        <ele>360</ele>
        <time>2022-08-18T11:06:10Z</time>
      </trkpt>
      <trkpt lat="44.60224" lon="5.02494">
        <ele>358</ele>
        <time>2022-08-18T11:06:12Z</time>
      </trkpt>
      <trkpt lat="44.60209" lon="5.02414">
        <ele>354</ele>
        <time>2022-08-18T11:06:17Z</time>
      </trkpt>
      <trkpt lat="44.60188" lon="5.02344">
        <ele>350</ele>
        <time>2022-08-18T11:06:22Z</time>
      </trkpt>
      <trkpt lat="44.60183" lon="5.02313">
        <ele>349</ele>
        <time>2022-08-18T11:06:24Z</time>
      </trkpt>
      <trkpt lat="44.60179" lon="5.02299">
        <ele>349</ele>
        <time>2022-08-18T11:06:25Z</time>
      </trkpt>
      <trkpt lat="44.60138" lon="5.02229">
        <ele>345</ele>
        <time>2022-08-18T11:06:31Z</time>
      </trkpt>
      <trkpt lat="44.60128" lon="5.02202">
        <ele>344</ele>
        <time>2022-08-18T11:06:33Z</time>
      </trkpt>
      <trkpt lat="44.60131" lon="5.02186">
        <ele>343</ele>
        <time>2022-08-18T11:06:34Z</time>
      </trkpt>
      <trkpt lat="44.60158" lon="5.02033">
        <ele>333</ele>
        <time>2022-08-18T11:06:44Z</time>
      </trkpt>
      <trkpt lat="44.60158" lon="5.02016">
        <ele>332</ele>
        <time>2022-08-18T11:06:45Z</time>
      </trkpt>
      <trkpt lat="44.60139" lon="5.01902">
        <ele>326</ele>
        <time>2022-08-18T11:06:52Z</time>
      </trkpt>
      <trkpt lat="44.60115" lon="5.0181">
        <ele>321</ele>
        <time>2022-08-18T11:06:58Z</time>
      </trkpt>
      <trkpt lat="44.60111" lon="5.01781">
        <ele>320</ele>
        <time>2022-08-18T11:07:00Z</time>
      </trkpt>
      <trkpt lat="44.60116" lon="5.01721">
        <ele>316</ele>
        <time>2022-08-18T11:07:05Z</time>
      </trkpt>
      <trkpt lat="44.60116" lon="5.017">
        <ele>315</ele>
        <time>2022-08-18T11:07:07Z</time>
      </trkpt>
      <trkpt lat="44.60118" lon="5.01692">
        <ele>315</ele>
        <time>2022-08-18T11:07:08Z</time>
      </trkpt>
      <trkpt lat="44.60121" lon="5.01688">
        <ele>314</ele>
        <time>2022-08-18T11:07:09Z</time>
      </trkpt>
      <trkpt lat="44.60125" lon="5.01688">
        <ele>313</ele>
        <time>2022-08-18T11:07:10Z</time>
      </trkpt>
      <trkpt lat="44.60128" lon="5.01693">
        <ele>313</ele>
        <time>2022-08-18T11:07:11Z</time>
      </trkpt>
      <trkpt lat="44.60128" lon="5.01699">
        <ele>312</ele>
        <time>2022-08-18T11:07:12Z</time>
      </trkpt>
      <trkpt lat="44.60127" lon="5.01706">
        <ele>312</ele>
        <time>2022-08-18T11:07:13Z</time>
      </trkpt>
      <trkpt lat="44.60121" lon="5.01728">
        <ele>312</ele>
        <time>2022-08-18T11:07:16Z</time>
      </trkpt>
      <trkpt lat="44.60118" lon="5.01761">
        <ele>311</ele>
        <time>2022-08-18T11:07:20Z</time>
      </trkpt>
      <trkpt lat="44.60121" lon="5.01779">
        <ele>311</ele>
        <time>2022-08-18T11:07:22Z</time>
      </trkpt>
      <trkpt lat="44.6013" lon="5.01807">
        <ele>309</ele>
        <time>2022-08-18T11:07:25Z</time>
      </trkpt>
      <trkpt lat="44.60161" lon="5.01867">
        <ele>305</ele>
        <time>2022-08-18T11:07:31Z</time>
      </trkpt>
      <trkpt lat="44.60165" lon="5.01888">
        <ele>305</ele>
        <time>2022-08-18T11:07:33Z</time>
      </trkpt>
      <trkpt lat="44.60169" lon="5.01895">
        <ele>305</ele>
        <time>2022-08-18T11:07:34Z</time>
      </trkpt>
      <trkpt lat="44.60174" lon="5.01895">
        <ele>304</ele>
        <time>2022-08-18T11:07:35Z</time>
      </trkpt>
      <trkpt lat="44.60178" lon="5.0189">
        <ele>304</ele>
        <time>2022-08-18T11:07:36Z</time>
      </trkpt>
      <trkpt lat="44.60179" lon="5.01882">
        <ele>303</ele>
        <time>2022-08-18T11:07:37Z</time>
      </trkpt>
      <trkpt lat="44.6016" lon="5.0182">
        <ele>300</ele>
        <time>2022-08-18T11:07:43Z</time>
      </trkpt>
      <trkpt lat="44.60148" lon="5.01749">
        <ele>297</ele>
        <time>2022-08-18T11:07:48Z</time>
      </trkpt>
      <trkpt lat="44.60149" lon="5.01734">
        <ele>296</ele>
        <time>2022-08-18T11:07:49Z</time>
      </trkpt>
      <trkpt lat="44.6015" lon="5.01719">
        <ele>295</ele>
        <time>2022-08-18T11:07:50Z</time>
      </trkpt>
      <trkpt lat="44.60154" lon="5.01705">
        <ele>294</ele>
        <time>2022-08-18T11:07:51Z</time>
      </trkpt>
      <trkpt lat="44.60166" lon="5.01678">
        <ele>291</ele>
        <time>2022-08-18T11:07:53Z</time>
      </trkpt>
      <trkpt lat="44.60174" lon="5.01629">
        <ele>288</ele>
        <time>2022-08-18T11:07:56Z</time>
      </trkpt>
      <trkpt lat="44.60176" lon="5.01538">
        <ele>282</ele>
        <time>2022-08-18T11:08:01Z</time>
      </trkpt>
      <trkpt lat="44.60214" lon="5.01372">
        <ele>272</ele>
        <time>2022-08-18T11:08:11Z</time>
      </trkpt>
      <trkpt lat="44.60223" lon="5.0135">
        <ele>270</ele>
        <time>2022-08-18T11:08:13Z</time>
      </trkpt>
      <trkpt lat="44.60228" lon="5.01342">
        <ele>270</ele>
        <time>2022-08-18T11:08:14Z</time>
      </trkpt>
      <trkpt lat="44.60231" lon="5.01333">
        <ele>269</ele>
        <time>2022-08-18T11:08:15Z</time>
      </trkpt>
      <trkpt lat="44.60231" lon="5.01324">
        <ele>269</ele>
        <time>2022-08-18T11:08:16Z</time>
      </trkpt>
      <trkpt lat="44.60229" lon="5.01316">
        <ele>268</ele>
        <time>2022-08-18T11:08:17Z</time>
      </trkpt>
      <trkpt lat="44.60223" lon="5.01312">
        <ele>268</ele>
        <time>2022-08-18T11:08:18Z</time>
      </trkpt>
      <trkpt lat="44.60104" lon="5.01299">
        <ele>259</ele>
        <time>2022-08-18T11:08:32Z</time>
      </trkpt>
      <trkpt lat="44.60099" lon="5.01294">
        <ele>258</ele>
        <time>2022-08-18T11:08:33Z</time>
      </trkpt>
      <trkpt lat="44.60096" lon="5.01288">
        <ele>257</ele>
        <time>2022-08-18T11:08:34Z</time>
      </trkpt>
      <trkpt lat="44.60096" lon="5.01281">
        <ele>256</ele>
        <time>2022-08-18T11:08:35Z</time>
      </trkpt>
      <trkpt lat="44.60099" lon="5.01275">
        <ele>256</ele>
        <time>2022-08-18T11:08:36Z</time>
      </trkpt>
      <trkpt lat="44.60145" lon="5.01259">
        <ele>251</ele>
        <time>2022-08-18T11:08:43Z</time>
      </trkpt>
      <trkpt lat="44.60152" lon="5.01255">
        <ele>250</ele>
        <time>2022-08-18T11:08:44Z</time>
      </trkpt>
      <trkpt lat="44.60162" lon="5.0124">
        <ele>249</ele>
        <time>2022-08-18T11:08:46Z</time>
      </trkpt>
      <trkpt lat="44.60165" lon="5.01231">
        <ele>248</ele>
        <time>2022-08-18T11:08:47Z</time>
      </trkpt>
      <trkpt lat="44.60167" lon="5.01157">
        <ele>248</ele>
        <time>2022-08-18T11:08:54Z</time>
      </trkpt>
      <trkpt lat="44.60171" lon="5.01149">
        <ele>248</ele>
        <time>2022-08-18T11:08:55Z</time>
      </trkpt>
      <trkpt lat="44.60191" lon="5.0113">
        <ele>248</ele>
        <time>2022-08-18T11:08:59Z</time>
      </trkpt>
      <trkpt lat="44.60194" lon="5.01125">
        <ele>247</ele>
        <time>2022-08-18T11:09:00Z</time>
      </trkpt>
      <trkpt lat="44.60196" lon="5.01107">
        <ele>247</ele>
        <time>2022-08-18T11:09:03Z</time>
      </trkpt>
      <trkpt lat="44.60193" lon="5.01083">
        <ele>246</ele>
        <time>2022-08-18T11:09:06Z</time>
      </trkpt>
      <trkpt lat="44.6018" lon="5.01056">
        <ele>245</ele>
        <time>2022-08-18T11:09:10Z</time>
      </trkpt>
      <trkpt lat="44.60039" lon="5.00893">
        <ele>243</ele>
        <time>2022-08-18T11:09:38Z</time>
      </trkpt>
      <trkpt lat="44.59878" lon="5.00691">
        <ele>236</ele>
        <time>2022-08-18T11:10:08Z</time>
      </trkpt>
      <trkpt lat="44.59835" lon="5.00636">
        <ele>236</ele>
        <time>2022-08-18T11:10:17Z</time>
      </trkpt>
      <trkpt lat="44.59816" lon="5.00604">
        <ele>237</ele>
        <time>2022-08-18T11:10:22Z</time>
      </trkpt>
      <trkpt lat="44.59805" lon="5.00568">
        <ele>238</ele>
        <time>2022-08-18T11:10:27Z</time>
      </trkpt>
      <trkpt lat="44.59799" lon="5.005">
        <ele>239</ele>
        <time>2022-08-18T11:10:36Z</time>
      </trkpt>
      <trkpt lat="44.59822" lon="5.00216">
        <ele>238</ele>
        <time>2022-08-18T11:11:06Z</time>
      </trkpt>
      <trkpt lat="44.59843" lon="4.99885">
        <ele>234</ele>
        <time>2022-08-18T11:11:36Z</time>
      </trkpt>
      <trkpt lat="44.59868" lon="4.99529">
        <ele>231</ele>
        <time>2022-08-18T11:12:06Z</time>
      </trkpt>
      <trkpt lat="44.59885" lon="4.99462">
        <ele>230</ele>
        <time>2022-08-18T11:12:12Z</time>
      </trkpt>
      <trkpt lat="44.60001" lon="4.99152">
        <ele>226</ele>
        <time>2022-08-18T11:12:42Z</time>
      </trkpt>
      <trkpt lat="44.60093" lon="4.98908">
        <ele>228</ele>
        <time>2022-08-18T11:13:11Z</time>
      </trkpt>
      <trkpt lat="44.60094" lon="4.98899">
        <ele>228</ele>
        <time>2022-08-18T11:13:12Z</time>
      </trkpt>
      <trkpt lat="44.60093" lon="4.9889">
        <ele>228</ele>
        <time>2022-08-18T11:13:13Z</time>
      </trkpt>
      <trkpt lat="44.60071" lon="4.98836">
        <ele>227</ele>
        <time>2022-08-18T11:13:19Z</time>
      </trkpt>
      <trkpt lat="44.59935" lon="4.9859">
        <ele>224</ele>
        <time>2022-08-18T11:13:48Z</time>
      </trkpt>
      <trkpt lat="44.59887" lon="4.98459">
        <ele>226</ele>
        <time>2022-08-18T11:14:05Z</time>
      </trkpt>
      <trkpt lat="44.59888" lon="4.9845">
        <ele>226</ele>
        <time>2022-08-18T11:14:06Z</time>
      </trkpt>
      <trkpt lat="44.59891" lon="4.98419">
        <ele>226</ele>
        <time>2022-08-18T11:14:09Z</time>
      </trkpt>
      <trkpt lat="44.59933" lon="4.98108">
        <ele>220</ele>
        <time>2022-08-18T11:14:39Z</time>
      </trkpt>
      <trkpt lat="44.59952" lon="4.97807">
        <ele>220</ele>
        <time>2022-08-18T11:15:09Z</time>
      </trkpt>
      <trkpt lat="44.59966" lon="4.97517">
        <ele>220</ele>
        <time>2022-08-18T11:15:39Z</time>
      </trkpt>
      <trkpt lat="44.59973" lon="4.97209">
        <ele>218</ele>
        <time>2022-08-18T11:16:09Z</time>
      </trkpt>
      <trkpt lat="44.59965" lon="4.96881">
        <ele>215</ele>
        <time>2022-08-18T11:16:39Z</time>
      </trkpt>
      <trkpt lat="44.59951" lon="4.96554">
        <ele>212</ele>
        <time>2022-08-18T11:17:09Z</time>
      </trkpt>
      <trkpt lat="44.59964" lon="4.96221">
        <ele>209</ele>
        <time>2022-08-18T11:17:39Z</time>
      </trkpt>
      <trkpt lat="44.59978" lon="4.95905">
        <ele>207</ele>
        <time>2022-08-18T11:18:09Z</time>
      </trkpt>
      <trkpt lat="44.60005" lon="4.95601">
        <ele>205</ele>
        <time>2022-08-18T11:18:39Z</time>
      </trkpt>
      <trkpt lat="44.60051" lon="4.953">
        <ele>203</ele>
        <time>2022-08-18T11:19:09Z</time>
      </trkpt>
      <trkpt lat="44.60095" lon="4.95016">
        <ele>200</ele>
        <time>2022-08-18T11:19:39Z</time>
      </trkpt>
      <trkpt lat="44.60136" lon="4.94743">
        <ele>198</ele>
        <time>2022-08-18T11:20:09Z</time>
      </trkpt>
      <trkpt lat="44.60146" lon="4.94685">
        <ele>198</ele>
        <time>2022-08-18T11:20:16Z</time>
      </trkpt>
      <trkpt lat="44.60183" lon="4.94634">
        <ele>198</ele>
        <time>2022-08-18T11:20:26Z</time>
      </trkpt>
      <trkpt lat="44.60186" lon="4.9463">
        <ele>198</ele>
        <time>2022-08-18T11:20:27Z</time>
      </trkpt>
      <trkpt lat="44.6019" lon="4.94624">
        <ele>198</ele>
        <time>2022-08-18T11:20:29Z</time>
      </trkpt>
      <trkpt lat="44.60189" lon="4.94619">
        <ele>198</ele>
        <time>2022-08-18T11:20:30Z</time>
      </trkpt>
      <trkpt lat="44.60186" lon="4.94617">
        <ele>197</ele>
        <time>2022-08-18T11:20:31Z</time>
      </trkpt>
      <trkpt lat="44.60178" lon="4.94618">
        <ele>197</ele>
        <time>2022-08-18T11:20:33Z</time>
      </trkpt>
      <trkpt lat="44.60165" lon="4.94626">
        <ele>197</ele>
        <time>2022-08-18T11:20:36Z</time>
      </trkpt>
      <trkpt lat="44.59991" lon="4.94725">
        <ele>196</ele>
        <time>2022-08-18T11:21:06Z</time>
      </trkpt>
      <trkpt lat="44.59959" lon="4.94744">
        <ele>196</ele>
        <time>2022-08-18T11:21:12Z</time>
      </trkpt>
      <trkpt lat="44.59954" lon="4.94743">
        <ele>196</ele>
        <time>2022-08-18T11:21:13Z</time>
      </trkpt>
      <trkpt lat="44.59949" lon="4.94739">
        <ele>196</ele>
        <time>2022-08-18T11:21:14Z</time>
      </trkpt>
      <trkpt lat="44.59948" lon="4.94733">
        <ele>196</ele>
        <time>2022-08-18T11:21:15Z</time>
      </trkpt>
      <trkpt lat="44.59961" lon="4.94487">
        <ele>196</ele>
        <time>2022-08-18T11:21:45Z</time>
      </trkpt>
      <trkpt lat="44.59955" lon="4.94323">
        <ele>195</ele>
        <time>2022-08-18T11:22:03Z</time>
      </trkpt>
      <trkpt lat="44.59999" lon="4.94042">
        <ele>194</ele>
        <time>2022-08-18T11:22:33Z</time>
      </trkpt>
      <trkpt lat="44.60039" lon="4.93763">
        <ele>192</ele>
        <time>2022-08-18T11:23:03Z</time>
      </trkpt>
      <trkpt lat="44.60075" lon="4.93511">
        <ele>191</ele>
        <time>2022-08-18T11:23:33Z</time>
      </trkpt>
      <trkpt lat="44.60103" lon="4.93335">
        <ele>190</ele>
        <time>2022-08-18T11:23:56Z</time>
      </trkpt>
      <trkpt lat="44.60103" lon="4.93329">
        <ele>189</ele>
        <time>2022-08-18T11:24:10Z</time>
      </trkpt>
      <trkpt lat="44.60102" lon="4.93324">
        <ele>189</ele>
        <time>2022-08-18T11:24:14Z</time>
      </trkpt>
      <trkpt lat="44.60103" lon="4.93319">
        <ele>189</ele>
        <time>2022-08-18T11:24:20Z</time>
      </trkpt>
      <trkpt lat="44.60105" lon="4.93315">
        <ele>189</ele>
        <time>2022-08-18T11:26:19Z</time>
      </trkpt>
      <trkpt lat="44.60107" lon="4.93296">
        <ele>189</ele>
        <time>2022-08-18T11:26:25Z</time>
      </trkpt>
      <trkpt lat="44.60151" lon="4.93109">
        <ele>187</ele>
        <time>2022-08-18T11:26:55Z</time>
      </trkpt>
      <trkpt lat="44.60185" lon="4.92951">
        <ele>185</ele>
        <time>2022-08-18T11:27:16Z</time>
      </trkpt>
      <trkpt lat="44.60187" lon="4.92915">
        <ele>184</ele>
        <time>2022-08-18T11:27:21Z</time>
      </trkpt>
      <trkpt lat="44.60183" lon="4.92903">
        <ele>184</ele>
        <time>2022-08-18T11:27:23Z</time>
      </trkpt>
      <trkpt lat="44.60162" lon="4.92882">
        <ele>184</ele>
        <time>2022-08-18T11:27:28Z</time>
      </trkpt>
      <trkpt lat="44.6013" lon="4.92866">
        <ele>184</ele>
        <time>2022-08-18T11:27:34Z</time>
      </trkpt>
      <trkpt lat="44.5995" lon="4.92848">
        <ele>183</ele>
        <time>2022-08-18T11:28:04Z</time>
      </trkpt>
      <trkpt lat="44.59926" lon="4.92836">
        <ele>183</ele>
        <time>2022-08-18T11:28:08Z</time>
      </trkpt>
      <trkpt lat="44.59764" lon="4.92687">
        <ele>182</ele>
        <time>2022-08-18T11:28:38Z</time>
      </trkpt>
      <trkpt lat="44.59733" lon="4.92654">
        <ele>182</ele>
        <time>2022-08-18T11:28:44Z</time>
      </trkpt>
      <trkpt lat="44.59715" lon="4.92627">
        <ele>182</ele>
        <time>2022-08-18T11:28:48Z</time>
      </trkpt>
      <trkpt lat="44.59697" lon="4.92579">
        <ele>182</ele>
        <time>2022-08-18T11:28:54Z</time>
      </trkpt>
      <trkpt lat="44.59638" lon="4.92304">
        <ele>181</ele>
        <time>2022-08-18T11:29:24Z</time>
      </trkpt>
      <trkpt lat="44.59579" lon="4.92022">
        <ele>180</ele>
        <time>2022-08-18T11:29:54Z</time>
      </trkpt>
      <trkpt lat="44.59568" lon="4.91965">
        <ele>179</ele>
        <time>2022-08-18T11:30:00Z</time>
      </trkpt>
      <trkpt lat="44.59567" lon="4.91758">
        <ele>179</ele>
        <time>2022-08-18T11:30:21Z</time>
      </trkpt>
      <trkpt lat="44.59562" lon="4.91739">
        <ele>179</ele>
        <time>2022-08-18T11:30:23Z</time>
      </trkpt>
      <trkpt lat="44.59451" lon="4.91488">
        <ele>176</ele>
        <time>2022-08-18T11:30:53Z</time>
      </trkpt>
      <trkpt lat="44.59367" lon="4.91209">
        <ele>173</ele>
        <time>2022-08-18T11:31:23Z</time>
      </trkpt>
      <trkpt lat="44.59354" lon="4.91131">
        <ele>172</ele>
        <time>2022-08-18T11:31:31Z</time>
      </trkpt>
      <trkpt lat="44.5933" lon="4.90845">
        <ele>172</ele>
        <time>2022-08-18T11:32:01Z</time>
      </trkpt>
      <trkpt lat="44.59296" lon="4.90564">
        <ele>171</ele>
        <time>2022-08-18T11:32:31Z</time>
      </trkpt>
      <trkpt lat="44.59288" lon="4.9052">
        <ele>170</ele>
        <time>2022-08-18T11:32:36Z</time>
      </trkpt>
      <trkpt lat="44.59279" lon="4.90495">
        <ele>170</ele>
        <time>2022-08-18T11:32:39Z</time>
      </trkpt>
      <trkpt lat="44.59135" lon="4.90304">
        <ele>170</ele>
        <time>2022-08-18T11:33:09Z</time>
      </trkpt>
      <trkpt lat="44.59044" lon="4.90183">
        <ele>167</ele>
        <time>2022-08-18T11:33:29Z</time>
      </trkpt>
      <trkpt lat="44.5904" lon="4.90181">
        <ele>167</ele>
        <time>2022-08-18T11:33:30Z</time>
      </trkpt>
      <trkpt lat="44.59036" lon="4.90185">
        <ele>167</ele>
        <time>2022-08-18T11:33:32Z</time>
      </trkpt>
      <trkpt lat="44.59035" lon="4.902">
        <ele>167</ele>
        <time>2022-08-18T11:33:36Z</time>
      </trkpt>
      <trkpt lat="44.59002" lon="4.90394">
        <ele>170</ele>
        <time>2022-08-18T11:34:06Z</time>
      </trkpt>
      <trkpt lat="44.58989" lon="4.90434">
        <ele>171</ele>
        <time>2022-08-18T11:34:12Z</time>
      </trkpt>
      <trkpt lat="44.58978" lon="4.90461">
        <ele>171</ele>
        <time>2022-08-18T11:34:17Z</time>
      </trkpt>
      <trkpt lat="44.58977" lon="4.90466">
        <ele>171</ele>
        <time>2022-08-18T11:34:18Z</time>
      </trkpt>
      <trkpt lat="44.58977" lon="4.90471">
        <ele>171</ele>
        <time>2022-08-18T11:34:19Z</time>
      </trkpt>
      <trkpt lat="44.58979" lon="4.90476">
        <ele>171</ele>
        <time>2022-08-18T11:34:20Z</time>
      </trkpt>
      <trkpt lat="44.58982" lon="4.90483">
        <ele>171</ele>
        <time>2022-08-18T11:34:22Z</time>
      </trkpt>
      <trkpt lat="44.58988" lon="4.90486">
        <ele>171</ele>
        <time>2022-08-18T11:34:24Z</time>
      </trkpt>
      <trkpt lat="44.58993" lon="4.90486">
        <ele>171</ele>
        <time>2022-08-18T11:34:26Z</time>
      </trkpt>
      <trkpt lat="44.58998" lon="4.90488">
        <ele>171</ele>
        <time>2022-08-18T11:34:28Z</time>
      </trkpt>
      <trkpt lat="44.59002" lon="4.90493">
        <ele>171</ele>
        <time>2022-08-18T11:34:31Z</time>
      </trkpt>
      <trkpt lat="44.59002" lon="4.90498">
        <ele>171</ele>
        <time>2022-08-18T11:34:33Z</time>
      </trkpt>
    </trkseg>
  </trk>
</gpx>